[[{"header":{"parameterUnit":"m.s-1","parameterCategory":1,"la1":31.0,"la2":29.5877,"lo1":-88.7671,"lo2":-86.6584,"dy":0.0162,"dx":0.0185,"nx":115,"ny":88,"refTime":"2024-04-30T18:00:00:Z","depth":0,"parameterNumber":2,"parameterNumberName":"U-component_of_WINDS"},"data":[0.0,0.0,0.0,0.0,0.0,0.0,0.0,0.0,0.0,0.0,0.0,0.0,0.0,0.0,0.0,0.0,0.0,0.0,0.0,0.0,0.0,0.0,0.0,0.0,0.0,0.0,0.0,0.0,0.0,0.0,0.0,0.0,0.0,0.0,0.0,0.0,0.0,0.0,0.0,0.0,0.0,0.0,0.0,0.0,0.0,0.0,0.0,0.0,0.0,0.0,0.0,0.0,0.0,0.0,0.0,0.0,0.0,0.0,0.0,0.0,0.0,0.0,0.0,0.0,0.0,0.0,0.0,0.0,0.0,0.0,0.0,0.0,0.0,0.0,0.0,0.0,0.0,0.0,0.0,0.0,0.0,0.0,0.0,0.0,0.0,0.0,0.0,0.0,0.0,0.0,0.0,0.0,0.0,0.0,0.0,0.0,0.0,0.0,0.0,0.0,0.0,0.0,0.0,0.0,0.0,0.0,0.0,0.0,0.0,0.0,0.0,0.0,0.0,0.0,0.0,0.0,0.0,0.0,0.0,0.0,0.0,0.0,0.0,0.0,0.0,0.0,0.0,0.0,0.0,0.0,0.0,0.0,0.0,0.0,0.0,0.0,0.0,0.0,0.0,0.0,0.0,0.0,0.0,0.0,0.0,0.0,0.0,0.0,0.0,0.0,0.0,0.0,0.0,0.0,0.0,0.0,0.0,0.0,0.0,0.0,0.0,0.0,0.0,0.0,0.0,0.0,0.0,0.0,0.0,0.0,0.0,0.0,0.0,0.0,0.0,0.0,0.0,0.0,0.0,0.0,0.0,0.0,0.0,0.0,0.0,0.0,0.0,0.0,0.0,0.0,0.0,0.0,0.0,0.0,0.0,0.0,0.0,0.0,0.0,0.0,0.0,0.0,0.0,0.0,0.0,0.0,0.0,0.0,0.0,0.0,0.0,0.0,0.0,0.0,0.0,0.0,0.0,0.0,0.0,0.0,0.0,0.0,0.0,0.0,0.0,0.0,0.0,0.0,0.0,0.0,0.0,0.0,0.0,0.0,0.0,0.0,0.0,0.0,0.0,0.0,0.0,0.0,0.0,0.0,0.0,0.0,0.0,0.0,0.0,0.0,0.0,0.0,0.0,0.0,0.0,0.0,0.0,0.0,0.0,0.0,0.0,0.0,0.0,0.0,0.0,0.0,0.0,0.0,0.0,0.0,0.0,0.0,0.0,0.0,0.0,0.0,0.0,0.0,0.0,0.0,0.0,0.0,0.0,0.0,0.0,0.0,0.0,0.0,0.0,0.0,0.0,0.0,0.0,0.0,0.0,0.0,0.0,0.0,0.0,0.0,0.0,0.0,0.0,0.0,0.0,0.0,0.0,0.0,0.0,0.0,0.0,0.0,0.0,0.0,0.0,0.0,0.0,0.0,0.0,0.0,0.0,0.0,0.0,0.0,0.0,0.0,0.0,0.0,0.0,0.0,0.0,0.0,0.0,0.0,0.0,0.0,0.0,0.0,0.0,0.0,0.0,0.0,0.0,0.0,0.0,0.0,0.0,0.0,0.0,0.0,0.0,0.0,0.0,0.0,0.0,0.0,0.0,0.0,0.0,0.0,0.0,0.0,0.0,0.0,0.0,0.0,0.0,0.0,0.0,0.0,0.0,0.0,0.0,0.0,0.0,0.0,0.0,0.0,0.0,0.0,0.0,0.0,0.0,0.0,0.0,0.0,0.0,0.0,0.0,0.0,0.0,0.0,0.0,0.0,0.0,0.0,0.0,0.0,0.0,0.0,0.0,0.0,0.0,0.0,0.0,0.0,0.0,0.0,0.0,0.0,0.0,0.0,0.0,0.0,0.0,0.0,0.0,0.0,0.0,0.0,0.0,0.0,0.0,0.0,0.0,0.0,0.0,0.0,0.0,0.0,0.0,0.0,0.0,0.0,0.0,0.0,0.0,0.0,0.0,0.0,0.0,0.0,0.0,0.0,0.0,0.0,0.0,0.0,0.0,0.0,0.0,0.0,0.0,0.0,0.0,0.0,0.0,0.0,0.0,0.0,0.0,0.0,0.0,0.0,0.0,0.0,0.0,0.0,0.0,0.0,0.0,0.0,0.0,0.0,0.0,0.0,0.0,0.0,0.0,0.0,0.0,0.0,0.0,0.0,0.0,0.0,0.0,0.0,0.0,0.0,0.0,0.0,0.0,0.0,0.0,0.0,0.0,0.0,0.0,0.0,0.0,0.0,0.0,0.0,0.0,0.0,0.0,0.0,0.0,0.0,0.0,0.0,0.0,0.0,0.0,0.0,0.0,0.0,0.0,0.0,0.0,0.0,0.0,0.0,0.0,0.0,0.0,0.0,0.0,0.0,0.0,0.0,0.0,0.0,0.0,0.0,0.0,0.0,0.0,0.0,0.0,0.0,0.0,0.0,0.0,0.0,0.0,0.0,0.0,0.0,0.0,0.0,0.0,0.0,0.0,0.0,0.0,0.0,0.0,0.0,0.0,0.0,0.0,0.0,0.0,0.0,0.0,0.0,0.0,0.0,0.0,0.0,0.0,0.0,0.0,0.0,0.0,0.0,0.0,0.0,0.0,0.0,0.0,0.0,0.0,0.0,0.0,0.0,0.0,0.0,0.0,0.0,0.0,0.0,0.0,0.0,0.0,0.0,0.0,0.0,0.0,0.0,0.0,0.0,0.0,0.0,0.0,0.0,0.0,0.0,0.0,0.0,0.0,0.0,0.0,0.0,0.0,0.0,0.0,0.0,0.0,0.0,0.0,0.0,0.0,0.0,0.0,0.0,0.0,0.0,0.0,0.0,0.0,0.0,0.0,0.0,0.0,0.0,0.0,0.0,0.0,0.0,0.0,0.0,0.0,0.0,0.0,0.0,0.0,0.0,0.0,0.0,0.0,0.0,0.0,0.0,0.0,0.0,0.0,0.0,0.0,0.0,0.0,0.0,0.0,0.0,0.0,0.0,0.0,0.0,0.0,0.0,0.0,0.0,0.0,0.0,0.0,0.0,0.0,0.0,0.0,0.0,0.0,0.0,0.0,0.0,0.0,0.0,0.0,0.0,0.0,0.0,0.0,0.0,0.0,0.0,0.0,0.0,0.0,0.0,0.0,0.0,0.0,0.0,0.0,0.0,0.0,0.0,0.0,0.0,0.0,0.0,0.0,0.0,0.0,0.0,0.0,0.0,0.0,0.0,0.0,0.0,0.0,0.0,0.0,0.0,0.0,0.0,0.0,0.0,0.0,0.0,0.0,0.0,0.0,0.0,0.0,0.0,0.0,0.0,0.0,0.0,0.0,0.0,0.0,0.0,0.0,0.0,0.0,0.0,0.0,0.0,0.0,0.0,0.0,0.0,0.0,0.0,0.0,0.0,0.0,0.0,0.0,0.0,0.0,0.0,0.0,0.0,0.0,0.0,0.0,0.0,0.0,0.0,0.0,0.0,0.0,0.0,0.0,0.0,0.0,0.0,0.0,0.0,0.0,0.0,0.0,0.0,0.0,0.0,0.0,0.0,0.0,0.0,0.0,0.0,0.0,0.0,0.0,0.0,0.0,0.0,0.0,0.0,0.0,0.0,0.0,0.0,0.0,0.0,0.0,0.0,0.0,0.0,0.0,0.0,0.0,0.0,0.0,0.0,0.0,0.0,0.0,0.0,0.0,0.0,0.0,0.0,0.0,0.0,0.0,0.0,0.0,0.0,0.0,0.0,0.0,0.0,0.0,0.0,0.0,0.0,0.0,0.0,0.0,0.0,0.0,0.0,0.0,0.0,0.0,0.0,0.0,0.0,0.0,0.0,0.0,0.0,0.0,0.0,0.0,0.0,0.0,0.0,0.0,0.0,0.0,0.0,0.0,0.0,0.0,0.0,0.0,0.0,0.0,0.0,0.0,0.0,0.0,0.0,0.0,0.0,0.0,0.0,0.0,0.0,0.0,0.0,0.0,0.0,0.0,0.0,0.0,0.0,0.0,0.0,0.0,0.0,0.0,0.0,0.0,0.0,0.0,0.0,0.0,0.0,0.0,0.0,0.0,0.0,0.0,0.0,0.0,0.0,0.0,0.0,0.0,0.0,0.0,0.0,0.0,0.0,0.0,0.0,0.0,0.0,0.0,0.0,0.0,0.0,0.0,0.0,0.0,0.0,0.0,0.0,0.0,0.0,0.0,0.0,0.0,0.0,0.0,0.0,0.0,0.0,0.0,0.0,0.0,0.0,0.0,0.0,0.0,0.0,0.0,0.0,0.0,0.0,0.0,0.0,0.0,0.0,0.0,0.0,0.0,0.0,-1.343,0.0,0.0,0.0,0.0,0.0,0.0,0.0,0.0,0.0,0.0,0.0,0.0,0.0,0.0,0.0,0.0,0.0,0.0,0.0,0.0,0.0,0.0,0.0,0.0,0.0,0.0,0.0,0.0,0.0,0.0,0.0,0.0,0.0,0.0,0.0,0.0,0.0,0.0,0.0,0.0,0.0,0.0,0.0,0.0,0.0,0.0,0.0,0.0,0.0,0.0,0.0,0.0,0.0,0.0,0.0,0.0,0.0,0.0,0.0,0.0,0.0,0.0,0.0,0.0,0.0,0.0,0.0,0.0,0.0,0.0,0.0,0.0,0.0,0.0,0.0,0.0,0.0,0.0,0.0,0.0,0.0,0.0,0.0,0.0,0.0,0.0,0.0,0.0,0.0,0.0,0.0,0.0,0.0,0.0,0.0,0.0,0.0,0.0,0.0,0.0,0.0,0.0,0.0,0.0,0.0,0.0,0.0,0.0,0.0,0.0,-1.3396,-1.3396,-1.3396,-1.3583,-1.4005,0.0,0.0,0.0,0.0,0.0,0.0,0.0,0.0,0.0,0.0,0.0,0.0,0.0,0.0,0.0,0.0,0.0,0.0,0.0,0.0,0.0,0.0,0.0,0.0,0.0,0.0,0.0,0.0,0.0,0.0,0.0,0.0,0.0,0.0,0.0,0.0,0.0,0.0,0.0,0.0,0.0,0.0,0.0,0.0,0.0,0.0,0.0,0.0,0.0,0.0,0.0,0.0,0.0,0.0,0.0,0.0,0.0,0.0,0.0,0.0,0.0,0.0,0.0,0.0,0.0,0.0,0.0,0.0,0.0,0.0,0.0,0.0,0.0,0.0,0.0,0.0,0.0,0.0,0.0,0.0,0.0,0.0,0.0,0.0,0.0,0.0,0.0,0.0,0.0,0.0,0.0,0.0,0.0,0.0,0.0,0.0,0.0,0.0,0.0,0.0,0.0,0.0,0.0,0.0,0.0,0.0,0.0,0.0,0.0,0.0,0.0,0.0,-1.3904,-1.4327,-1.523,0.0,0.0,0.0,0.0,0.0,0.0,0.0,0.0,0.0,0.0,0.0,0.0,0.0,0.0,0.0,0.0,0.0,0.0,0.0,0.0,0.0,0.0,0.0,0.0,0.0,0.0,0.0,0.0,0.0,0.0,0.0,0.0,0.0,0.0,0.0,0.0,0.0,0.0,0.0,0.0,0.0,0.0,0.0,0.0,0.0,0.0,0.0,0.0,0.0,0.0,0.0,0.0,0.0,0.0,0.0,0.0,0.0,0.0,0.0,0.0,0.0,0.0,0.0,0.0,0.0,0.0,0.0,0.0,0.0,0.0,0.0,0.0,0.0,0.0,0.0,0.0,0.0,0.0,0.0,0.0,0.0,0.0,0.0,0.0,0.0,0.0,0.0,0.0,0.0,0.0,0.0,0.0,0.0,0.0,0.0,0.0,0.0,0.0,0.0,0.0,0.0,0.0,0.0,0.0,0.0,0.0,0.0,0.0,0.0,0.0,-1.4031,-1.5341,-1.5385,0.0,-1.736,0.0,0.0,0.0,0.0,0.0,0.0,0.0,0.0,0.0,0.0,0.0,0.0,0.0,0.0,0.0,0.0,0.0,0.0,0.0,0.0,0.0,0.0,0.0,0.0,0.0,0.0,0.0,0.0,0.0,0.0,0.0,0.0,0.0,0.0,0.0,0.0,0.0,0.0,0.0,0.0,0.0,0.0,0.0,0.0,0.0,0.0,0.0,0.0,0.0,0.0,0.0,0.0,0.0,0.0,0.0,0.0,0.0,0.0,0.0,0.0,0.0,0.0,0.0,0.0,0.0,0.0,0.0,0.0,0.0,0.0,0.0,0.0,0.0,0.0,0.0,0.0,0.0,0.0,0.0,0.0,0.0,0.0,0.0,0.0,0.0,0.0,0.0,0.0,0.0,0.0,0.0,0.0,0.0,0.0,0.0,0.0,0.0,0.0,0.0,0.0,0.0,0.0,0.0,0.0,0.0,0.0,0.0,0.0,0.0,0.0,-1.4099,-1.5578,-1.6028,-1.6333,0.0,0.0,0.0,0.0,0.0,0.0,0.0,0.0,0.0,0.0,0.0,0.0,0.0,0.0,0.0,0.0,0.0,0.0,0.0,0.0,0.0,0.0,0.0,0.0,0.0,0.0,0.0,0.0,0.0,0.0,0.0,0.0,0.0,0.0,0.0,0.0,0.0,0.0,0.0,0.0,0.0,0.0,0.0,0.0,0.0,0.0,0.0,0.0,0.0,0.0,0.0,0.0,0.0,0.0,0.0,0.0,0.0,0.0,0.0,0.0,0.0,0.0,0.0,0.0,0.0,0.0,0.0,0.0,0.0,0.0,0.0,0.0,0.0,0.0,0.0,0.0,0.0,0.0,0.0,0.0,0.0,0.0,0.0,0.0,0.0,0.0,0.0,0.0,0.0,0.0,0.0,0.0,0.0,0.0,0.0,0.0,0.0,0.0,0.0,0.0,0.0,0.0,0.0,0.0,0.0,0.0,0.0,0.0,0.0,0.0,-1.3912,-1.4505,-1.6069,-1.5944,-1.5835,-1.591,0.0,0.0,0.0,0.0,0.0,0.0,0.0,0.0,0.0,0.0,0.0,0.0,0.0,0.0,0.0,0.0,0.0,0.0,0.0,0.0,0.0,0.0,0.0,0.0,0.0,0.0,0.0,0.0,0.0,0.0,0.0,0.0,0.0,0.0,0.0,0.0,0.0,0.0,0.0,0.0,0.0,0.0,0.0,0.0,0.0,0.0,0.0,0.0,0.0,0.0,0.0,0.0,0.0,0.0,0.0,0.0,0.0,0.0,0.0,0.0,0.0,0.0,0.0,0.0,0.0,0.0,0.0,0.0,0.0,0.0,0.0,0.0,0.0,0.0,0.0,0.0,0.0,0.0,0.0,0.0,0.0,0.0,0.0,0.0,0.0,0.0,0.0,0.0,0.0,0.0,0.0,0.0,0.0,0.0,0.0,0.0,0.0,0.0,0.0,0.0,0.0,0.0,0.0,0.0,0.0,0.0,0.0,0.0,-1.6299,-1.5138,-1.5467,-1.7462,-1.4986,-1.4514,0.0,0.0,0.0,0.0,0.0,0.0,0.0,0.0,0.0,0.0,0.0,0.0,0.0,0.0,0.0,0.0,0.0,0.0,0.0,0.0,0.0,0.0,0.0,0.0,0.0,0.0,0.0,0.0,0.0,0.0,0.0,0.0,0.0,0.0,0.0,0.0,0.0,0.0,0.0,0.0,0.0,0.0,0.0,0.0,0.0,0.0,0.0,0.0,0.0,0.0,0.0,0.0,0.0,0.0,0.0,0.0,0.0,0.0,0.0,0.0,0.0,0.0,0.0,0.0,0.0,0.0,0.0,0.0,0.0,0.0,0.0,0.0,0.0,0.0,0.0,0.0,0.0,0.0,0.0,0.0,0.0,0.0,0.0,0.0,0.0,0.0,0.0,0.0,0.0,0.0,0.0,0.0,0.0,0.0,0.0,0.0,0.0,0.0,0.0,0.0,0.0,0.0,0.0,0.0,0.0,0.0,0.0,0.0,0.0,-1.3109,-1.4022,-1.4639,-1.4962,-1.4843,-1.5199,0.0,0.0,0.0,0.0,0.0,0.0,0.0,0.0,0.0,0.0,0.0,0.0,0.0,0.0,0.0,0.0,0.0,0.0,0.0,0.0,0.0,0.0,0.0,0.0,0.0,0.0,0.0,0.0,0.0,0.0,0.0,0.0,0.0,0.0,0.0,0.0,0.0,0.0,0.0,0.0,0.0,0.0,0.0,0.0,0.0,0.0,0.0,0.0,0.0,0.0,0.0,0.0,0.0,0.0,0.0,0.0,0.0,0.0,0.0,0.0,0.0,0.0,0.0,0.0,0.0,0.0,0.0,0.0,0.0,0.0,0.0,0.0,0.0,0.0,0.0,0.0,0.0,0.0,0.0,0.0,0.0,0.0,0.0,0.0,0.0,0.0,0.0,0.0,0.0,0.0,0.0,0.0,0.0,0.0,0.0,0.0,0.0,0.0,0.0,0.0,0.0,0.0,0.0,0.0,0.0,0.0,0.0,0.0,0.0,-1.2263,0.0,-1.5318,-1.454,-1.4969,-1.5138,0.0,0.0,0.0,0.0,0.0,0.0,0.0,0.0,0.0,0.0,0.0,0.0,0.0,0.0,0.0,0.0,0.0,0.0,0.0,0.0,0.0,0.0,0.0,0.0,0.0,0.0,0.0,0.0,0.0,0.0,0.0,0.0,0.0,0.0,0.0,0.0,0.0,0.0,0.0,0.0,0.0,0.0,0.0,0.0,0.0,0.0,0.0,0.0,0.0,0.0,0.0,0.0,0.0,0.0,0.0,0.0,0.0,0.0,0.0,0.0,0.0,0.0,0.0,0.0,0.0,0.0,0.0,0.0,0.0,0.0,0.0,0.0,0.0,0.0,0.0,0.0,0.0,0.0,0.0,0.0,0.0,0.0,0.0,0.0,0.0,0.0,0.0,0.0,0.0,0.0,0.0,0.0,0.0,0.0,0.0,0.0,0.0,0.0,0.0,0.0,0.0,0.0,0.0,0.0,0.0,0.0,0.0,0.0,-1.2252,-1.436,-1.6728,-1.7432,-1.6675,-1.5223,-1.4191,0.0,0.0,0.0,0.0,0.0,0.0,0.0,0.0,0.0,0.0,0.0,0.0,0.0,0.0,0.0,0.0,0.0,0.0,0.0,0.0,0.0,0.0,0.0,0.0,0.0,0.0,0.0,0.0,0.0,0.0,0.0,0.0,0.0,0.0,0.0,0.0,0.0,0.0,0.0,0.0,0.0,0.0,0.0,0.0,0.0,0.0,0.0,0.0,0.0,0.0,0.0,0.0,0.0,0.0,0.0,0.0,0.0,0.0,0.0,0.0,0.0,0.0,0.0,0.0,0.0,0.0,0.0,0.0,0.0,0.0,0.0,0.0,0.0,0.0,0.0,0.0,0.0,0.0,0.0,0.0,0.0,0.0,0.0,0.0,0.0,0.0,0.0,0.0,0.0,0.0,0.0,0.0,0.0,0.0,0.0,0.0,0.0,0.0,0.0,0.0,0.0,0.0,0.0,0.0,0.0,0.0,0.0,0.0,0.0,-1.1526,-1.4195,-1.5734,-1.5876,-1.4522,-1.458,0.0,0.0,0.0,0.0,0.0,0.0,0.0,0.0,0.0,0.0,0.0,0.0,0.0,0.0,0.0,0.0,0.0,0.0,0.0,0.0,0.0,0.0,0.0,0.0,0.0,0.0,0.0,0.0,0.0,0.0,0.0,0.0,0.0,0.0,0.0,0.0,0.0,0.0,0.0,0.0,0.0,0.0,0.0,0.0,0.0,0.0,0.0,0.0,0.0,0.0,0.0,0.0,0.0,0.0,0.0,0.0,0.0,0.0,0.0,0.0,0.0,0.0,0.0,0.0,0.0,0.0,0.0,0.0,0.0,0.0,0.0,0.0,0.0,0.0,0.0,0.0,0.0,0.0,0.0,0.0,0.0,0.0,0.0,0.0,0.0,0.0,0.0,0.0,0.0,0.0,0.0,0.0,0.0,0.0,0.0,0.0,0.0,0.0,0.0,0.0,0.0,0.0,0.0,0.0,0.0,0.0,0.0,0.0,0.0,-1.2867,-1.5532,-1.6914,-1.6659,-1.5713,-1.5638,-1.6498,0.0,0.0,0.0,0.0,0.0,0.0,0.0,0.0,0.0,0.0,0.0,0.0,0.0,0.0,0.0,0.0,0.0,0.0,0.0,0.0,0.0,0.0,0.0,0.0,0.0,0.0,0.0,0.0,0.0,0.0,0.0,0.0,0.0,0.0,0.0,0.0,0.0,0.0,0.0,0.0,0.0,0.0,0.0,0.0,0.0,0.0,0.0,0.0,0.0,0.0,0.0,0.0,0.0,0.0,0.0,0.0,0.0,0.0,0.0,0.0,0.0,0.0,0.0,0.0,0.0,0.0,0.0,0.0,0.0,0.0,0.0,0.0,0.0,0.0,0.0,0.0,0.0,0.0,0.0,0.0,0.0,0.0,0.0,0.0,0.0,0.0,0.0,0.0,0.0,0.0,0.0,0.0,0.0,0.0,0.0,0.0,0.0,0.0,0.0,0.0,0.0,0.0,0.0,0.0,0.0,0.0,0.0,0.0,-1.7352,-2.0274,-2.0797,-1.8693,-1.836,-1.7186,0.0,0.0,0.0,0.0,0.0,0.0,0.0,0.0,0.0,0.0,0.0,0.0,0.0,0.0,0.0,0.0,0.0,0.0,0.0,0.0,0.0,0.0,0.0,0.0,0.0,0.0,0.0,0.0,0.0,0.0,0.0,0.0,0.0,0.0,0.0,0.0,0.0,0.0,0.0,0.0,0.0,0.0,0.0,0.0,0.0,0.0,0.0,0.0,0.0,0.0,0.0,0.0,0.0,0.0,0.0,0.0,0.0,0.0,0.0,0.0,0.0,0.0,0.0,0.0,0.0,0.0,0.0,0.0,0.0,0.0,0.0,0.0,0.0,0.0,0.0,0.0,0.0,0.0,0.0,0.0,0.0,0.0,0.0,0.0,0.0,0.0,0.0,0.0,0.0,0.0,0.0,0.0,0.0,0.0,0.0,0.0,0.0,0.0,0.0,0.0,0.0,0.0,0.0,0.0,0.0,0.0,0.0,0.0,0.0,-2.1342,-2.5011,-2.517,-2.14,-1.912,-1.8138,0.0,0.0,0.0,0.0,0.0,0.0,0.0,0.0,0.0,0.0,0.0,0.0,0.0,0.0,0.0,0.0,0.0,0.0,0.0,0.0,0.0,0.0,0.0,0.0,0.0,0.0,0.0,0.0,0.0,0.0,0.0,0.0,0.0,0.0,0.0,0.0,0.0,0.0,0.0,0.0,0.0,0.0,0.0,0.0,0.0,0.0,0.0,0.0,0.0,0.0,0.0,0.0,0.0,0.0,0.0,0.0,0.0,0.0,0.0,0.0,0.0,0.0,0.0,0.0,0.0,0.0,0.0,0.0,0.0,0.0,0.0,0.0,0.0,0.0,0.0,0.0,0.0,0.0,0.0,0.0,0.0,0.0,0.0,0.0,0.0,0.0,0.0,0.0,0.0,0.0,0.0,0.0,0.0,0.0,0.0,0.0,0.0,0.0,0.0,0.0,0.0,0.0,0.0,0.0,0.0,0.0,0.0,0.0,-2.2359,-2.4032,-2.744,-2.786,-2.4962,-2.2742,-2.0761,0.0,0.0,0.0,0.0,0.0,0.0,0.0,0.0,0.0,0.0,0.0,0.0,0.0,0.0,0.0,0.0,0.0,0.0,0.0,0.0,0.0,0.0,0.0,0.0,0.0,0.0,0.0,0.0,0.0,0.0,0.0,0.0,0.0,0.0,0.0,0.0,0.0,0.0,0.0,0.0,0.0,0.0,0.0,0.0,0.0,0.0,0.0,0.0,0.0,0.0,0.0,0.0,0.0,0.0,0.0,0.0,0.0,0.0,0.0,0.0,0.0,0.0,0.0,0.0,0.0,0.0,0.0,0.0,0.0,0.0,0.0,0.0,0.0,0.0,0.0,0.0,0.0,0.0,0.0,0.0,0.0,0.0,0.0,0.0,0.0,0.0,0.0,0.0,0.0,0.0,0.0,0.0,0.0,0.0,0.0,0.0,0.0,0.0,0.0,0.0,0.0,0.0,0.0,0.0,0.0,0.0,0.0,0.0,-2.2941,-2.5853,-2.8502,-2.9419,-2.8524,-2.7274,-2.4016,0.0,0.0,0.0,0.0,0.0,0.0,0.0,0.0,0.0,0.0,0.0,0.0,0.0,0.0,0.0,0.0,0.0,0.0,0.0,0.0,0.0,0.0,0.0,0.0,0.0,0.0,0.0,0.0,0.0,0.0,0.0,0.0,0.0,0.0,0.0,0.0,0.0,0.0,0.0,0.0,0.0,0.0,0.0,0.0,0.0,0.0,0.0,0.0,0.0,0.0,0.0,0.0,0.0,0.0,0.0,0.0,0.0,0.0,0.0,0.0,0.0,0.0,0.0,0.0,0.0,0.0,0.0,0.0,0.0,0.0,0.0,0.0,0.0,0.0,0.0,0.0,0.0,0.0,0.0,0.0,0.0,0.0,0.0,0.0,0.0,0.0,0.0,0.0,0.0,0.0,0.0,0.0,0.0,0.0,0.0,0.0,0.0,0.0,0.0,0.0,0.0,0.0,0.0,0.0,0.0,0.0,0.0,0.0,-2.4314,-2.5919,-2.9598,-3.0591,-2.8527,-2.6577,-2.423,0.0,0.0,0.0,0.0,0.0,0.0,0.0,0.0,0.0,0.0,0.0,0.0,0.0,0.0,0.0,0.0,0.0,0.0,0.0,0.0,0.0,0.0,0.0,0.0,0.0,0.0,0.0,0.0,0.0,0.0,0.0,0.0,0.0,0.0,0.0,0.0,0.0,0.0,0.0,0.0,0.0,0.0,0.0,0.0,0.0,0.0,0.0,0.0,-1.3396,0.0,0.0,0.0,0.0,0.0,0.0,0.0,0.0,0.0,0.0,0.0,0.0,0.0,0.0,0.0,0.0,0.0,0.0,0.0,0.0,0.0,0.0,0.0,0.0,0.0,0.0,0.0,0.0,0.0,0.0,0.0,0.0,0.0,0.0,0.0,0.0,0.0,0.0,0.0,0.0,0.0,0.0,0.0,0.0,0.0,0.0,0.0,0.0,0.0,0.0,0.0,0.0,0.0,0.0,0.0,0.0,0.0,0.0,0.0,-2.4551,-2.6763,-2.9505,-3.0069,-2.8295,-2.6589,-2.4634,0.0,0.0,0.0,0.0,0.0,0.0,0.0,0.0,0.0,0.0,0.0,0.0,0.0,0.0,0.0,0.0,0.0,0.0,0.0,0.0,0.0,0.0,0.0,0.0,0.0,0.0,0.0,0.0,0.0,0.0,0.0,0.0,0.0,0.0,0.0,0.0,0.0,0.0,0.0,0.0,0.0,0.0,0.0,0.0,0.0,0.0,0.0,0.0,0.0,0.0,0.0,0.0,0.0,0.0,0.0,0.0,0.0,0.0,0.0,0.0,0.0,0.0,0.0,0.0,0.0,0.0,0.0,0.0,0.0,0.0,0.0,0.0,0.0,0.0,0.0,0.0,0.0,0.0,0.0,0.0,0.0,0.0,0.0,0.0,0.0,0.0,0.0,0.0,0.0,0.0,0.0,0.0,0.0,0.0,0.0,0.0,0.0,0.0,0.0,0.0,0.0,0.0,0.0,0.0,0.0,0.0,0.0,-2.2458,-2.4408,-2.749,-2.8876,-2.8985,-2.7829,-2.663,-2.491,-2.2595,0.0,0.0,0.0,0.0,0.0,0.0,0.0,0.0,0.0,0.0,0.0,0.0,0.0,0.0,0.0,0.0,0.0,0.0,0.0,0.0,0.0,0.0,0.0,0.0,0.0,0.0,0.0,0.0,0.0,0.0,0.0,0.0,0.0,0.0,0.0,0.0,0.0,0.0,-1.044,-1.2118,0.0,0.0,0.0,0.0,0.0,0.0,0.0,0.0,-1.1806,0.0,0.0,0.0,0.0,0.0,0.0,0.0,0.0,0.0,0.0,0.0,0.0,0.0,0.0,0.0,0.0,0.0,0.0,0.0,0.0,0.0,0.0,0.0,0.0,0.0,0.0,0.0,0.0,0.0,0.0,0.0,0.0,0.0,0.0,0.0,0.0,0.0,0.0,0.0,0.0,0.0,0.0,0.0,0.0,0.0,0.0,0.0,0.0,0.0,0.0,0.0,0.0,0.0,0.0,0.0,0.0,-2.2676,-2.3307,-2.4642,-2.6761,-2.8347,-2.8466,-2.6955,-2.5529,-2.4296,-2.3274,0.0,0.0,0.0,0.0,0.0,0.0,0.0,0.0,0.0,0.0,0.0,0.0,0.0,0.0,0.0,0.0,0.0,0.0,0.0,0.0,0.0,0.0,0.0,0.0,0.0,0.0,0.0,0.0,0.0,0.0,0.0,0.0,0.0,0.0,0.0,0.0,0.0,0.0,0.0,-1.2778,-1.3557,0.0,0.0,0.0,0.0,0.0,0.0,0.0,0.0,-1.2129,0.0,0.0,0.0,0.0,0.0,0.0,0.0,0.0,0.0,0.0,0.0,0.0,0.0,0.0,0.0,0.0,0.0,0.0,0.0,0.0,0.0,0.0,0.0,0.0,0.0,0.0,0.0,0.0,0.0,0.0,0.0,0.0,0.0,0.0,0.0,0.0,0.0,0.0,0.0,0.0,0.0,0.0,0.0,0.0,0.0,0.0,0.0,0.0,0.0,0.0,0.0,0.0,0.0,0.0,0.0,-2.1606,-2.2819,-2.4053,-2.5433,-2.6623,-2.6613,-2.5317,-2.402,-2.3173,0.0,0.0,0.0,0.0,0.0,0.0,0.0,0.0,0.0,0.0,0.0,0.0,0.0,0.0,0.0,0.0,0.0,0.0,0.0,0.0,0.0,0.0,0.0,0.0,0.0,0.0,0.0,0.0,0.0,0.0,0.0,0.0,0.0,0.0,0.0,0.0,0.0,0.0,0.0,0.0,-1.284,-1.3396,-1.3396,0.0,0.0,0.0,0.0,0.0,0.0,-1.2186,-1.1688,0.0,0.0,0.0,0.0,0.0,0.0,0.0,0.0,0.0,0.0,0.0,0.0,0.0,0.0,0.0,0.0,0.0,0.0,0.0,0.0,0.0,0.0,0.0,0.0,0.0,0.0,0.0,0.0,0.0,0.0,0.0,0.0,0.0,0.0,0.0,0.0,0.0,0.0,0.0,0.0,0.0,0.0,0.0,0.0,0.0,0.0,0.0,0.0,0.0,0.0,0.0,0.0,0.0,0.0,0.0,-2.0762,-2.218,-2.3417,-2.4444,-2.5156,-2.5029,-2.401,-2.2894,-2.2313,0.0,0.0,0.0,0.0,0.0,0.0,0.0,0.0,0.0,0.0,0.0,0.0,0.0,0.0,0.0,0.0,0.0,0.0,0.0,0.0,0.0,0.0,0.0,0.0,0.0,0.0,0.0,0.0,0.0,0.0,0.0,0.0,0.0,0.0,0.0,0.0,0.0,0.0,0.0,0.0,0.0,-1.3735,-1.3447,-1.3887,0.0,0.0,0.0,0.0,-1.277,-1.2331,0.0,0.0,0.0,0.0,0.0,0.0,0.0,0.0,0.0,0.0,0.0,0.0,0.0,0.0,0.0,0.0,0.0,0.0,0.0,0.0,0.0,0.0,0.0,0.0,0.0,0.0,0.0,0.0,0.0,0.0,0.0,0.0,0.0,0.0,0.0,0.0,0.0,0.0,0.0,0.0,0.0,0.0,0.0,0.0,0.0,0.0,0.0,0.0,0.0,0.0,0.0,0.0,0.0,0.0,0.0,0.0,-2.1562,-2.2306,-2.3316,-2.4686,-2.5244,-2.4985,-2.3942,-2.2863,-2.2313,0.0,0.0,0.0,0.0,0.0,0.0,0.0,0.0,0.0,0.0,0.0,0.0,0.0,0.0,0.0,0.0,0.0,0.0,0.0,0.0,0.0,0.0,0.0,0.0,0.0,0.0,0.0,0.0,0.0,0.0,0.0,0.0,0.0,0.0,0.0,0.0,0.0,0.0,0.0,0.0,0.0,-1.4877,-1.3574,-1.3464,-1.3726,0.0,0.0,-1.4986,-1.4351,-1.4716,0.0,0.0,0.0,0.0,0.0,0.0,0.0,0.0,0.0,0.0,0.0,0.0,0.0,0.0,0.0,0.0,0.0,0.0,0.0,0.0,0.0,0.0,0.0,0.0,0.0,0.0,0.0,0.0,0.0,0.0,0.0,0.0,0.0,0.0,0.0,0.0,0.0,0.0,0.0,0.0,0.0,0.0,0.0,0.0,0.0,0.0,0.0,0.0,0.0,0.0,0.0,0.0,0.0,0.0,0.0,-1.9558,-2.0957,-2.1572,-2.2357,-2.3353,-2.3737,-2.361,-2.3007,-2.1701,-2.14,0.0,0.0,0.0,0.0,0.0,0.0,0.0,0.0,0.0,0.0,0.0,0.0,0.0,0.0,0.0,0.0,0.0,0.0,0.0,0.0,0.0,0.0,0.0,0.0,0.0,0.0,0.0,0.0,0.0,0.0,0.0,0.0,0.0,0.0,0.0,0.0,0.0,0.0,0.0,0.0,0.0,0.0,-1.4183,-1.4606,0.0,0.0,0.0,-1.6447,-1.5308,0.0,0.0,0.0,0.0,0.0,0.0,0.0,0.0,0.0,0.0,0.0,0.0,0.0,0.0,0.0,0.0,0.0,0.0,0.0,0.0,0.0,0.0,0.0,0.0,0.0,0.0,0.0,0.0,0.0,0.0,0.0,0.0,0.0,0.0,0.0,0.0,0.0,0.0,0.0,0.0,0.0,0.0,0.0,0.0,0.0,0.0,0.0,0.0,0.0,0.0,0.0,0.0,0.0,0.0,0.0,0.0,0.0,-2.0723,-2.1201,-2.1818,-2.2621,-2.2768,-2.2691,-2.2381,-2.0831,0.0,0.0,0.0,0.0,0.0,0.0,0.0,0.0,0.0,0.0,0.0,0.0,0.0,0.0,0.0,0.0,0.0,0.0,0.0,0.0,0.0,0.0,0.0,0.0,0.0,0.0,0.0,-1.1448,0.0,0.0,0.0,0.0,0.0,0.0,0.0,0.0,0.0,0.0,0.0,0.0,0.0,0.0,-1.5967,-1.4689,-1.5426,-1.5876,0.0,0.0,-1.7304,-1.5832,-1.5764,-1.5511,0.0,0.0,0.0,0.0,0.0,0.0,0.0,0.0,0.0,0.0,0.0,0.0,0.0,0.0,0.0,0.0,0.0,0.0,0.0,0.0,0.0,0.0,0.0,0.0,0.0,0.0,0.0,0.0,0.0,0.0,0.0,0.0,0.0,0.0,0.0,0.0,0.0,0.0,0.0,0.0,0.0,0.0,0.0,0.0,0.0,0.0,0.0,0.0,0.0,0.0,0.0,0.0,0.0,0.0,0.0,-2.166,-2.1732,-2.2345,-2.3545,-2.3323,-2.3009,-2.2652,-2.0939,-2.0728,0.0,0.0,0.0,0.0,0.0,0.0,0.0,0.0,0.0,0.0,0.0,0.0,0.0,0.0,0.0,0.0,0.0,0.0,0.0,0.0,0.0,0.0,0.0,0.0,0.0,0.0,0.0,0.0,0.0,0.0,0.0,0.0,0.0,0.0,0.0,0.0,0.0,0.0,0.0,0.0,0.0,-1.7659,-1.4875,-1.5146,-1.5876,0.0,0.0,-1.7293,-1.5832,-1.618,-1.591,-1.382,0.0,0.0,0.0,0.0,0.0,0.0,0.0,0.0,0.0,0.0,0.0,0.0,0.0,0.0,0.0,0.0,0.0,0.0,0.0,0.0,0.0,0.0,0.0,0.0,0.0,0.0,0.0,0.0,0.0,0.0,0.0,0.0,0.0,0.0,0.0,0.0,0.0,0.0,0.0,0.0,0.0,0.0,0.0,0.0,0.0,0.0,0.0,0.0,0.0,0.0,0.0,0.0,0.0,-2.0997,-2.2205,-2.1752,-2.2006,-2.3035,-2.296,-2.2768,-2.245,-2.1328,-2.1228,0.0,0.0,0.0,0.0,0.0,0.0,0.0,0.0,0.0,0.0,0.0,0.0,0.0,0.0,0.0,0.0,0.0,0.0,0.0,0.0,0.0,0.0,0.0,0.0,0.0,0.0,0.0,0.0,-1.1212,-1.1156,-1.2172,0.0,0.0,0.0,0.0,0.0,0.0,0.0,0.0,0.0,0.0,-1.7128,-1.6018,-1.6475,0.0,0.0,-1.7033,-1.7456,-1.6417,-1.6519,-1.64,-1.5581,-1.5155,0.0,0.0,0.0,0.0,0.0,0.0,0.0,0.0,0.0,0.0,0.0,0.0,0.0,0.0,0.0,0.0,0.0,0.0,0.0,0.0,0.0,0.0,0.0,0.0,0.0,0.0,0.0,0.0,0.0,0.0,0.0,0.0,0.0,0.0,0.0,0.0,0.0,0.0,0.0,0.0,0.0,0.0,0.0,0.0,0.0,0.0,0.0,0.0,0.0,0.0,0.0,0.0,-2.1662,-2.2471,-2.193,-2.2,-2.2686,-2.2695,-2.256,-2.229,-2.1597,-2.1532,0.0,0.0,0.0,0.0,0.0,0.0,0.0,0.0,0.0,0.0,0.0,0.0,0.0,0.0,0.0,0.0,0.0,0.0,0.0,0.0,0.0,0.0,0.0,0.0,0.0,0.0,0.0,0.0,-1.1629,-1.1601,-1.3236,0.0,0.0,0.0,0.0,0.0,0.0,0.0,0.0,0.0,0.0,-1.6857,-1.6445,-1.7546,-1.7867,-1.617,-1.6221,-1.6525,-1.6671,-1.6512,-1.6367,-1.6367,0.0,0.0,0.0,0.0,0.0,0.0,0.0,0.0,0.0,0.0,0.0,0.0,0.0,0.0,0.0,0.0,0.0,0.0,0.0,0.0,0.0,0.0,0.0,0.0,0.0,0.0,0.0,0.0,0.0,0.0,-2.2673,0.0,0.0,0.0,0.0,0.0,0.0,0.0,0.0,0.0,0.0,0.0,0.0,0.0,0.0,0.0,0.0,0.0,0.0,0.0,0.0,0.0,0.0,-2.2793,-2.2517,-2.2499,-2.2545,-2.2716,-2.2708,-2.259,-2.2293,-2.1583,-2.1563,-2.2262,0.0,0.0,0.0,0.0,0.0,0.0,0.0,0.0,0.0,0.0,0.0,0.0,0.0,0.0,0.0,0.0,0.0,0.0,0.0,0.0,0.0,0.0,0.0,0.0,0.0,0.0,-1.2921,-1.2858,-1.3081,0.0,0.0,0.0,0.0,0.0,0.0,0.0,0.0,0.0,0.0,-1.7348,-1.7236,-1.5866,-1.807,-1.9,-1.6959,-1.4945,-1.4302,-1.6394,-1.6113,-1.5612,0.0,0.0,0.0,0.0,0.0,0.0,0.0,0.0,0.0,0.0,0.0,0.0,0.0,0.0,0.0,0.0,0.0,0.0,0.0,0.0,0.0,0.0,0.0,0.0,0.0,0.0,0.0,-2.4114,-2.3271,0.0,0.0,0.0,0.0,0.0,0.0,0.0,0.0,0.0,0.0,0.0,-2.5007,-2.5548,0.0,0.0,0.0,0.0,0.0,0.0,0.0,0.0,0.0,0.0,0.0,0.0,-2.3207,-2.3578,-2.289,-2.2668,-2.301,-2.2822,-2.2577,-2.231,-2.2057,-2.2057,-2.2296,0.0,0.0,0.0,0.0,0.0,0.0,0.0,0.0,0.0,0.0,0.0,0.0,0.0,0.0,0.0,0.0,0.0,0.0,0.0,0.0,0.0,0.0,0.0,0.0,0.0,-1.5141,0.0,0.0,0.0,0.0,0.0,0.0,0.0,0.0,0.0,0.0,0.0,-1.6529,-1.6028,-1.6187,-1.6339,-1.6333,-1.6745,-1.6965,0.0,0.0,0.0,0.0,0.0,0.0,0.0,0.0,0.0,0.0,0.0,0.0,0.0,0.0,-1.5883,-1.4403,-1.3726,-1.3709,-1.4682,0.0,0.0,0.0,0.0,0.0,0.0,0.0,0.0,0.0,0.0,0.0,0.0,0.0,0.0,0.0,0.0,-2.4484,0.0,0.0,0.0,0.0,0.0,0.0,0.0,0.0,-2.538,-2.6177,-2.6667,-2.72,-2.7163,0.0,-2.6384,-2.5815,0.0,0.0,0.0,0.0,0.0,0.0,0.0,0.0,-2.361,-2.3961,-2.3177,-2.2847,-2.2998,-2.273,-2.249,-2.231,-2.2313,-2.2313,-2.2313,-2.2313,-2.2313,0.0,0.0,0.0,0.0,0.0,0.0,0.0,0.0,0.0,0.0,0.0,0.0,0.0,0.0,0.0,0.0,0.0,0.0,0.0,0.0,0.0,0.0,0.0,-1.6096,0.0,0.0,0.0,0.0,0.0,0.0,0.0,0.0,0.0,-1.7134,-1.6857,-1.6621,-1.6407,-1.6147,-1.6147,-1.6631,0.0,0.0,0.0,0.0,0.0,0.0,0.0,-1.7721,-1.8442,-1.8549,-1.8713,-1.9203,-1.9215,-1.9109,-1.8927,0.0,0.0,-1.5274,-1.4725,-1.4853,-1.5839,-1.5822,-1.5873,-1.6593,-1.595,-1.5189,0.0,0.0,0.0,0.0,0.0,0.0,0.0,0.0,-2.5847,-2.6574,0.0,-2.5943,0.0,0.0,0.0,0.0,0.0,-2.4454,0.0,0.0,-2.7385,-2.8326,-2.9067,-2.9133,-2.9097,-2.9023,-2.8246,-2.7438,-2.6576,-2.5089,0.0,0.0,0.0,0.0,0.0,0.0,-2.4016,-2.3714,-2.3351,-2.3033,-2.2721,-2.2436,-2.231,-2.2313,-2.2313,-2.2313,-2.2313,-2.2313,-2.2313,-2.2313,-2.2296,0.0,0.0,0.0,0.0,0.0,0.0,0.0,0.0,0.0,0.0,0.0,0.0,0.0,0.0,0.0,0.0,0.0,0.0,0.0,0.0,-1.7134,0.0,0.0,0.0,0.0,0.0,0.0,0.0,0.0,0.0,0.0,-1.7755,-1.7134,-1.6959,-1.7642,0.0,0.0,0.0,0.0,-1.7507,-1.6925,-1.8623,-1.9744,-1.9029,-1.891,-1.9164,-1.9849,0.0,0.0,-2.0086,-1.949,-1.9075,-1.8978,-1.8488,-1.7901,-1.785,-1.7151,-1.7128,-1.8437,-1.8172,-1.8087,-1.8623,-1.7704,-1.6553,-3.2884,0.0,0.0,0.0,0.0,-2.9182,-2.944,-2.9875,-2.9745,-2.9331,-2.8676,-2.7846,0.0,0.0,0.0,0.0,0.0,0.0,-2.7122,-2.869,-2.9582,-3.0573,-3.1555,-3.1574,-3.1274,-3.0687,-2.9898,-2.8815,-2.7475,-2.6979,-2.5897,-2.4226,0.0,0.0,0.0,0.0,-2.3795,-2.3682,-2.3141,-2.2797,-2.2695,-2.2436,-2.2313,-2.2313,-2.2313,-2.2313,-2.2313,-2.2313,-2.2313,-2.2313,-2.2313,0.0,0.0,0.0,0.0,0.0,0.0,0.0,0.0,0.0,0.0,0.0,0.0,0.0,0.0,0.0,0.0,0.0,0.0,0.0,-1.78,-1.7614,-1.7794,0.0,0.0,0.0,0.0,0.0,0.0,0.0,0.0,0.0,-1.7772,-1.7162,-1.6773,0.0,0.0,-1.6502,-1.8031,-1.7117,-1.6898,-1.878,0.0,0.0,0.0,-1.9681,-1.9748,-1.9968,-2.0471,-2.1025,-2.1552,-2.1468,-2.1143,-2.0619,-2.0378,-2.0073,-1.9423,-1.8341,-1.7896,-1.864,-1.8736,-1.8826,-1.9439,-1.891,-1.8042,-3.7584,-3.4614,-3.2706,-3.2192,-3.2614,-3.2632,-3.2889,-3.3324,-3.2981,-3.2651,-3.2289,-3.111,-2.9735,-2.8207,-2.7033,0.0,0.0,0.0,-2.9911,-3.1372,-3.2161,-3.3077,-3.4032,-3.405,-3.3642,-3.2784,-3.2027,-3.0797,-2.9212,-2.8576,-2.7402,-2.5658,0.0,0.0,-2.4208,-2.4316,-2.4361,-2.434,-2.3709,-2.3377,-2.3365,-2.2689,-2.2313,-2.2313,-2.2313,-2.2313,-2.2313,-2.2313,-2.2313,-2.2313,-2.2313,-2.2313,0.0,0.0,0.0,0.0,0.0,0.0,0.0,0.0,0.0,0.0,0.0,-1.9022,-1.8133,0.0,0.0,0.0,-1.8662,-1.8594,-1.842,-1.856,0.0,0.0,0.0,0.0,0.0,0.0,0.0,-1.8713,-1.8425,-1.8358,-1.8628,-1.8014,-1.7568,-1.7568,-1.745,-1.7834,-1.9152,0.0,-1.7986,-1.9761,-2.0508,-2.0809,-2.0534,-2.0707,-2.0914,-2.0927,-2.1295,-2.1752,-2.2209,-2.2313,-2.2141,-2.1752,-2.1647,-2.1481,-2.1011,-2.0166,-1.9587,-1.9786,-1.9819,-1.9959,-2.0399,-1.9625,-1.8741,-4.168,-4.0102,-3.7881,-3.6817,-3.6578,-3.6578,-3.6597,-3.6615,-3.5775,-3.6229,-3.7401,-3.511,-3.3886,-3.3386,-3.1075,0.0,-3.1715,-3.2522,-3.3316,-3.4119,-3.4912,-3.572,-3.6468,-3.6431,-3.5973,-3.5188,-3.4362,-3.3164,-3.158,-3.0118,-2.8895,-2.797,-2.6513,-2.5309,-2.4436,-2.5039,-2.5385,-2.5364,-2.4706,-2.4383,-2.4295,-2.3007,-2.2313,-2.2313,-2.2313,-2.2313,-2.2313,-2.2313,-2.2313,-2.2313,-2.2313,-2.2313,-2.2313,0.0,0.0,0.0,0.0,0.0,0.0,0.0,0.0,0.0,0.0,0.0,0.0,0.0,0.0,0.0,-2.0116,0.0,-1.9396,-1.9727,0.0,0.0,0.0,-2.0636,-2.0217,-2.0551,-2.0653,-2.0238,0.0,0.0,-1.9913,0.0,-1.9075,-1.908,-1.9608,-2.0035,-2.0154,-2.0018,-2.0035,-2.0238,-2.1383,-2.204,-2.1397,-2.1786,-2.2144,-2.2161,-2.2313,-2.2279,-2.2279,-2.2313,-2.2313,-2.2262,-2.2296,-2.2279,-2.2296,-2.2127,-2.209,-2.136,-2.119,-2.1156,-2.1038,-2.001,-1.9029,-4.447,-4.3516,-4.2947,-4.1295,-3.9038,-3.9038,-3.9386,-3.9882,-3.9093,-3.8634,-3.834,-3.7147,-3.5889,-3.4558,-3.3364,-3.33,-3.4179,-3.5037,-3.5844,-3.6648,-3.7459,-3.7936,-3.8102,-3.7511,-3.7107,-3.6853,-3.6101,-3.4853,-3.3256,-3.2852,-3.1623,-2.9714,-2.9237,-2.7883,-2.5656,-2.55,-2.5344,-2.5094,-2.4683,-2.4213,-2.3648,-2.2751,-2.2313,-2.2313,-2.2313,-2.2313,-2.2313,-2.2313,-2.2313,-2.2313,-2.2313,-2.2313,-2.2313,-2.2313,0.0,0.0,0.0,0.0,0.0,0.0,0.0,0.0,0.0,-2.1248,-2.0099,0.0,-2.1143,0.0,-2.1062,-2.0399,-1.9879,-1.9934,0.0,0.0,-2.0919,-2.1059,-2.1671,-2.1194,-2.1042,-2.1688,-2.0572,-1.9799,-1.9985,-2.0382,-2.0649,-2.0649,-2.0264,-2.0424,-2.1502,-2.0711,-2.0424,-2.1502,-2.2026,-2.2229,-2.2073,-2.2161,-2.2313,-2.2313,-2.2313,-2.2313,-2.2313,-2.2313,-2.2313,-2.2313,-2.2313,-2.2313,-2.2313,-2.2313,-2.2262,-2.2026,-2.1583,-2.1123,-2.0919,-2.0264,-1.9638,-4.5957,-4.5204,-4.4856,-4.3681,-4.2011,-4.1644,-4.1754,-4.2121,-4.1699,-4.1056,-4.023,-3.9074,-3.8248,-3.7683,-3.6872,-3.6945,-3.7719,-3.823,-3.867,-3.9111,-3.957,-3.9772,-3.9735,-3.8927,-3.8374,-3.7991,-3.7217,-3.5973,-3.4362,-3.3789,-3.2748,-3.128,-3.0521,-2.9404,-2.7911,-2.7147,-2.6464,-2.5764,-2.5123,-2.4313,-2.341,-2.2682,-2.2313,-2.2313,-2.2313,-2.2313,-2.2313,-2.2313,-2.2313,-2.2313,-2.2313,-2.2313,-2.2313,-2.2313,-2.1092,0.0,0.0,0.0,0.0,0.0,0.0,0.0,0.0,0.0,0.0,0.0,-2.1735,-2.1803,-2.16,-2.1228,-2.0602,-2.0826,-2.1197,-2.1634,-2.1549,-2.1701,-2.2229,-2.182,-2.1701,-2.2229,-2.1248,-2.064,-2.0978,-2.1109,-2.1326,-2.1634,-2.1299,-2.1333,-2.2026,-2.1519,-2.135,-2.2161,-2.2313,-2.2313,-2.2313,-2.2313,-2.2313,-2.2313,-2.2313,-2.2313,-2.2313,-2.2313,-2.2313,-2.2313,-2.2313,-2.2313,-2.2313,-2.2313,-2.2127,-2.14,-2.0974,-2.0653,-2.0483,-1.9947,-1.9338,-4.6782,-4.5993,-4.5204,-4.4874,-4.4783,-4.3883,-4.3479,-4.3479,-4.3479,-4.3094,-4.2359,-4.0983,-4.0744,-4.135,-4.0561,-4.0598,-4.1242,-4.1242,-4.1187,-4.1113,-4.1205,-4.1187,-4.1058,-4.0286,-3.9515,-3.8836,-3.8043,-3.6853,-3.532,-3.4251,-3.3455,-3.2788,-3.136,-3.0521,-3.0225,-2.9208,-2.8093,-2.6852,-2.5738,-2.4692,-2.3695,-2.2868,-2.2431,-2.2446,-2.233,-2.2313,-2.2313,-2.2313,-2.2313,-2.2313,-2.2313,-2.2313,-2.2313,-2.2313,-2.2313,0.0,-2.2313,0.0,0.0,0.0,0.0,0.0,0.0,0.0,0.0,-2.2313,-2.204,-2.1393,-2.1921,-2.204,-2.1393,-2.1921,-2.2313,-2.2313,-2.2313,-2.2313,-2.2313,-2.2313,-2.2313,-2.2313,-2.1735,-2.1597,-2.2124,-2.1735,-2.1583,-2.2127,-2.2212,-2.2195,-2.2279,-2.2245,-2.2212,-2.2313,-2.2313,-2.2313,-2.2313,-2.2313,-2.2313,-2.2313,-2.2313,-2.2313,-2.2313,-2.2313,-2.2313,-2.2313,-2.2313,-2.2245,-2.2161,-2.2178,-2.1837,-2.0606,-2.0318,-2.02,-1.9913,-1.9287,-1.8589,-4.759,-4.6801,-4.6012,-4.5663,-4.5553,-4.4103,-4.3479,-4.3479,-4.3479,-4.3423,-4.3276,-4.2947,-4.2892,-4.2965,-4.2213,-4.1919,-4.2066,-4.2066,-4.1701,-4.1132,-4.1772,-4.1735,-4.1077,-4.0286,-3.9827,-3.9606,-3.8854,-3.7973,-3.7033,-3.6795,-3.5805,-3.4081,-3.3731,-3.2588,-3.0679,0.0,0.0,0.0,-2.6228,-2.54,-2.5152,-2.3883,-2.319,-2.3173,-2.2615,0.0,-2.2313,-2.2313,-2.2313,-2.2313,-2.2313,0.0,0.0,0.0,0.0,0.0,0.0,0.0,0.0,0.0,0.0,0.0,-2.2313,-2.2313,-2.2313,-2.2313,-2.2245,-2.2124,-2.2212,-2.2245,-2.2124,-2.2212,-2.2313,-2.2313,-2.2313,-2.2313,-2.2313,-2.2313,-2.2313,-2.2296,-2.2175,-2.2141,-2.226,-2.2175,-2.2141,-2.2262,-2.2313,-2.2313,-2.2313,-2.2313,-2.2313,-2.2313,-2.2313,-2.2313,-2.2313,-2.2313,-2.2313,-2.2313,-2.2313,-2.2313,-2.2313,-2.2279,-2.2296,-2.2296,-2.2313,-2.1975,-2.1278,-2.1721,-2.1924,-2.1123,-2.0919,-2.0649,-1.9638,-1.8674,-1.7952,-4.8067,0.0,-4.6856,-4.6489,0.0,-4.4782,-4.4305,-4.4617,-4.3845,-4.3479,-4.3479,-4.3479,-4.3479,-4.3496,-4.3075,-4.2873,-4.2892,-4.2909,-4.2653,-4.2304,-4.269,-4.2671,-4.2249,-4.146,-4.0873,-4.0453,-3.9416,-3.8281,-3.7121,-3.662,-3.5771,-3.4559,-3.4129,-3.3191,-3.1843,-3.0521,-2.9193,-2.7807,-2.6336,-2.5439,-2.5033,-2.3968,-2.3224,-2.2854,0.0,0.0,0.0,0.0,0.0,0.0,0.0,0.0,0.0,0.0,0.0,-2.2313,-2.2313,-2.2313,-2.2313,-2.2313,-2.2313,-2.2313,-2.2313,-2.2313,-2.2313,-2.2313,-2.2313,-2.2313,-2.2313,-2.2313,-2.2313,-2.2313,-2.2313,-2.2313,-2.2313,-2.2313,-2.2313,-2.2313,-2.2313,-2.2313,-2.2313,-2.2313,-2.2313,-2.2313,-2.2313,-2.2313,-2.2313,-2.2313,-2.2313,-2.2313,-2.2313,-2.2313,-2.2313,-2.2313,-2.2313,-2.2313,-2.2296,-2.2313,-2.2313,-2.2313,-2.2313,-2.1989,-2.1854,-2.2127,-2.1721,-2.1028,-2.0923,-2.1042,-2.0927,-2.0264,-2.0056,-1.9752,-1.8792,-1.842,-1.8234,-4.8324,-4.8214,-4.7278,-4.6984,-4.6984,-4.537,-4.5076,-4.559,0.0,0.0,0.0,-4.3479,-4.3479,-4.3479,-4.3479,-4.3479,-4.3479,-4.3479,-4.3479,-4.3479,-4.3479,-4.3444,-4.3338,-4.2515,-4.175,-4.0955,-3.9751,-3.8402,-3.6984,-3.6186,-3.5481,-3.4793,-3.408,-3.3464,-3.2745,-3.0299,-2.867,-2.7976,-2.6539,-2.5507,-2.488,-2.4051,-2.3308,-2.2685,-2.2431,-2.2313,-2.2313,-2.2313,-2.2313,-2.2313,-2.2313,-2.2313,-2.2313,-2.2313,-2.2313,-2.2313,-2.2313,-2.2313,-2.2313,-2.2313,-2.2313,-2.2313,-2.2313,-2.2313,-2.2313,-2.2313,-2.2313,-2.2313,-2.2313,-2.2313,-2.2313,-2.2313,-2.2313,-2.2313,-2.2313,-2.2313,-2.2313,-2.2313,-2.2313,-2.2313,-2.2313,-2.2313,-2.2313,-2.2313,-2.2313,-2.2313,-2.2313,-2.2313,-2.2313,-2.2313,-2.2313,-2.2313,-2.2313,-2.2313,-2.2296,-2.2127,-2.2175,-2.2262,-2.2192,-2.2141,-2.2175,-2.1803,-2.1583,-2.1688,-2.0876,-2.0399,-2.0264,-2.0149,-1.9727,-1.9046,-1.8877,-1.8724,-1.8205,-1.8341,-1.8437,-4.8324,-4.8177,-4.6691,-4.6471,-4.6984,-4.537,-4.4764,-4.4874,-4.4599,-4.414,-4.3479,-4.3479,-4.3479,-4.3479,-4.3479,-4.3479,-4.3479,-4.3479,-4.3479,0.0,-4.3479,-4.325,-4.2772,-4.1921,-4.1225,-4.0631,-3.9784,-3.8911,-3.815,-3.7907,-3.697,-3.5394,-3.5079,-3.4129,-3.2349,-3.0148,-2.8942,-2.8789,-2.7317,-2.6505,-2.6353,-2.5049,-2.4305,-2.4152,-2.2953,-2.2313,-2.2313,-2.2313,-2.2313,-2.2313,-2.2313,-2.2313,-2.2313,-2.2313,-2.2313,-2.2313,-2.2313,-2.2313,-2.2313,-2.2313,-2.2313,-2.2313,-2.2313,-2.2313,-2.2313,-2.2313,-2.2313,-2.2313,-2.2313,-2.2313,-2.2313,-2.2313,-2.2313,-2.2313,-2.2313,-2.2313,-2.2313,-2.2313,-2.2313,-2.2313,-2.2313,-2.2313,-2.2313,-2.2313,-2.2313,-2.2313,-2.2313,-2.2313,-2.2313,-2.2313,-2.2313,-2.2313,-2.2313,-2.2313,-2.2161,-2.1718,-2.1617,-2.2195,-2.1701,-2.1515,-2.2026,-2.1975,-2.1586,-2.0623,-2.067,-2.0213,-1.8877,-1.9253,-1.9423,-1.8944,-1.8792,-1.8741,-1.8572,-1.8318,-1.7969,-4.8324,-4.8233,-4.7498,-4.7168,-4.7003,-4.5865,-4.4837,-4.4121,-4.4525,-4.4268,-4.3516,-4.3479,-4.3479,-4.3479,-4.3479,-4.3479,-4.3479,-4.3479,-4.3479,-4.3479,-4.3479,-4.3375,-4.3105,-4.2704,-4.2178,-4.1484,-4.0568,-3.9684,-3.8936,-3.7962,-3.7016,-3.6058,-3.4911,-3.3608,-3.228,-3.0497,-2.9397,-2.8976,-2.7486,-2.6505,-2.6099,-2.5439,-2.4712,-2.3949,-2.3579,-2.3291,-2.2902,-2.2902,-2.2902,-2.2885,-2.2499,-2.2313,-2.2313,-2.2313,-2.2313,-2.2313,-2.2313,-2.2313,-2.2313,-2.2313,-2.2313,-2.2313,-2.2313,-2.2313,-2.2313,-2.2313,-2.2313,-2.2313,-2.2313,-2.2313,-2.2313,-2.2313,-2.2313,-2.2313,-2.2313,-2.2313,-2.2313,-2.2313,-2.2313,-2.2313,-2.2313,-2.2313,-2.2313,-2.2313,-2.2313,-2.2313,-2.2313,-2.2313,-2.2313,-2.2313,-2.2313,-2.2279,-2.1989,-2.1735,-2.1667,-2.1042,-2.0758,-2.1011,-2.0775,-2.069,-2.1011,-2.1062,-2.1113,-2.1147,-2.0653,-1.9701,-1.8589,-1.8645,-1.8628,-1.8471,-1.8302,-1.8302,-1.8251,-1.8014,-1.7834,-4.8324,-4.8306,-4.8122,-4.7553,-4.6764,-4.5975,-4.4911,-4.3846,-4.425,-4.4066,-4.3534,-4.3479,-4.3479,-4.3479,-4.3479,-4.3479,-4.3479,-4.3479,-4.3479,-4.3479,-4.3479,-4.3444,-4.3339,-4.3321,-4.2921,-4.2141,-4.1214,-4.0267,-3.9223,-3.7779,-3.6863,-3.6349,-3.4438,-3.3119,-3.2547,-3.092,-2.982,-2.9213,-2.7723,-2.659,-2.5863,-2.5694,-2.5052,-2.4036,-2.4271,-2.4252,-2.3695,-2.3644,-2.3644,-2.3611,-2.2801,-2.2448,-2.2753,-2.2784,-2.2801,-2.2801,-2.2786,-2.2716,-2.2533,-2.2381,-2.2313,-2.2313,-2.2313,-2.2313,-2.2313,-2.2313,-2.2313,-2.2313,-2.2313,-2.2313,-2.2313,-2.2313,-2.2313,-2.2313,-2.2313,-2.2313,-2.2313,-2.2313,-2.2313,-2.2313,-2.2313,-2.2313,-2.2313,-2.2313,-2.2313,-2.2313,-2.2313,-2.2313,-2.2313,-2.2313,-2.2313,-2.2158,-2.1634,-2.1224,-2.1123,-2.0365,-1.993,-1.9917,-1.9849,-1.993,-2.0031,-2.0052,-2.0454,-2.1282,-2.0217,-1.9125,-1.8922,-1.8386,-1.7952,-1.7884,-1.7884,-1.785,-1.7867,-1.7834,-1.7789,-4.8324,-4.8196,-4.7553,-4.6746,-4.6012,-4.5186,-4.4745,-4.4507,-4.392,-4.3588,-4.3497,-4.3479,-4.3479,-4.3479,-4.3479,-4.3479,-4.3479,-4.3479,-4.3479,-4.3479,-4.3479,-4.325,-4.2864,-4.2789,-4.2446,-4.1858,-4.1205,-4.017,-3.8968,-3.8117,-3.7077,-3.5684,-3.4167,-3.3355,-3.3051,-3.1173,-3.0055,-2.9973,-2.8466,-2.7334,-2.6607,-2.5947,-2.5525,-2.5406,-2.4797,-2.4474,-2.4389,-2.4421,-2.4389,-2.4288,-2.3071,-2.2919,-2.4085,-2.4271,-2.4271,-2.4237,-2.4254,-2.4034,-2.3325,-2.2682,-2.233,-2.2313,-2.2313,-2.2313,-2.2313,-2.2313,-2.2313,-2.2313,-2.2313,-2.2313,-2.2313,-2.2313,-2.2313,-2.2313,-2.2313,-2.2313,-2.2313,-2.2313,-2.2313,-2.2313,-2.2313,-2.2313,-2.2313,-2.2313,-2.2313,-2.2313,-2.2313,-2.2313,-2.2313,-2.2313,-2.2313,-2.2144,-2.1481,-2.1021,-2.0906,-1.9921,-1.9338,-1.9681,-1.9389,-1.9287,-1.9545,-1.9866,-2.0221,-2.045,-1.9925,-1.8809,-1.8302,-1.7817,-1.7817,-1.7789,-1.7789,-1.7789,-1.7789,-1.7789,-1.7789,-4.8324,-4.8288,-4.7957,-4.7333,-4.6489,-4.5241,-4.4709,-4.4635,-4.3846,-4.3479,-4.3479,-4.3479,-4.3479,-4.3479,-4.3479,-4.3479,-4.3479,-4.3479,-4.3479,-4.3479,-4.3479,-4.3375,-4.316,-4.2826,-4.2539,-4.2248,-4.1244,-4.0403,-3.9668,-3.839,-3.6739,-3.5018,-3.3897,-3.3186,-3.2699,-3.1427,-3.0548,-3.0091,-2.9059,-2.8129,-2.7368,-2.6623,-2.6031,-2.5676,-2.5727,-2.5575,-2.5203,-2.5152,-2.5152,-2.5101,-2.4169,-2.3849,-2.4457,-2.4508,-2.4305,-2.3915,-2.3864,-2.3526,-2.2786,-2.2868,-2.2753,-2.2347,-2.2313,-2.2313,-2.2313,-2.2313,-2.2313,-2.2313,-2.2313,-2.2313,-2.2313,-2.2313,-2.2313,-2.2313,-2.2313,-2.2313,-2.2313,-2.2313,-2.2313,-2.2313,-2.2313,-2.2313,-2.2313,-2.2313,-2.2313,-2.2313,-2.2313,-2.2313,-2.2313,-2.2313,-2.2313,-2.2178,-2.1448,-2.0754,-2.0437,-1.9249,-1.8611,-1.8577,-1.8459,-1.8442,-1.8696,-1.9152,-1.9435,-1.9667,-1.921,-1.8792,-1.8606,-1.8036,-1.7789,-1.7789,-1.7789,-1.7789,-1.7789,-1.7789,-1.7789,-4.8324,-4.8324,-4.8324,-4.7828,-4.7003,-4.5865,-4.5112,-4.4654,-4.4066,-4.3699,-4.3497,-4.3479,-4.3479,-4.3479,-4.3479,-4.3479,-4.3479,-4.3479,-4.3479,-4.3479,-4.3479,-4.3427,-4.325,-4.2902,-4.2616,-4.2273,-4.1241,-4.0508,-4.0005,-3.8265,-3.6554,-3.5181,-3.4184,-3.3339,-3.2615,-3.1887,-3.114,-3.0412,-2.9685,-2.9008,-2.8415,-2.7706,-2.6877,-2.6065,-2.642,-2.6437,-2.5947,-2.5913,-2.5913,-2.5896,-2.5372,-2.51,-2.51,-2.51,-2.4863,-2.434,-2.39,-2.3492,-2.2936,-2.3038,-2.2868,-2.2381,-2.2313,-2.2313,-2.2313,-2.2313,-2.2313,-2.2313,-2.2313,-2.2313,-2.2313,-2.2313,-2.2313,-2.2313,-2.2313,-2.2313,-2.2313,-2.2313,-2.2313,-2.2313,-2.2313,-2.2313,-2.2313,-2.2313,-2.2313,-2.2313,-2.2313,-2.2313,-2.2313,-2.2313,-2.2313,-2.2245,-2.1346,-2.0504,-1.9985,-1.9338,-1.8442,-1.8132,-1.8217,-1.8234,-1.8036,-1.8521,-1.8618,-1.8741,-1.8623,-1.8538,-1.8318,-1.7969,-1.7789,-1.7789,-1.7789,-1.7789,-1.7789,-1.7789,-1.7789,-4.8324,-4.8324,-4.8324,-4.7846,-4.7094,-4.6929,-4.6067,-4.48,-4.4599,-4.4195,-4.3551,-4.3479,-4.3479,-4.3479,-4.3479,-4.3479,-4.3479,-4.3479,-4.3479,-4.3479,-4.3479,-4.3232,-4.2732,-4.2693,-4.24,-4.1832,-4.1098,-4.0221,-3.9078,-3.7623,-3.6801,-3.6592,-3.5137,-3.4066,-3.3339,-3.2581,-3.1887,-3.114,-3.0378,-2.9989,-2.9854,-2.9194,-2.8096,-2.681,-2.6691,-2.6708,-2.6607,-2.6657,-2.664,-2.6657,-2.6522,-2.6522,-2.6556,-2.6522,-2.6404,-2.6302,-2.5185,-2.4406,-2.4135,-2.3241,-2.2482,-2.2313,-2.2398,-2.233,-2.2313,-2.2313,-2.2313,-2.2313,-2.2313,-2.2313,-2.2313,-2.2313,-2.2313,-2.2313,-2.2313,-2.2313,-2.2313,-2.2313,-2.2313,-2.2313,-2.2313,-2.2313,-2.2313,-2.2313,-2.2313,-2.2313,-2.2313,-2.2313,-2.2313,-2.2313,-2.2313,-2.206,-2.1214,-2.0069,-2.0018,-1.9372,-1.9152,-1.8797,-1.8369,-1.8657,-1.8555,-1.842,-1.8132,-1.7918,-1.8003,-1.8003,-1.7884,-1.7834,-1.78,-1.7789,-1.7789,-1.7789,-1.7789,-1.7789,-1.7789,-4.8324,-4.8324,-4.8324,-4.8141,-4.7773,-4.6783,-4.5993,-4.5369,-4.436,-4.3773,-4.3516,-4.3479,-4.3479,-4.3479,-4.3479,-4.3479,-4.3479,-4.3479,-4.3479,-4.3479,-4.3479,-4.3214,-4.2711,-4.2322,-4.1793,-4.1198,-4.0486,-3.9652,-3.8751,-3.7715,-3.7086,-3.6587,-3.525,-3.4353,-3.3947,-3.2903,-3.2158,-3.1799,-3.0751,-3.0089,-3.0057,-2.9381,-2.8467,-2.7469,-2.7402,-2.7182,-2.6708,-2.6708,-2.6708,-2.6708,-2.6708,-2.6708,-2.6657,-2.6251,-2.5998,-2.5964,-2.5507,-2.478,-2.3985,-2.4205,-2.375,-2.2499,-2.2919,-2.2936,-2.2431,-2.2313,-2.2313,-2.2313,-2.2313,-2.2313,-2.2313,-2.2313,-2.2313,-2.2313,-2.2313,-2.2313,-2.2313,-2.2313,-2.2313,-2.2313,-2.2313,-2.2313,-2.2313,-2.2313,-2.2313,-2.2313,-2.2313,-2.2313,-2.2313,-2.2313,-2.2313,-2.2262,-2.1857,-2.1299,-2.0788,-1.9367,-1.8459,-1.8324,-1.8155,-1.8155,-1.8104,-1.8115,-1.7884,-1.7867,-1.7789,-1.7789,-1.7817,-1.7817,-1.7789,-1.7789,-1.7789,-1.7789,-1.7789,-1.7789,-1.7789,-4.8324,-4.8324,-4.8324,-4.8324,-4.8177,-4.715,-4.6526,-4.6195,-4.5131,-4.4378,-4.3956,-4.3883,-4.3754,-4.3533,-4.3479,-4.3479,-4.3479,-4.3479,-4.3479,-4.3479,-4.3479,-4.3214,-4.2674,-4.208,-4.149,-4.0857,-4.018,-3.9553,-3.9055,-3.8334,-3.7701,-3.71,-3.5864,-3.4984,-3.4387,-3.3275,-3.2581,-3.2141,-3.1072,-3.0463,-3.0395,-2.9956,-2.9194,-2.8399,-2.8398,-2.7925,-2.6793,-2.6708,-2.6708,-2.6708,-2.6708,-2.6708,-2.664,-2.6234,-2.5964,-2.5947,-2.5727,-2.5187,-2.4357,-2.4831,-2.4577,-2.3207,-2.3441,-2.3441,-2.2719,-2.2462,-2.233,-2.2313,-2.2313,-2.2313,-2.2313,-2.2313,-2.2313,-2.2313,-2.2313,-2.2313,-2.2313,-2.2313,-2.2313,-2.2313,-2.2313,-2.2313,-2.2313,-2.2313,-2.2313,-2.2313,-2.2313,-2.2313,-2.2313,-2.2313,-2.2313,-2.2313,-2.2279,-2.1837,-2.1194,-1.9908,-1.9152,-1.8949,-1.8386,-1.8155,-1.7986,-1.7935,-1.7817,-1.78,-1.7789,-1.7789,-1.7789,-1.7789,-1.7789,-1.7789,-1.7789,-1.7789,-1.7789,-1.7789,-1.785,-4.8324,-4.8324,-4.8324,-4.8324,-4.8288,-4.8049,-4.77,-4.6947,-4.6782,-4.5682,-4.447,-4.4562,-4.4066,-4.3608,-4.3479,-4.3479,-4.3479,-4.3427,-4.3444,-4.3479,-4.3479,-4.3178,-4.2578,-4.2041,-4.1424,-4.081,-4.0326,-4.0095,-3.9934,-3.9205,-3.8512,-3.7872,-3.7049,-3.5932,-3.4573,-3.3863,-3.3051,-3.2357,-3.1596,-3.1173,-3.1173,-3.1038,-3.0311,-2.9162,-2.9516,-2.8839,-2.681,-2.6742,-2.6776,-2.6708,-2.6708,-2.6708,-2.6708,-2.6623,-2.6657,-2.6505,-2.6031,-2.5659,-2.5456,-2.5,-2.4829,-2.4271,-2.4101,-2.3915,-2.3342,-2.2699,-2.2313,-2.2313,-2.2313,-2.2313,-2.2313,-2.2313,-2.2313,-2.2313,-2.2313,-2.2313,-2.2313,-2.2313,-2.2313,-2.2313,-2.2313,-2.2313,-2.2313,-2.2313,-2.2313,-2.2313,-2.2313,-2.2313,-2.2313,-2.2313,-2.2313,-2.2313,-2.2296,-2.2057,-2.1329,-2.0572,-2.0251,-1.9879,-1.9147,-1.8657,-1.842,-1.8302,-1.7884,-1.7789,-1.7789,-1.7789,-1.7789,-1.7789,-1.7789,-1.7789,-1.7789,-1.7935,-1.8053,-1.8121,-1.802,-4.8324,-4.8324,-4.8324,-4.8324,-4.8233,-4.7718,-4.7003,-4.625,-4.57,-4.4856,-4.3993,-4.3864,-4.3718,-4.357,-4.3479,-4.3497,-4.3462,-4.3142,-4.3142,-4.3445,-4.3497,-4.2959,-4.2203,-4.1895,-4.1303,-4.0466,-4.0179,-4.0113,-3.9977,-3.9385,-3.8836,-3.8481,-3.7422,-3.6609,-3.5983,-3.4832,-3.3778,-3.3068,-3.2327,-3.1752,-3.1258,-3.119,-3.0497,-2.9213,-2.9211,-2.8484,-2.686,-2.7164,-2.7199,-2.6742,-2.6708,-2.6708,-2.6708,-2.6708,-2.6708,-2.6674,-2.6505,-2.6099,-2.5727,-2.5828,-2.5523,-2.4931,-2.5252,-2.4998,-2.3814,-2.2852,-2.2364,-2.2313,-2.2313,-2.2313,-2.2313,-2.2313,-2.2313,-2.2313,-2.2313,-2.2313,-2.2313,-2.2313,-2.2313,-2.2313,-2.2313,-2.2313,-2.2313,-2.2313,-2.2313,-2.2313,-2.2313,-2.2313,-2.2313,-2.2313,-2.2313,-2.2313,-2.2276,-2.226,-2.1721,-2.1278,-2.0974,-2.0483,-1.979,-1.9164,-1.891,-1.8504,-1.8087,-1.7789,-1.7789,-1.7789,-1.7789,-1.7884,-1.7952,-1.8036,-1.8189,-1.8352,-1.8504,-1.842,-1.8217,-4.8324,-4.8324,-4.8324,-4.8324,-4.825,-4.7736,-4.7278,-4.6709,-4.5938,-4.5149,-4.4524,-4.4397,-4.403,-4.3735,-4.4085,-4.4213,-4.3904,-4.3412,-4.3337,-4.3488,-4.3031,-4.2482,-4.181,-4.1534,-4.1013,-4.0254,-4.0113,-4.0113,-4.0079,-3.9673,-3.93,-3.8836,-3.8041,-3.7303,-3.6778,-3.5554,-3.4539,-3.3812,-3.3068,-3.2341,-3.1769,-3.1616,-3.0903,-2.9685,-2.9687,-2.9027,-2.7757,-2.7841,-2.7553,-2.686,-2.6708,-2.6708,-2.6708,-2.6708,-2.6708,-2.6708,-2.6674,-2.6471,-2.6116,-2.6404,-2.6353,-2.5692,-2.6167,-2.6015,-2.4526,-2.3427,-2.2784,-2.2364,-2.2313,-2.2313,-2.2313,-2.2313,-2.2313,-2.2313,-2.2313,-2.2313,-2.2313,-2.2313,-2.2313,-2.2313,-2.2313,-2.2313,-2.2313,-2.2313,-2.2313,-2.2313,-2.2313,-2.2313,-2.2313,-2.2313,-2.2313,-2.2313,-2.2296,-2.2279,-2.2245,-2.1972,-2.1664,-2.1042,-2.0365,-1.9811,-1.9406,-1.8814,-1.8341,-1.7935,-1.7789,-1.7789,-1.7805,-1.8189,-1.8386,-1.8504,-1.8572,-1.8657,-1.8702,-1.8369,-1.8166,-4.8324,-4.8324,-4.8324,-4.8324,-4.8324,-4.8251,-4.8031,-4.7884,-4.7204,-4.625,-4.5645,-4.5424,-4.4874,-4.414,-4.5039,-4.5314,-4.4748,-4.4076,-4.373,-4.3378,-4.2561,-4.1762,-4.1595,-4.111,-4.0577,-4.0171,-4.0113,-4.0113,-4.0096,-4.0028,-3.9757,-3.9182,-3.8903,-3.8311,-3.7185,-3.6129,-3.5318,-3.4573,-3.3829,-3.3085,-3.231,-3.2242,-3.1549,-3.0159,-3.0531,-3.0228,-2.8959,-2.8332,-2.7672,-2.6843,-2.6708,-2.6708,-2.6708,-2.6708,-2.6708,-2.6708,-2.6708,-2.6691,-2.6674,-2.6657,-2.6623,-2.6522,-2.6522,-2.6336,-2.5339,-2.4272,-2.3224,-2.2415,-2.2313,-2.2313,-2.2313,-2.2313,-2.2313,-2.2313,-2.2313,-2.2313,-2.2313,-2.2313,-2.2313,-2.2313,-2.2313,-2.2313,-2.2313,-2.2313,-2.2313,-2.2313,-2.2313,-2.2313,-2.2313,-2.2313,-2.2313,-2.2313,-2.2313,-2.2296,-2.2279,-2.2229,-2.1955,-2.1701,-2.1092,-2.0636,-1.9963,-1.9304,-1.8691,-1.8256,-1.7907,-1.7873,-1.7952,-1.8335,-1.8623,-1.8741,-1.8809,-1.8905,-1.8877,-1.8724,-1.842,-4.8324,-4.8324,-4.8324,-4.8324,-4.8324,-4.8324,-4.7627,-4.6617,-4.6379,-4.559,-4.4562,-4.4764,-4.4911,-4.4525,-4.5424,-4.5755,-4.5351,-4.4479,-4.3697,-4.3105,-4.1973,-4.1322,-4.1071,-4.0577,-4.0254,-4.0096,-4.0113,-4.0113,-4.0113,-4.0113,-3.9977,-3.9808,-3.9259,-3.8836,-3.8302,-3.7094,-3.6113,-3.5334,-3.4573,-3.3575,-3.2547,-3.2361,-3.1582,-3.0311,-3.0345,-2.9956,-2.9027,-2.8298,-2.7536,-2.6793,-2.6708,-2.6708,-2.6708,-2.6708,-2.6708,-2.6708,-2.6708,-2.6708,-2.6708,-2.6708,-2.6708,-2.6708,-2.6708,-2.659,-2.6302,-2.4762,-2.3475,-2.2564,-2.2313,-2.2313,-2.2313,-2.2313,-2.2313,-2.2313,-2.2313,-2.2313,-2.2313,-2.2313,-2.2313,-2.2313,-2.2313,-2.2313,-2.2313,-2.2313,-2.2313,-2.2313,-2.2313,-2.2313,-2.2313,-2.2313,-2.2313,-2.2313,-2.2313,-2.2313,-2.2313,-2.2313,-2.2245,-2.2209,-2.187,-2.1549,-2.0788,-1.9959,-1.9312,-1.8736,-1.8391,-1.8262,-1.8239,-1.8386,-1.8623,-1.9147,-1.9701,-2.0073,-1.9761,-1.9529,-1.9084,-4.8636,-4.8324,-4.8324,-4.8324,-4.8324,-4.8324,-4.7774,-4.6966,-4.6526,-4.5938,-4.5241,-4.5461,-4.5516,-4.5315,-4.6136,-4.6247,-4.5791,-4.4653,-4.3891,-4.3296,-4.1921,-4.1034,-4.0595,-4.0204,-4.0113,-4.0113,-4.0113,-4.0113,-4.0113,-4.0113,-4.0113,-4.0011,-3.9648,-3.9292,-3.8877,-3.7889,-3.6897,-3.6129,-3.5351,-3.4353,-3.3326,-3.3224,-3.2429,-3.1258,-3.0751,-3.0176,-2.9382,-2.8958,-2.8162,-2.708,-2.6708,-2.6708,-2.6708,-2.6708,-2.6708,-2.6708,-2.6708,-2.6708,-2.6708,-2.6708,-2.6708,-2.6708,-2.6708,-2.6708,-2.6387,-2.5083,-2.3661,-2.2513,-2.233,-2.2313,-2.2313,-2.2313,-2.2313,-2.2313,-2.2313,-2.2313,-2.2313,-2.2313,-2.2313,-2.2313,-2.2313,-2.2313,-2.2313,-2.2313,-2.2313,-2.2313,-2.2313,-2.2313,-2.2313,-2.2313,-2.2313,-2.2313,-2.2313,-2.2313,-2.2313,-2.2313,-2.2313,-2.2296,-2.2245,-2.2023,-2.1495,-2.0615,-2.0022,-1.9447,-1.8983,-1.8679,-1.8662,-1.8894,-1.9553,-2.0145,-2.0818,-2.0683,-2.0132,-2.0137,-1.9693,-4.9151,-4.8434,-4.8343,-4.8324,-4.8324,-4.8306,-4.8067,-4.7847,-4.7259,-4.6763,-4.6468,-4.6798,-4.6282,-4.5918,-4.669,-4.6839,-4.5914,-4.5011,-4.4203,-4.3325,-4.2037,-4.09,-4.0476,-4.0197,-4.0113,-4.0113,-4.0113,-4.0113,-4.0113,-4.0113,-4.0113,-4.0079,-4.0045,-3.9757,-3.9216,-3.8396,-3.7652,-3.6907,-3.6129,-3.5216,-3.4421,-3.4167,-3.3546,-3.2446,-3.1616,-3.0869,-3.0176,-2.982,-2.9194,-2.7334,-2.6962,-2.6826,-2.6776,-2.6708,-2.6708,-2.6708,-2.6708,-2.6708,-2.6708,-2.6708,-2.6708,-2.6708,-2.6708,-2.6708,-2.6437,-2.5422,-2.4152,-2.2919,-2.2482,-2.2448,-2.2313,-2.2313,-2.2313,-2.2313,-2.2313,-2.2313,-2.2313,-2.2313,-2.2313,-2.2313,-2.2313,-2.2313,-2.2313,-2.2313,-2.2313,-2.2313,-2.2313,-2.2313,-2.2313,-2.2313,-2.2313,-2.2313,-2.2313,-2.2313,-2.2313,-2.2313,-2.2313,-2.2296,-2.2296,-2.2158,-2.1921,-2.1262,-2.0737,-2.0247,-1.9841,-1.9439,-1.9152,-1.9621,-2.0365,-2.0754,-2.1156,-2.05,-1.9824,-2.0285,-2.0213,-4.9482,-4.926,-4.8581,-4.8324,-4.8324,-4.8306,-4.7609,-4.6544,-4.6947,-4.6262,-4.5149,-4.585,-4.6002,-4.5511,-4.6665,-4.6964,-4.623,-4.5675,-4.4879,-4.2586,-4.1742,-4.1187,-4.0815,-4.0434,-4.0146,-4.0146,-4.0113,-4.0113,-4.0113,-4.0113,-4.0113,-4.0113,-4.0096,-4.0028,-3.9757,-3.9022,-3.8396,-3.7669,-3.6891,-3.5791,-3.4776,-3.4539,-3.4117,-3.3186,-3.2412,-3.1684,-3.092,-3.0378,-3.0142,-2.9786,-2.8586,-2.7435,-2.6945,-2.6742,-2.6708,-2.6708,-2.6708,-2.6708,-2.6708,-2.6708,-2.6708,-2.6708,-2.6708,-2.6691,-2.6674,-2.5896,-2.4949,-2.4086,-2.3511,-2.2987,-2.2567,-2.2364,-2.2448,-2.2499,-2.2364,-2.2313,-2.2313,-2.2313,-2.2313,-2.2313,-2.2313,-2.2313,-2.2313,-2.2313,-2.2313,-2.2313,-2.2313,-2.2313,-2.2313,-2.2313,-2.2313,-2.2313,-2.2313,-2.2313,-2.2313,-2.2313,-2.2313,-2.2313,-2.2313,-2.2296,-2.2073,-2.1904,-2.1363,-2.1008,-2.0703,-2.0331,-1.9925,-2.0348,-2.1106,-2.1278,-2.1363,-2.0923,-2.0619,-2.0822,-2.0538,-4.9701,-4.8948,-4.8489,-4.8324,-4.8324,-4.8287,-4.7658,-4.6823,-4.7039,-4.6424,-4.5401,-4.5998,-4.6104,-4.5782,-4.6265,-4.6224,-4.5841,-4.5501,-4.4483,-4.298,-4.2345,-4.1897,-4.1204,-4.0865,-4.0612,-4.057,-4.0248,-4.013,-4.0113,-4.0113,-4.0113,-4.0113,-4.0113,-4.0096,-4.0011,-3.9394,-3.8616,-3.7872,-3.7161,-3.6203,-3.5216,-3.5013,-3.4658,-3.3829,-3.2919,-3.2073,-3.1701,-3.0987,-3.0683,-3.0395,-2.9533,-2.8398,-2.7469,-2.6962,-2.6725,-2.6708,-2.6708,-2.6708,-2.6708,-2.6708,-2.6708,-2.6708,-2.6708,-2.6708,-2.6539,-2.6031,-2.571,-2.5303,-2.4609,-2.3712,-2.3376,-2.3359,-2.3325,-2.3173,-2.2682,-2.2347,-2.2313,-2.2313,-2.2313,-2.2313,-2.2313,-2.2313,-2.2313,-2.2313,-2.2313,-2.2313,-2.2313,-2.2313,-2.2313,-2.2313,-2.2313,-2.2313,-2.2313,-2.2313,-2.2313,-2.2313,-2.2313,-2.2313,-2.2313,-2.2313,-2.2212,-2.2107,-2.1972,-2.1583,-2.1194,-2.1126,-2.0906,-2.1393,-2.1495,-2.141,-2.1363,-2.1363,-2.1333,-2.1204,-2.0749,-4.9903,-4.8489,-4.8361,-4.8324,-4.8324,-4.8287,-4.7829,-4.7196,-4.737,-4.6748,-4.6165,-4.6087,-4.5763,-4.5768,-4.5496,-4.5281,-4.511,-4.4468,-4.3692,-4.3237,-4.3168,-4.2499,-4.1728,-4.1576,-4.1407,-4.1187,-4.0451,-4.0163,-4.0282,-4.0163,-4.0113,-4.0113,-4.0113,-4.0113,-3.9943,-3.9512,-3.8853,-3.8108,-3.7618,-3.6654,-3.5785,-3.5616,-3.5351,-3.432,-3.3512,-3.2598,-3.2226,-3.163,-3.1072,-3.0309,-3.0176,-2.9514,-2.8586,-2.7486,-2.686,-2.6894,-2.681,-2.6708,-2.6708,-2.6708,-2.6708,-2.6708,-2.6708,-2.6708,-2.6556,-2.6268,-2.6167,-2.5981,-2.5456,-2.4575,-2.4525,-2.4305,-2.4338,-2.422,-2.3274,-2.2649,-2.2344,-2.2313,-2.2313,-2.2313,-2.2313,-2.2313,-2.2313,-2.2313,-2.2313,-2.2313,-2.2313,-2.2313,-2.2313,-2.2313,-2.2313,-2.2313,-2.2313,-2.2313,-2.2313,-2.2268,-2.2282,-2.2282,-2.2282,-2.2282,-2.2282,-2.2229,-2.2107,-2.1904,-2.1647,-2.1583,-2.1617,-2.182,-2.1786,-2.1532,-2.1552,-2.1697,-2.1666,-2.1538,-2.0982,-5.0233,-4.9335,-4.8618,-4.8324,-4.8324,-4.8324,-4.7591,-4.6633,-4.7108,-4.6331,-4.4811,-4.4709,-4.4483,-4.4181,-4.4482,-4.4842,-4.4879,-4.4266,-4.3613,-4.3391,-4.3413,-4.2929,-4.2388,-4.254,-4.226,-4.1271,-4.057,-4.0468,-4.0612,-4.0443,-4.013,-4.0113,-4.0113,-4.0113,-4.0079,-3.991,-3.9326,-3.8565,-3.8328,-3.7533,-3.6417,-3.6163,-3.5859,-3.4742,-3.41,-3.341,-3.253,-3.2192,-3.1785,-3.1075,-3.0446,-3.0038,-2.9514,-2.8432,-2.7773,-2.7536,-2.7182,-2.6979,-2.686,-2.6759,-2.6725,-2.6708,-2.6708,-2.6708,-2.6657,-2.6556,-2.6505,-2.6387,-2.5964,-2.5203,-2.4558,-2.4728,-2.4575,-2.444,-2.4338,-2.3746,-2.2885,-2.2398,-2.2465,-2.2615,-2.2482,-2.2313,-2.2313,-2.2313,-2.2313,-2.2313,-2.2313,-2.2313,-2.2313,-2.2313,-2.2313,-2.2313,-2.2313,-2.2313,-2.2313,-2.2268,-2.2237,-2.2268,-2.2268,-2.2237,-2.2268,-2.2296,-2.2209,-2.204,-2.2009,-2.2012,-2.2096,-2.2167,-2.2071,-2.181,-2.1928,-2.2048,-2.1786,-2.1491,-2.1322,-4.9682,-4.8893,-4.8471,-4.8324,-4.8324,-4.8305,-4.7538,-4.6467,-4.6686,-4.5745,-4.4328,-4.3835,-4.3481,-4.3175,-4.3574,-4.4101,-4.4182,-4.43,-4.3775,-4.3561,-4.3741,-4.3606,-4.2929,-4.3257,-4.2709,-4.183,-4.1085,-4.062,-4.062,-4.0299,-4.0113,-4.0113,-4.0113,-4.0113,-4.0096,-4.0079,-3.9529,-3.8903,-3.8785,-3.8447,-3.7144,-3.7066,-3.6118,-3.5351,-3.4641,-3.3931,-3.3068,-3.2412,-3.1955,-3.1292,-3.0852,-3.0717,-3.0328,-2.9702,-2.8805,-2.8467,-2.8044,-2.7638,-2.7368,-2.7232,-2.7131,-2.6742,-2.6708,-2.6708,-2.6708,-2.6691,-2.6708,-2.6607,-2.6505,-2.6031,-2.5743,-2.5608,-2.5642,-2.5625,-2.5608,-2.5203,-2.4425,-2.3192,-2.297,-2.3054,-2.2767,-2.2533,-2.2313,-2.2313,-2.2313,-2.2313,-2.233,-2.233,-2.233,-2.2313,-2.2313,-2.2313,-2.2313,-2.2313,-2.224,-2.2106,-2.2194,-2.2237,-2.2166,-2.2135,-2.2254,-2.2282,-2.2313,-2.2229,-2.2265,-2.2268,-2.2075,-2.1967,-2.2015,-2.2003,-2.1911,-2.1776,-2.1627,-2.1445,-2.1228,-4.8942,-4.8287,-4.8172,-4.8132,-4.8132,-4.8267,-4.7512,-4.643,-4.6365,-4.5304,-4.3562,-4.32,-4.277,-4.2422,-4.2811,-4.3345,-4.3623,-4.4361,-4.4181,-4.3944,-4.4198,-4.413,-4.3606,-4.3487,-4.3183,-4.2202,-4.1745,-4.1035,-4.0587,-4.0214,-4.0113,-4.0113,-4.0113,-4.0113,-4.0113,-4.0113,-3.9478,-3.9242,-3.9073,-3.9056,-3.8481,-3.7489,-3.6541,-3.5859,-3.5115,-3.4404,-3.3643,-3.2949,-3.2276,-3.1664,-3.1275,-3.1157,-3.1089,-3.0613,-3.0057,-2.9534,-2.9196,-2.8636,-2.8247,-2.7773,-2.7469,-2.7097,-2.681,-2.6725,-2.6708,-2.6708,-2.6708,-2.6708,-2.6657,-2.6623,-2.6471,-2.6623,-2.6607,-2.659,-2.6573,-2.6488,-2.5761,-2.4763,-2.368,-2.3494,-2.3105,-2.3054,-2.3105,-2.3038,-2.3173,-2.2801,-2.2801,-2.2465,-2.2448,-2.233,-2.2313,-2.2313,-2.2313,-2.2313,-2.218,-2.1884,-2.2032,-2.2268,-2.2063,-2.1913,-2.2106,-2.2313,-2.2282,-2.2254,-2.2313,-2.2254,-2.2017,-2.1779,-2.1735,-2.169,-2.1613,-2.1413,-2.1134,-2.1055,-2.0975,-4.8546,-4.823,-4.7715,-4.7509,-4.7572,-4.8015,-4.7219,-4.579,-4.6143,-4.5254,-4.3284,-4.276,-4.2151,-4.1796,-4.2236,-4.3234,-4.4056,-4.4479,-4.4462,-4.4215,-4.4445,-4.4198,-4.3656,-4.4181,-4.3386,-4.2439,-4.2117,-4.1762,-4.0916,-4.0299,-4.0113,-4.0113,-4.0113,-4.0113,-4.0113,-4.0113,-4.0045,-3.9926,-3.9926,-3.958,-3.8819,-3.755,-3.6891,-3.6457,-3.5825,-3.503,-3.4269,-3.3575,-3.2899,-3.2141,-3.1512,-3.1241,-3.1173,-3.114,-3.1055,-3.0581,-2.989,-2.8959,-2.8789,-2.8398,-2.7976,-2.7638,-2.7165,-2.681,-2.6708,-2.6708,-2.6708,-2.6708,-2.6708,-2.6708,-2.6708,-2.6708,-2.6708,-2.6708,-2.6708,-2.6708,-2.6353,-2.5828,-2.4795,-2.4474,-2.4239,-2.4271,-2.4321,-2.4203,-2.4051,-2.3596,-2.319,-2.2868,-2.2533,-2.2381,-2.2313,-2.2313,-2.2313,-2.2313,-2.2094,-2.1794,-2.1825,-2.2137,-2.1915,-2.1675,-2.1825,-2.2005,-2.2166,-2.2166,-2.2211,-2.2049,-2.172,-2.1506,-2.143,-2.1322,-2.1181,-2.0878,-2.0517,-2.0533,-2.0615,-4.7002,-4.7198,-4.6937,-4.6842,-4.6847,-4.7132,-4.6594,-4.5732,-4.574,-4.4716,-4.3098,-4.2946,-4.2506,-4.2066,-4.2591,-4.2997,-4.3487,-4.4225,-4.4327,-4.4198,-4.4333,-4.4367,-4.4113,-4.3927,-4.3234,-4.2506,-4.183,-4.117,-4.0663,-4.0367,-4.0113,-4.0113,-4.0113,-4.0113,-4.0113,-4.0113,-4.0096,-4.0079,-4.0045,-3.9706,-3.8903,-3.799,-3.7212,-3.6812,-3.6045,-3.5301,-3.4624,-3.4252,-3.3389,-3.2564,-3.1921,-3.1616,-3.1309,-3.1173,-3.1173,-3.1123,-3.0668,-3.0091,-2.9668,-2.9261,-2.8872,-2.8366,-2.7774,-2.7181,-2.686,-2.6742,-2.6742,-2.6708,-2.6708,-2.6708,-2.6725,-2.6708,-2.6708,-2.6708,-2.6708,-2.6708,-2.6623,-2.6336,-2.5794,-2.5608,-2.5405,-2.5354,-2.5202,-2.4897,-2.4525,-2.3949,-2.3613,-2.3376,-2.2852,-2.2347,-2.2313,-2.2313,-2.2313,-2.2313,-2.202,-2.1736,-2.1601,-2.1739,-2.1525,-2.1354,-2.1446,-2.16,-2.1897,-2.191,-2.1786,-2.1602,-2.1386,-2.1337,-2.1353,-2.107,-2.0732,-2.0484,-2.0263,-2.007,-2.0102,-4.5699,-4.5982,-4.6112,-4.6167,-4.6192,-4.6336,-4.5965,-4.5303,-4.5217,-4.4233,-4.3039,-4.2929,-4.2844,-4.276,-4.3098,-4.3284,-4.3081,-4.4107,-4.4147,-4.4096,-4.4198,-4.4412,-4.4062,-4.3606,-4.3037,-4.2269,-4.1627,-4.1068,-4.0612,-4.0231,-4.0113,-4.0113,-4.0113,-4.0113,-4.0113,-4.0113,-4.0113,-4.0113,-4.0113,-3.9825,-3.93,-3.8582,-3.7821,-3.711,-3.6315,-3.5554,-3.4878,-3.4506,-3.3744,-3.3224,-3.2412,-3.1989,-3.165,-3.1579,-3.1393,-3.136,-3.1176,-3.1055,-3.0514,-3.0074,-2.982,-2.9211,-2.8467,-2.7705,-2.752,-2.7199,-2.7199,-2.7453,-2.681,-2.686,-2.6894,-2.6877,-2.6708,-2.6708,-2.6708,-2.6708,-2.6674,-2.6454,-2.6352,-2.6217,-2.6065,-2.615,-2.593,-2.5523,-2.4998,-2.4338,-2.4017,-2.3864,-2.3308,-2.2651,-2.2434,-2.2437,-2.2319,-2.2319,-2.2128,-2.1845,-2.1665,-2.1533,-2.1327,-2.1407,-2.1714,-2.1746,-2.1889,-2.176,-2.16,-2.1826,-2.2005,-2.1648,-2.126,-2.0846,-2.0484,-2.0314,-2.0089,-1.9887,-1.9744,-4.5196,-4.4776,-4.5346,-4.5563,-4.5597,-4.6167,-4.5707,-4.4763,-4.4561,-4.4112,-4.3339,-4.2794,-4.2878,-4.3217,-4.3453,-4.3792,-4.431,-4.4547,-4.4496,-4.4496,-4.4547,-4.413,-4.3707,-4.3301,-4.2851,-4.2185,-4.1407,-4.1052,-4.0916,-4.0265,-4.0146,-4.0113,-4.0113,-4.0113,-4.0113,-4.0113,-4.0113,-4.0113,-4.0113,-4.0096,-3.9723,-3.914,-3.8396,-3.7736,-3.7066,-3.6315,-3.5532,-3.4928,-3.4438,-3.4053,-3.3173,-3.2496,-3.2293,-3.2107,-3.1836,-3.1765,-3.1853,-3.1701,-3.1207,-3.0598,-3.0159,-2.9702,-2.9161,-2.8552,-2.84,-2.823,-2.8332,-2.8451,-2.7656,-2.7334,-2.7351,-2.7232,-2.7131,-2.6877,-2.686,-2.6708,-2.6708,-2.6691,-2.659,-2.664,-2.664,-2.6623,-2.664,-2.6218,-2.5625,-2.4966,-2.4558,-2.4389,-2.3833,-2.3226,-2.2794,-2.2611,-2.2408,-2.231,-2.2295,-2.2149,-2.2116,-2.2054,-2.1891,-2.209,-2.238,-2.2311,-2.2014,-2.1995,-2.196,-2.2322,-2.247,-2.1966,-2.1383,-2.0672,-2.0306,-2.0469,-2.0312,-2.0068,-1.9872,-4.4814,-4.4626,-4.4852,-4.4944,-4.4944,-4.5205,-4.5008,-4.4631,-4.4545,-4.4398,-4.4012,-4.3369,-4.3149,-4.347,-4.3944,-4.3978,-4.3995,-4.4429,-4.4513,-4.4367,-4.4113,-4.3707,-4.3189,-4.253,-4.1837,-4.1508,-4.0916,-4.051,-4.0434,-4.0214,-4.0163,-4.0113,-4.0113,-4.0113,-4.0113,-4.0113,-4.0113,-4.0113,-4.0113,-4.0113,-3.9859,-3.892,-3.8176,-3.7905,-3.6586,-3.6028,-3.5566,-3.5346,-3.4962,-3.4493,-3.3901,-3.3406,-3.2882,-3.2598,-3.2378,-3.2307,-3.2429,-3.2158,-3.1819,-3.114,-3.0615,-3.019,-2.9973,-2.9753,-2.9297,-2.9061,-2.8976,-2.8824,-2.8502,-2.818,-2.8332,-2.8282,-2.8062,-2.7486,-2.7097,-2.6894,-2.6826,-2.6877,-2.7334,-2.7605,-2.7182,-2.686,-2.6911,-2.6911,-2.6268,-2.5642,-2.5253,-2.488,-2.4458,-2.3874,-2.3427,-2.2974,-2.276,-2.2551,-2.2504,-2.2538,-2.2604,-2.2519,-2.2417,-2.2532,-2.2664,-2.2428,-2.2202,-2.223,-2.2269,-2.2477,-2.2449,-2.209,-2.159,-2.1008,-2.0886,-2.0986,-2.0723,-2.0337,-2.0094,-4.4598,-4.4598,-4.4598,-4.4598,-4.4598,-4.4598,-4.4598,-4.4547,-4.431,-4.4079,-4.391,-4.3707,-4.3453,-4.3436,-4.3826,-4.3741,-4.3453,-4.3775,-4.4113,-4.4028,-4.3724,-4.3318,-4.2709,-4.1999,-4.1238,-4.0832,-4.0485,-4.0146,-4.0197,-4.0113,-4.0113,-4.0113,-4.0113,-4.0113,-4.0113,-4.0113,-4.0113,-4.0113,-4.0113,-4.0113,-3.9926,-3.9225,-3.8227,-3.8024,-3.6935,-3.614,-3.5819,-3.5498,-3.5312,-3.4912,-3.4472,-3.4134,-3.3575,-3.3068,-3.2784,-3.2814,-3.2848,-3.2564,-3.2209,-3.1633,-3.0987,-3.0649,-3.0801,-3.0446,-3.0076,-2.9958,-3.0042,-2.9788,-2.9399,-2.9111,-2.923,-2.901,-2.8705,-2.8129,-2.7655,-2.7402,-2.73,-2.7351,-2.8062,-2.8587,-2.8095,-2.7637,-2.7219,-2.7218,-2.6689,-2.6202,-2.6031,-2.5828,-2.5727,-2.5006,-2.4109,-2.3634,-2.321,-2.2998,-2.2802,-2.2845,-2.2845,-2.283,-2.2731,-2.265,-2.2655,-2.2512,-2.2592,-2.2746,-2.2782,-2.2682,-2.2697,-2.2709,-2.2156,-2.1421,-2.1405,-2.1443,-2.1165,-2.0797,-2.0468,-4.4564,-4.4598,-4.4598,-4.4598,-4.4598,-4.4598,-4.4598,-4.453,-4.3927,-4.3267,-4.2929,-4.3775,-4.3589,-4.2811,-4.3217,-4.3047,-4.2794,-4.3217,-4.3572,-4.3555,-4.3335,-4.2929,-4.2303,-4.1542,-4.0747,-4.0265,-4.0113,-4.0113,-4.0113,-4.0113,-4.0113,-4.0113,-4.0113,-4.0113,-4.0113,-4.0113,-4.0113,-4.0113,-4.0113,-4.0113,-4.0028,-3.9732,-3.8954,-3.8261,-3.7662,-3.6884,-3.609,-3.5876,-3.5684,-3.5346,-3.4776,-3.4506,-3.4387,-3.3558,-3.3085,-3.2835,-3.322,-3.3017,-3.2446,-3.1684,-3.141,-3.136,-3.1596,-3.1309,-3.119,-3.1193,-3.1244,-3.1055,-3.0245,-2.977,-2.9651,-2.9583,-2.9313,-2.8924,-2.8467,-2.8163,-2.8096,-2.813,-2.884,-2.9348,-2.9107,-2.8693,-2.7999,-2.7479,-2.7007,-2.6702,-2.6708,-2.664,-2.6556,-2.5899,-2.4828,-2.4347,-2.3846,-2.3326,-2.3157,-2.3113,-2.3101,-2.3079,-2.3141,-2.3197,-2.3112,-2.3045,-2.3137,-2.3281,-2.3248,-2.3137,-2.332,-2.3503,-2.2846,-2.2234,-2.1873,-2.1744,-2.1535,-2.1321,-2.1051,-4.3809,-4.3859,-4.4367,-4.4598,-4.4598,-4.4598,-4.4598,-4.4564,-4.4248,-4.3741,-4.3217,-4.369,-4.3301,-4.2658,-4.2455,-4.2506,-4.2439,-4.3047,-4.3403,-4.3318,-4.2912,-4.2608,-4.1999,-4.1136,-4.0392,-4.018,-4.0113,-4.0163,-4.0113,-4.018,-4.013,-4.0113,-4.0113,-4.0113,-4.0113,-4.0113,-4.0113,-4.0113,-4.0113,-4.0096,-4.0045,-3.9673,-3.9174,-3.8582,-3.8176,-3.7449,-3.6468,-3.6366,-3.6113,-3.5752,-3.5148,-3.5098,-3.5148,-3.4484,-3.445,-3.4235,-3.4472,-3.4032,-3.363,-3.3152,-3.2713,-3.2577,-3.2374,-3.2357,-3.256,-3.2324,-3.2408,-3.2374,-3.1579,-3.1292,-3.143,-3.0903,-3.0514,-3.0023,-2.96,-2.9313,-2.9213,-2.9297,-2.9636,-2.9922,-2.992,-2.9027,-2.8279,-2.7749,-2.7294,-2.6935,-2.6856,-2.6741,-2.664,-2.6134,-2.5329,-2.5019,-2.4545,-2.3893,-2.349,-2.3481,-2.3745,-2.3942,-2.3984,-2.403,-2.3906,-2.3728,-2.3475,-2.3505,-2.355,-2.3595,-2.3684,-2.3699,-2.3518,-2.3125,-2.2664,-2.2373,-2.2283,-2.2089,-2.1834,-4.3403,-4.3477,-4.4265,-4.4598,-4.4598,-4.4598,-4.4598,-4.4598,-4.4564,-4.4012,-4.3234,-4.3223,-4.2642,-4.1914,-4.1796,-4.1677,-4.166,-4.2269,-4.2625,-4.2591,-4.2185,-4.1914,-4.1474,-4.0874,-4.0502,-4.0367,-4.0485,-4.0519,-4.057,-4.0519,-4.035,-4.018,-4.0113,-4.0113,-4.0113,-4.0113,-4.0113,-4.0113,-4.0113,-4.0113,-3.9994,-3.9706,-3.9309,-3.8937,-3.8514,-3.7939,-3.733,-3.6891,-3.6552,-3.6079,-3.5769,-3.5633,-3.5616,-3.56,-3.5464,-3.5131,-3.4844,-3.459,-3.459,-3.4523,-3.4163,-3.4146,-3.3592,-3.3305,-3.344,-3.322,-3.3203,-3.3136,-3.2916,-3.2763,-3.2527,-3.2002,-3.1732,-3.1241,-3.0954,-3.0702,-3.0211,-3.0262,-3.0398,-3.0666,-3.0555,-2.9582,-2.8587,-2.8061,-2.7581,-2.7247,-2.6967,-2.6869,-2.6791,-2.642,-2.6067,-2.5857,-2.5368,-2.4668,-2.4166,-2.3902,-2.4234,-2.4729,-2.4725,-2.4593,-2.4812,-2.4657,-2.4193,-2.3864,-2.4193,-2.4343,-2.4014,-2.3856,-2.3728,-2.3548,-2.3242,-2.3062,-2.3032,-2.2748,-2.2403,-4.3325,-4.3504,-4.4215,-4.4564,-4.4598,-4.4513,-4.4496,-4.453,-4.453,-4.3639,-4.232,-4.2946,-4.2134,-4.0637,-4.0882,-4.0933,-4.0663,-4.117,-4.1559,-4.1542,-4.161,-4.1491,-4.1305,-4.0764,-4.0781,-4.1052,-4.1221,-4.1221,-4.1221,-4.1018,-4.0679,-4.0248,-4.0113,-4.0113,-4.0113,-4.0113,-4.0113,-4.0113,-4.0113,-4.0113,-4.0028,-4.0028,-3.9673,-3.9326,-3.9022,-3.8514,-3.7872,-3.728,-3.688,-3.64,-3.5994,-3.5735,-3.5616,-3.5616,-3.5148,-3.4793,-3.4641,-3.4996,-3.5295,-3.5261,-3.5312,-3.5092,-3.4641,-3.4083,-3.3897,-3.4083,-3.4117,-3.3897,-3.3626,-3.3525,-3.3339,-3.3203,-3.3068,-3.273,-3.2442,-3.1918,-3.1224,-3.114,-3.1275,-3.1337,-3.121,-3.0442,-2.9302,-2.8604,-2.7987,-2.7531,-2.7248,-2.7165,-2.7125,-2.7205,-2.6927,-2.6873,-2.6304,-2.55,-2.5015,-2.467,-2.4645,-2.513,-2.501,-2.4957,-2.5226,-2.548,-2.5031,-2.4852,-2.5151,-2.5076,-2.4552,-2.4208,-2.3984,-2.3834,-2.3879,-2.3505,-2.34,-2.3107,-2.2793,-4.2108,-4.2692,-4.3453,-4.4062,-4.4479,-4.3995,-4.3758,-4.3758,-4.3724,-4.2912,-4.1525,-4.1745,-4.1221,-4.0197,-4.0333,-4.0578,-4.0849,-4.1238,-4.1999,-4.1999,-4.1576,-4.1999,-4.1931,-4.1508,-4.1508,-4.1711,-4.1948,-4.188,-4.1796,-4.1559,-4.0832,-4.0214,-4.0146,-4.0113,-4.0113,-4.0113,-4.0113,-4.0113,-4.0113,-4.0113,-4.0113,-4.0113,-3.9893,-3.9774,-3.969,-3.9089,-3.8244,-3.7804,-3.7246,-3.6163,-3.5819,-3.5616,-3.5616,-3.56,-3.538,-3.5346,-3.5312,-3.5397,-3.5566,-3.5616,-3.5616,-3.5616,-3.5284,-3.5228,-3.5059,-3.4957,-3.5013,-3.4692,-3.4353,-3.4218,-3.4083,-3.3981,-3.3863,-3.3626,-3.3322,-3.2831,-3.2188,-3.1952,-3.2087,-3.2114,-3.1965,-3.1112,-2.996,-2.9095,-2.8495,-2.7906,-2.754,-2.7432,-2.7444,-2.7534,-2.7525,-2.7465,-2.6893,-2.5984,-2.584,-2.5551,-2.5447,-2.5458,-2.5397,-2.5525,-2.5959,-2.6078,-2.5779,-2.5674,-2.5719,-2.5405,-2.4949,-2.471,-2.4597,-2.4717,-2.4732,-2.4208,-2.3729,-2.3415,-2.3227,-4.1457,-4.1982,-4.297,-4.3707,-4.3927,-4.3301,-4.2844,-4.2642,-4.2828,-4.2252,-4.1288,-4.1255,-4.0781,-4.018,-4.0146,-4.0333,-4.0663,-4.0696,-4.1238,-4.1745,-4.1627,-4.2049,-4.2151,-4.1965,-4.1728,-4.2049,-4.2303,-4.2202,-4.2083,-4.1593,-4.0882,-4.0595,-4.035,-4.013,-4.0113,-4.0113,-4.0113,-4.0113,-4.0113,-4.0113,-4.0113,-4.0113,-4.0113,-4.0113,-4.0113,-3.9486,-3.8802,-3.8531,-3.7635,-3.6479,-3.6191,-3.5802,-3.5943,-3.6096,-3.5785,-3.5701,-3.5549,-3.5549,-3.5616,-3.5616,-3.5616,-3.5616,-3.5616,-3.5549,-3.5532,-3.543,-3.5464,-3.5346,-3.5115,-3.4895,-3.4759,-3.4607,-3.4472,-3.4298,-3.3981,-3.3626,-3.322,-3.2831,-3.2827,-3.2887,-3.2404,-3.1586,-3.0689,-2.9789,-2.906,-2.8612,-2.8071,-2.7593,-2.7646,-2.7784,-2.7775,-2.7709,-2.7079,-2.6366,-2.6374,-2.6382,-2.6208,-2.6093,-2.6123,-2.6303,-2.6692,-2.6821,-2.6632,-2.6363,-2.6108,-2.5884,-2.5773,-2.5465,-2.536,-2.548,-2.5405,-2.4881,-2.4283,-2.3729,-2.358,-4.1153,-4.1356,-4.2699,-4.3301,-4.3217,-4.2523,-4.188,-4.1305,-4.1847,-4.1728,-4.1136,-4.1085,-4.0663,-4.018,-4.0113,-4.0214,-4.04,-4.0434,-4.0832,-4.1255,-4.1085,-4.1559,-4.2151,-4.1711,-4.1847,-4.2134,-4.2269,-4.2202,-4.1982,-4.1525,-4.1119,-4.1102,-4.0426,-4.0113,-4.0113,-4.0113,-4.0113,-4.0113,-4.0113,-4.0113,-4.0113,-4.0113,-4.0113,-4.0113,-4.0096,-3.9926,-3.974,-3.93,-3.865,-3.7669,-3.6857,-3.6265,-3.6721,-3.6694,-3.6299,-3.5943,-3.5735,-3.5616,-3.5616,-3.5616,-3.5616,-3.5616,-3.5616,-3.5616,-3.5616,-3.5616,-3.5616,-3.5616,-3.5346,-3.5318,-3.5177,-3.5143,-3.5059,-3.494,-3.4726,-3.459,-3.4467,-3.4061,-3.3791,-3.3803,-3.3469,-3.2612,-3.1566,-3.0672,-2.9824,-2.9408,-2.8859,-2.8173,-2.7826,-2.8,-2.8015,-2.7944,-2.7384,-2.6941,-2.7126,-2.7076,-2.6847,-2.6752,-2.6752,-2.6886,-2.7165,-2.736,-2.7555,-2.7151,-2.6722,-2.6881,-2.6791,-2.6477,-2.6168,-2.6078,-2.5914,-2.548,-2.4926,-2.4373,-2.3834,-4.0679,-4.1288,-4.2185,-4.2557,-4.2472,-4.1779,-4.1373,-4.117,-4.0756,-4.0587,-4.0383,-4.0367,-4.0316,-4.0146,-4.0113,-4.0282,-4.0646,-4.035,-4.0959,-4.117,-4.1018,-4.1644,-4.2506,-4.1847,-4.2016,-4.2574,-4.2625,-4.1999,-4.1711,-4.1339,-4.0899,-4.0443,-4.0113,-4.0113,-4.0113,-4.0113,-4.0113,-4.0113,-4.0113,-4.0113,-4.0113,-4.0113,-4.0113,-4.0113,-4.0096,-3.9825,-3.9571,-3.9174,-3.8565,-3.7838,-3.7195,-3.733,-3.8091,-3.7303,-3.6795,-3.6451,-3.587,-3.5667,-3.5616,-3.5616,-3.5616,-3.5616,-3.5616,-3.5616,-3.5616,-3.5616,-3.5616,-3.5616,-3.5616,-3.5616,-3.5616,-3.5616,-3.56,-3.5498,-3.5414,-3.5498,-3.5583,-3.5211,-3.4788,-3.4585,-3.4404,-3.3572,-3.2508,-3.1609,-3.0728,-3.0102,-2.9605,-2.9,-2.831,-2.8181,-2.8271,-2.8168,-2.774,-2.7472,-2.7661,-2.7655,-2.7334,-2.7285,-2.73,-2.745,-2.7585,-2.7585,-2.7585,-2.757,-2.742,-2.739,-2.736,-2.736,-2.7106,-2.6821,-2.6542,-2.6168,-2.5914,-2.5435,-2.4582,-4.0324,-4.0773,-4.1136,-4.1508,-4.1644,-4.1018,-4.0696,-4.0629,-4.0282,-4.0113,-4.0113,-4.0113,-4.0113,-4.0113,-4.0113,-4.0248,-4.0646,-4.0316,-4.079,-4.1119,-4.1288,-4.1999,-4.2117,-4.1897,-4.21,-4.2489,-4.2134,-4.1644,-4.1474,-4.1288,-4.0916,-4.0493,-4.035,-4.0113,-4.0113,-4.0113,-4.0113,-4.0113,-4.0113,-4.0113,-4.0113,-4.0113,-4.0113,-4.0113,-4.0011,-3.9774,-3.9723,-3.9445,-3.9039,-3.8599,-3.8091,-3.7601,-3.7872,-3.7499,-3.6907,-3.6332,-3.5842,-3.5616,-3.5616,-3.5616,-3.5616,-3.5616,-3.5616,-3.5616,-3.5616,-3.5616,-3.5616,-3.5616,-3.5616,-3.5616,-3.5616,-3.5616,-3.5616,-3.5549,-3.5532,-3.5566,-3.56,-3.5447,-3.5245,-3.5177,-3.4891,-3.4354,-3.3431,-3.285,-3.1943,-3.092,-3.0411,-2.9877,-2.9177,-2.8547,-2.8577,-2.8543,-2.8214,-2.779,-2.7665,-2.7735,-2.772,-2.772,-2.7869,-2.769,-2.766,-2.7615,-2.7585,-2.757,-2.757,-2.7555,-2.757,-2.7585,-2.7585,-2.73,-2.7121,-2.6901,-2.6647,-2.6333,-2.557,-4.0113,-4.0113,-4.013,-4.0485,-4.0916,-4.0417,-4.013,-4.013,-4.0113,-4.0113,-4.0113,-4.0113,-4.0113,-4.0113,-4.0113,-4.0113,-4.0113,-4.0146,-4.0637,-4.0865,-4.095,-4.1576,-4.1813,-4.1745,-4.1644,-4.1508,-4.1271,-4.1441,-4.1602,-4.1187,-4.0849,-4.0882,-4.0561,-4.0113,-4.0113,-4.0113,-4.0113,-4.0113,-4.0113,-4.0113,-4.0113,-4.0113,-4.0113,-4.0113,-4.0113,-4.0113,-4.0113,-3.9994,-3.9673,-3.9453,-3.9056,-3.8684,-3.8261,-3.8058,-3.7297,-3.6664,-3.6146,-3.587,-3.565,-3.5616,-3.5616,-3.5616,-3.5616,-3.5616,-3.5616,-3.5819,-3.5819,-3.5842,-3.5842,-3.5825,-3.5825,-3.5819,-3.5819,-3.5633,-3.5633,-3.5616,-3.5616,-3.5616,-3.56,-3.556,-3.5177,-3.471,-3.4263,-3.3716,-3.2813,-3.182,-3.1166,-3.0651,-3.0096,-2.954,-2.925,-2.916,-2.8936,-2.8494,-2.81,-2.8115,-2.8304,-2.8438,-2.8543,-2.8079,-2.7794,-2.7989,-2.7944,-2.7585,-2.7585,-2.76,-2.76,-2.7585,-2.7585,-2.7585,-2.7465,-2.7255,-2.7106,-2.6791,-2.6408,-4.0113,-4.0113,-4.0113,-4.0214,-4.0299,-4.0163,-4.0113,-4.0113,-4.0113,-4.0113,-4.0113,-4.0113,-4.0113,-4.0113,-4.0113,-4.0113,-4.0113,-4.0113,-4.0113,-4.0299,-4.0468,-4.0984,-4.1322,-4.1204,-4.0603,-4.0502,-4.0553,-4.0502,-4.0942,-4.062,-4.0333,-4.035,-4.0333,-4.0113,-4.0113,-4.0113,-4.0113,-4.0113,-4.0113,-4.0113,-4.0113,-4.0113,-4.0113,-4.0113,-4.0113,-4.0113,-4.0113,-4.0113,-4.0028,-3.9943,-3.9808,-3.9537,-3.9165,-3.87,-3.8058,-3.733,-3.6772,-3.6265,-3.6062,-3.5836,-3.5802,-3.5616,-3.5616,-3.5616,-3.5904,-3.658,-3.658,-3.6586,-3.6569,-3.6524,-3.6524,-3.6569,-3.6535,-3.596,-3.5684,-3.5633,-3.5616,-3.5616,-3.56,-3.5385,-3.5071,-3.4705,-3.4394,-3.3656,-3.2744,-3.1979,-3.172,-3.116,-3.0331,-3.0068,-2.9924,-2.9819,-2.9699,-2.9549,-2.9322,-2.9049,-2.9127,-2.9262,-2.922,-2.8846,-2.8648,-2.8618,-2.8483,-2.8169,-2.7779,-2.763,-2.7615,-2.772,-2.7585,-2.7585,-2.7585,-2.7495,-2.7375,-2.724,-2.6911]},{"header":{"parameterUnit":"m.s-1","parameterCategory":1,"la1":31.0,"la2":29.5877,"lo1":-88.7671,"lo2":-86.6584,"dy":0.0162,"dx":0.0185,"nx":115,"ny":88,"refTime":"2024-04-30T18:00:00:Z","depth":0,"parameterNumber":3,"parameterNumberName":"V-component_of_WINDS"},"data":[0.0,0.0,0.0,0.0,0.0,0.0,0.0,0.0,0.0,0.0,0.0,0.0,0.0,0.0,0.0,0.0,0.0,0.0,0.0,0.0,0.0,0.0,0.0,0.0,0.0,0.0,0.0,0.0,0.0,0.0,0.0,0.0,0.0,0.0,0.0,0.0,0.0,0.0,0.0,0.0,0.0,0.0,0.0,0.0,0.0,0.0,0.0,0.0,0.0,0.0,0.0,0.0,0.0,0.0,0.0,0.0,0.0,0.0,0.0,0.0,0.0,0.0,0.0,0.0,0.0,0.0,0.0,0.0,0.0,0.0,0.0,0.0,0.0,0.0,0.0,0.0,0.0,0.0,0.0,0.0,0.0,0.0,0.0,0.0,0.0,0.0,0.0,0.0,0.0,0.0,0.0,0.0,0.0,0.0,0.0,0.0,0.0,0.0,0.0,0.0,0.0,0.0,0.0,0.0,0.0,0.0,0.0,0.0,0.0,0.0,0.0,0.0,0.0,0.0,0.0,0.0,0.0,0.0,0.0,0.0,0.0,0.0,0.0,0.0,0.0,0.0,0.0,0.0,0.0,0.0,0.0,0.0,0.0,0.0,0.0,0.0,0.0,0.0,0.0,0.0,0.0,0.0,0.0,0.0,0.0,0.0,0.0,0.0,0.0,0.0,0.0,0.0,0.0,0.0,0.0,0.0,0.0,0.0,0.0,0.0,0.0,0.0,0.0,0.0,0.0,0.0,0.0,0.0,0.0,0.0,0.0,0.0,0.0,0.0,0.0,0.0,0.0,0.0,0.0,0.0,0.0,0.0,0.0,0.0,0.0,0.0,0.0,0.0,0.0,0.0,0.0,0.0,0.0,0.0,0.0,0.0,0.0,0.0,0.0,0.0,0.0,0.0,0.0,0.0,0.0,0.0,0.0,0.0,0.0,0.0,0.0,0.0,0.0,0.0,0.0,0.0,0.0,0.0,0.0,0.0,0.0,0.0,0.0,0.0,0.0,0.0,0.0,0.0,0.0,0.0,0.0,0.0,0.0,0.0,0.0,0.0,0.0,0.0,0.0,0.0,0.0,0.0,0.0,0.0,0.0,0.0,0.0,0.0,0.0,0.0,0.0,0.0,0.0,0.0,0.0,0.0,0.0,0.0,0.0,0.0,0.0,0.0,0.0,0.0,0.0,0.0,0.0,0.0,0.0,0.0,0.0,0.0,0.0,0.0,0.0,0.0,0.0,0.0,0.0,0.0,0.0,0.0,0.0,0.0,0.0,0.0,0.0,0.0,0.0,0.0,0.0,0.0,0.0,0.0,0.0,0.0,0.0,0.0,0.0,0.0,0.0,0.0,0.0,0.0,0.0,0.0,0.0,0.0,0.0,0.0,0.0,0.0,0.0,0.0,0.0,0.0,0.0,0.0,0.0,0.0,0.0,0.0,0.0,0.0,0.0,0.0,0.0,0.0,0.0,0.0,0.0,0.0,0.0,0.0,0.0,0.0,0.0,0.0,0.0,0.0,0.0,0.0,0.0,0.0,0.0,0.0,0.0,0.0,0.0,0.0,0.0,0.0,0.0,0.0,0.0,0.0,0.0,0.0,0.0,0.0,0.0,0.0,0.0,0.0,0.0,0.0,0.0,0.0,0.0,0.0,0.0,0.0,0.0,0.0,0.0,0.0,0.0,0.0,0.0,0.0,0.0,0.0,0.0,0.0,0.0,0.0,0.0,0.0,0.0,0.0,0.0,0.0,0.0,0.0,0.0,0.0,0.0,0.0,0.0,0.0,0.0,0.0,0.0,0.0,0.0,0.0,0.0,0.0,0.0,0.0,0.0,0.0,0.0,0.0,0.0,0.0,0.0,0.0,0.0,0.0,0.0,0.0,0.0,0.0,0.0,0.0,0.0,0.0,0.0,0.0,0.0,0.0,0.0,0.0,0.0,0.0,0.0,0.0,0.0,0.0,0.0,0.0,0.0,0.0,0.0,0.0,0.0,0.0,0.0,0.0,0.0,0.0,0.0,0.0,0.0,0.0,0.0,0.0,0.0,0.0,0.0,0.0,0.0,0.0,0.0,0.0,0.0,0.0,0.0,0.0,0.0,0.0,0.0,0.0,0.0,0.0,0.0,0.0,0.0,0.0,0.0,0.0,0.0,0.0,0.0,0.0,0.0,0.0,0.0,0.0,0.0,0.0,0.0,0.0,0.0,0.0,0.0,0.0,0.0,0.0,0.0,0.0,0.0,0.0,0.0,0.0,0.0,0.0,0.0,0.0,0.0,0.0,0.0,0.0,0.0,0.0,0.0,0.0,0.0,0.0,0.0,0.0,0.0,0.0,0.0,0.0,0.0,0.0,0.0,0.0,0.0,0.0,0.0,0.0,0.0,0.0,0.0,0.0,0.0,0.0,0.0,0.0,0.0,0.0,0.0,0.0,0.0,0.0,0.0,0.0,0.0,0.0,0.0,0.0,0.0,0.0,0.0,0.0,0.0,0.0,0.0,0.0,0.0,0.0,0.0,0.0,0.0,0.0,0.0,0.0,0.0,0.0,0.0,0.0,0.0,0.0,0.0,0.0,0.0,0.0,0.0,0.0,0.0,0.0,0.0,0.0,0.0,0.0,0.0,0.0,0.0,0.0,0.0,0.0,0.0,0.0,0.0,0.0,0.0,0.0,0.0,0.0,0.0,0.0,0.0,0.0,0.0,0.0,0.0,0.0,0.0,0.0,0.0,0.0,0.0,0.0,0.0,0.0,0.0,0.0,0.0,0.0,0.0,0.0,0.0,0.0,0.0,0.0,0.0,0.0,0.0,0.0,0.0,0.0,0.0,0.0,0.0,0.0,0.0,0.0,0.0,0.0,0.0,0.0,0.0,0.0,0.0,0.0,0.0,0.0,0.0,0.0,0.0,0.0,0.0,0.0,0.0,0.0,0.0,0.0,0.0,0.0,0.0,0.0,0.0,0.0,0.0,0.0,0.0,0.0,0.0,0.0,0.0,0.0,0.0,0.0,0.0,0.0,0.0,0.0,0.0,0.0,0.0,0.0,0.0,0.0,0.0,0.0,0.0,0.0,0.0,0.0,0.0,0.0,0.0,0.0,0.0,0.0,0.0,0.0,0.0,0.0,0.0,0.0,0.0,0.0,0.0,0.0,0.0,0.0,0.0,0.0,0.0,0.0,0.0,0.0,0.0,0.0,0.0,0.0,0.0,0.0,0.0,0.0,0.0,0.0,0.0,0.0,0.0,0.0,0.0,0.0,0.0,0.0,0.0,0.0,0.0,0.0,0.0,0.0,0.0,0.0,0.0,0.0,0.0,0.0,0.0,0.0,0.0,0.0,0.0,0.0,0.0,0.0,0.0,0.0,0.0,0.0,0.0,0.0,0.0,0.0,0.0,0.0,0.0,0.0,0.0,0.0,0.0,0.0,0.0,0.0,0.0,0.0,0.0,0.0,0.0,0.0,0.0,0.0,0.0,0.0,0.0,0.0,0.0,0.0,0.0,0.0,0.0,0.0,0.0,0.0,0.0,0.0,0.0,0.0,0.0,0.0,0.0,0.0,0.0,0.0,0.0,0.0,0.0,0.0,0.0,0.0,0.0,0.0,0.0,0.0,0.0,0.0,0.0,0.0,0.0,0.0,0.0,0.0,0.0,0.0,0.0,0.0,0.0,0.0,0.0,0.0,0.0,0.0,0.0,0.0,0.0,0.0,0.0,0.0,0.0,0.0,0.0,0.0,0.0,0.0,0.0,0.0,0.0,0.0,0.0,0.0,0.0,0.0,0.0,0.0,0.0,0.0,0.0,0.0,0.0,0.0,0.0,0.0,0.0,0.0,0.0,0.0,0.0,0.0,0.0,0.0,0.0,0.0,0.0,0.0,0.0,0.0,0.0,0.0,0.0,0.0,0.0,0.0,0.0,0.0,0.0,0.0,0.0,0.0,0.0,0.0,0.0,0.0,0.0,0.0,0.0,0.0,0.0,0.0,0.0,0.0,0.0,0.0,0.0,0.0,0.0,0.0,0.0,0.0,0.0,0.0,0.0,0.0,0.0,0.0,0.0,0.0,0.0,0.0,0.0,0.0,0.0,0.0,0.0,0.0,0.0,0.0,0.0,0.0,0.0,0.0,0.0,0.0,0.0,0.0,0.0,0.0,0.0,0.0,0.0,0.0,0.0,0.0,0.0,0.0,0.0,0.0,0.0,0.0,0.0,0.0,0.0,0.0,0.0,0.0,0.0,0.0,0.0,0.0,0.0,0.0,0.0,0.0,0.0,0.0,0.0,0.0,0.0,0.0,0.7715,0.0,0.0,0.0,0.0,0.0,0.0,0.0,0.0,0.0,0.0,0.0,0.0,0.0,0.0,0.0,0.0,0.0,0.0,0.0,0.0,0.0,0.0,0.0,0.0,0.0,0.0,0.0,0.0,0.0,0.0,0.0,0.0,0.0,0.0,0.0,0.0,0.0,0.0,0.0,0.0,0.0,0.0,0.0,0.0,0.0,0.0,0.0,0.0,0.0,0.0,0.0,0.0,0.0,0.0,0.0,0.0,0.0,0.0,0.0,0.0,0.0,0.0,0.0,0.0,0.0,0.0,0.0,0.0,0.0,0.0,0.0,0.0,0.0,0.0,0.0,0.0,0.0,0.0,0.0,0.0,0.0,0.0,0.0,0.0,0.0,0.0,0.0,0.0,0.0,0.0,0.0,0.0,0.0,0.0,0.0,0.0,0.0,0.0,0.0,0.0,0.0,0.0,0.0,0.0,0.0,0.0,0.0,0.0,0.0,0.0,0.7695,0.7695,0.7695,0.7802,0.8086,0.0,0.0,0.0,0.0,0.0,0.0,0.0,0.0,0.0,0.0,0.0,0.0,0.0,0.0,0.0,0.0,0.0,0.0,0.0,0.0,0.0,0.0,0.0,0.0,0.0,0.0,0.0,0.0,0.0,0.0,0.0,0.0,0.0,0.0,0.0,0.0,0.0,0.0,0.0,0.0,0.0,0.0,0.0,0.0,0.0,0.0,0.0,0.0,0.0,0.0,0.0,0.0,0.0,0.0,0.0,0.0,0.0,0.0,0.0,0.0,0.0,0.0,0.0,0.0,0.0,0.0,0.0,0.0,0.0,0.0,0.0,0.0,0.0,0.0,0.0,0.0,0.0,0.0,0.0,0.0,0.0,0.0,0.0,0.0,0.0,0.0,0.0,0.0,0.0,0.0,0.0,0.0,0.0,0.0,0.0,0.0,0.0,0.0,0.0,0.0,0.0,0.0,0.0,0.0,0.0,0.0,0.0,0.0,0.0,0.0,0.0,0.0,0.7987,0.8271,0.8815,0.0,0.0,0.0,0.0,0.0,0.0,0.0,0.0,0.0,0.0,0.0,0.0,0.0,0.0,0.0,0.0,0.0,0.0,0.0,0.0,0.0,0.0,0.0,0.0,0.0,0.0,0.0,0.0,0.0,0.0,0.0,0.0,0.0,0.0,0.0,0.0,0.0,0.0,0.0,0.0,0.0,0.0,0.0,0.0,0.0,0.0,0.0,0.0,0.0,0.0,0.0,0.0,0.0,0.0,0.0,0.0,0.0,0.0,0.0,0.0,0.0,0.0,0.0,0.0,0.0,0.0,0.0,0.0,0.0,0.0,0.0,0.0,0.0,0.0,0.0,0.0,0.0,0.0,0.0,0.0,0.0,0.0,0.0,0.0,0.0,0.0,0.0,0.0,0.0,0.0,0.0,0.0,0.0,0.0,0.0,0.0,0.0,0.0,0.0,0.0,0.0,0.0,0.0,0.0,0.0,0.0,0.0,0.0,0.0,0.0,0.808,0.8857,0.886,0.0,1.0048,0.0,0.0,0.0,0.0,0.0,0.0,0.0,0.0,0.0,0.0,0.0,0.0,0.0,0.0,0.0,0.0,0.0,0.0,0.0,0.0,0.0,0.0,0.0,0.0,0.0,0.0,0.0,0.0,0.0,0.0,0.0,0.0,0.0,0.0,0.0,0.0,0.0,0.0,0.0,0.0,0.0,0.0,0.0,0.0,0.0,0.0,0.0,0.0,0.0,0.0,0.0,0.0,0.0,0.0,0.0,0.0,0.0,0.0,0.0,0.0,0.0,0.0,0.0,0.0,0.0,0.0,0.0,0.0,0.0,0.0,0.0,0.0,0.0,0.0,0.0,0.0,0.0,0.0,0.0,0.0,0.0,0.0,0.0,0.0,0.0,0.0,0.0,0.0,0.0,0.0,0.0,0.0,0.0,0.0,0.0,0.0,0.0,0.0,0.0,0.0,0.0,0.0,0.0,0.0,0.0,0.0,0.0,0.0,0.0,0.0,0.8119,0.8994,0.9231,0.9406,0.0,0.0,0.0,0.0,0.0,0.0,0.0,0.0,0.0,0.0,0.0,0.0,0.0,0.0,0.0,0.0,0.0,0.0,0.0,0.0,0.0,0.0,0.0,0.0,0.0,0.0,0.0,0.0,0.0,0.0,0.0,0.0,0.0,0.0,0.0,0.0,0.0,0.0,0.0,0.0,0.0,0.0,0.0,0.0,0.0,0.0,0.0,0.0,0.0,0.0,0.0,0.0,0.0,0.0,0.0,0.0,0.0,0.0,0.0,0.0,0.0,0.0,0.0,0.0,0.0,0.0,0.0,0.0,0.0,0.0,0.0,0.0,0.0,0.0,0.0,0.0,0.0,0.0,0.0,0.0,0.0,0.0,0.0,0.0,0.0,0.0,0.0,0.0,0.0,0.0,0.0,0.0,0.0,0.0,0.0,0.0,0.0,0.0,0.0,0.0,0.0,0.0,0.0,0.0,0.0,0.0,0.0,0.0,0.0,0.0,0.8012,0.8353,0.9277,0.9182,0.9096,0.9162,0.0,0.0,0.0,0.0,0.0,0.0,0.0,0.0,0.0,0.0,0.0,0.0,0.0,0.0,0.0,0.0,0.0,0.0,0.0,0.0,0.0,0.0,0.0,0.0,0.0,0.0,0.0,0.0,0.0,0.0,0.0,0.0,0.0,0.0,0.0,0.0,0.0,0.0,0.0,0.0,0.0,0.0,0.0,0.0,0.0,0.0,0.0,0.0,0.0,0.0,0.0,0.0,0.0,0.0,0.0,0.0,0.0,0.0,0.0,0.0,0.0,0.0,0.0,0.0,0.0,0.0,0.0,0.0,0.0,0.0,0.0,0.0,0.0,0.0,0.0,0.0,0.0,0.0,0.0,0.0,0.0,0.0,0.0,0.0,0.0,0.0,0.0,0.0,0.0,0.0,0.0,0.0,0.0,0.0,0.0,0.0,0.0,0.0,0.0,0.0,0.0,0.0,0.0,0.0,0.0,0.0,0.0,0.0,0.9387,0.874,0.8952,1.0107,0.8652,0.8337,0.0,0.0,0.0,0.0,0.0,0.0,0.0,0.0,0.0,0.0,0.0,0.0,0.0,0.0,0.0,0.0,0.0,0.0,0.0,0.0,0.0,0.0,0.0,0.0,0.0,0.0,0.0,0.0,0.0,0.0,0.0,0.0,0.0,0.0,0.0,0.0,0.0,0.0,0.0,0.0,0.0,0.0,0.0,0.0,0.0,0.0,0.0,0.0,0.0,0.0,0.0,0.0,0.0,0.0,0.0,0.0,0.0,0.0,0.0,0.0,0.0,0.0,0.0,0.0,0.0,0.0,0.0,0.0,0.0,0.0,0.0,0.0,0.0,0.0,0.0,0.0,0.0,0.0,0.0,0.0,0.0,0.0,0.0,0.0,0.0,0.0,0.0,0.0,0.0,0.0,0.0,0.0,0.0,0.0,0.0,0.0,0.0,0.0,0.0,0.0,0.0,0.0,0.0,0.0,0.0,0.0,0.0,0.0,0.0,0.7568,0.8096,0.8473,0.8616,0.8548,0.8753,0.0,0.0,0.0,0.0,0.0,0.0,0.0,0.0,0.0,0.0,0.0,0.0,0.0,0.0,0.0,0.0,0.0,0.0,0.0,0.0,0.0,0.0,0.0,0.0,0.0,0.0,0.0,0.0,0.0,0.0,0.0,0.0,0.0,0.0,0.0,0.0,0.0,0.0,0.0,0.0,0.0,0.0,0.0,0.0,0.0,0.0,0.0,0.0,0.0,0.0,0.0,0.0,0.0,0.0,0.0,0.0,0.0,0.0,0.0,0.0,0.0,0.0,0.0,0.0,0.0,0.0,0.0,0.0,0.0,0.0,0.0,0.0,0.0,0.0,0.0,0.0,0.0,0.0,0.0,0.0,0.0,0.0,0.0,0.0,0.0,0.0,0.0,0.0,0.0,0.0,0.0,0.0,0.0,0.0,0.0,0.0,0.0,0.0,0.0,0.0,0.0,0.0,0.0,0.0,0.0,0.0,0.0,0.0,0.0,0.708,0.0,0.8622,0.8331,0.8643,0.874,0.0,0.0,0.0,0.0,0.0,0.0,0.0,0.0,0.0,0.0,0.0,0.0,0.0,0.0,0.0,0.0,0.0,0.0,0.0,0.0,0.0,0.0,0.0,0.0,0.0,0.0,0.0,0.0,0.0,0.0,0.0,0.0,0.0,0.0,0.0,0.0,0.0,0.0,0.0,0.0,0.0,0.0,0.0,0.0,0.0,0.0,0.0,0.0,0.0,0.0,0.0,0.0,0.0,0.0,0.0,0.0,0.0,0.0,0.0,0.0,0.0,0.0,0.0,0.0,0.0,0.0,0.0,0.0,0.0,0.0,0.0,0.0,0.0,0.0,0.0,0.0,0.0,0.0,0.0,0.0,0.0,0.0,0.0,0.0,0.0,0.0,0.0,0.0,0.0,0.0,0.0,0.0,0.0,0.0,0.0,0.0,0.0,0.0,0.0,0.0,0.0,0.0,0.0,0.0,0.0,0.0,0.0,0.0,0.702,0.8291,0.9059,0.944,0.9555,0.8789,0.8193,0.0,0.0,0.0,0.0,0.0,0.0,0.0,0.0,0.0,0.0,0.0,0.0,0.0,0.0,0.0,0.0,0.0,0.0,0.0,0.0,0.0,0.0,0.0,0.0,0.0,0.0,0.0,0.0,0.0,0.0,0.0,0.0,0.0,0.0,0.0,0.0,0.0,0.0,0.0,0.0,0.0,0.0,0.0,0.0,0.0,0.0,0.0,0.0,0.0,0.0,0.0,0.0,0.0,0.0,0.0,0.0,0.0,0.0,0.0,0.0,0.0,0.0,0.0,0.0,0.0,0.0,0.0,0.0,0.0,0.0,0.0,0.0,0.0,0.0,0.0,0.0,0.0,0.0,0.0,0.0,0.0,0.0,0.0,0.0,0.0,0.0,0.0,0.0,0.0,0.0,0.0,0.0,0.0,0.0,0.0,0.0,0.0,0.0,0.0,0.0,0.0,0.0,0.0,0.0,0.0,0.0,0.0,0.0,0.0,0.6638,0.799,0.8879,0.9143,0.8363,0.8418,0.0,0.0,0.0,0.0,0.0,0.0,0.0,0.0,0.0,0.0,0.0,0.0,0.0,0.0,0.0,0.0,0.0,0.0,0.0,0.0,0.0,0.0,0.0,0.0,0.0,0.0,0.0,0.0,0.0,0.0,0.0,0.0,0.0,0.0,0.0,0.0,0.0,0.0,0.0,0.0,0.0,0.0,0.0,0.0,0.0,0.0,0.0,0.0,0.0,0.0,0.0,0.0,0.0,0.0,0.0,0.0,0.0,0.0,0.0,0.0,0.0,0.0,0.0,0.0,0.0,0.0,0.0,0.0,0.0,0.0,0.0,0.0,0.0,0.0,0.0,0.0,0.0,0.0,0.0,0.0,0.0,0.0,0.0,0.0,0.0,0.0,0.0,0.0,0.0,0.0,0.0,0.0,0.0,0.0,0.0,0.0,0.0,0.0,0.0,0.0,0.0,0.0,0.0,0.0,0.0,0.0,0.0,0.0,0.0,0.7041,0.7978,0.8664,0.9022,0.8554,0.8691,0.9549,0.0,0.0,0.0,0.0,0.0,0.0,0.0,0.0,0.0,0.0,0.0,0.0,0.0,0.0,0.0,0.0,0.0,0.0,0.0,0.0,0.0,0.0,0.0,0.0,0.0,0.0,0.0,0.0,0.0,0.0,0.0,0.0,0.0,0.0,0.0,0.0,0.0,0.0,0.0,0.0,0.0,0.0,0.0,0.0,0.0,0.0,0.0,0.0,0.0,0.0,0.0,0.0,0.0,0.0,0.0,0.0,0.0,0.0,0.0,0.0,0.0,0.0,0.0,0.0,0.0,0.0,0.0,0.0,0.0,0.0,0.0,0.0,0.0,0.0,0.0,0.0,0.0,0.0,0.0,0.0,0.0,0.0,0.0,0.0,0.0,0.0,0.0,0.0,0.0,0.0,0.0,0.0,0.0,0.0,0.0,0.0,0.0,0.0,0.0,0.0,0.0,0.0,0.0,0.0,0.0,0.0,0.0,0.0,0.9009,0.8868,0.8989,0.9345,0.9355,0.9114,0.0,0.0,0.0,0.0,0.0,0.0,0.0,0.0,0.0,0.0,0.0,0.0,0.0,0.0,0.0,0.0,0.0,0.0,0.0,0.0,0.0,0.0,0.0,0.0,0.0,0.0,0.0,0.0,0.0,0.0,0.0,0.0,0.0,0.0,0.0,0.0,0.0,0.0,0.0,0.0,0.0,0.0,0.0,0.0,0.0,0.0,0.0,0.0,0.0,0.0,0.0,0.0,0.0,0.0,0.0,0.0,0.0,0.0,0.0,0.0,0.0,0.0,0.0,0.0,0.0,0.0,0.0,0.0,0.0,0.0,0.0,0.0,0.0,0.0,0.0,0.0,0.0,0.0,0.0,0.0,0.0,0.0,0.0,0.0,0.0,0.0,0.0,0.0,0.0,0.0,0.0,0.0,0.0,0.0,0.0,0.0,0.0,0.0,0.0,0.0,0.0,0.0,0.0,0.0,0.0,0.0,0.0,0.0,0.0,0.9004,0.9726,1.0684,1.1832,1.0708,1.0262,0.0,0.0,0.0,0.0,0.0,0.0,0.0,0.0,0.0,0.0,0.0,0.0,0.0,0.0,0.0,0.0,0.0,0.0,0.0,0.0,0.0,0.0,0.0,0.0,0.0,0.0,0.0,0.0,0.0,0.0,0.0,0.0,0.0,0.0,0.0,0.0,0.0,0.0,0.0,0.0,0.0,0.0,0.0,0.0,0.0,0.0,0.0,0.0,0.0,0.0,0.0,0.0,0.0,0.0,0.0,0.0,0.0,0.0,0.0,0.0,0.0,0.0,0.0,0.0,0.0,0.0,0.0,0.0,0.0,0.0,0.0,0.0,0.0,0.0,0.0,0.0,0.0,0.0,0.0,0.0,0.0,0.0,0.0,0.0,0.0,0.0,0.0,0.0,0.0,0.0,0.0,0.0,0.0,0.0,0.0,0.0,0.0,0.0,0.0,0.0,0.0,0.0,0.0,0.0,0.0,0.0,0.0,0.0,0.8892,0.9862,1.0809,1.2042,1.3624,1.206,1.1126,0.0,0.0,0.0,0.0,0.0,0.0,0.0,0.0,0.0,0.0,0.0,0.0,0.0,0.0,0.0,0.0,0.0,0.0,0.0,0.0,0.0,0.0,0.0,0.0,0.0,0.0,0.0,0.0,0.0,0.0,0.0,0.0,0.0,0.0,0.0,0.0,0.0,0.0,0.0,0.0,0.0,0.0,0.0,0.0,0.0,0.0,0.0,0.0,0.0,0.0,0.0,0.0,0.0,0.0,0.0,0.0,0.0,0.0,0.0,0.0,0.0,0.0,0.0,0.0,0.0,0.0,0.0,0.0,0.0,0.0,0.0,0.0,0.0,0.0,0.0,0.0,0.0,0.0,0.0,0.0,0.0,0.0,0.0,0.0,0.0,0.0,0.0,0.0,0.0,0.0,0.0,0.0,0.0,0.0,0.0,0.0,0.0,0.0,0.0,0.0,0.0,0.0,0.0,0.0,0.0,0.0,0.0,0.0,0.9738,1.1074,1.1879,1.306,1.4573,1.3229,1.1843,0.0,0.0,0.0,0.0,0.0,0.0,0.0,0.0,0.0,0.0,0.0,0.0,0.0,0.0,0.0,0.0,0.0,0.0,0.0,0.0,0.0,0.0,0.0,0.0,0.0,0.0,0.0,0.0,0.0,0.0,0.0,0.0,0.0,0.0,0.0,0.0,0.0,0.0,0.0,0.0,0.0,0.0,0.0,0.0,0.0,0.0,0.0,0.0,0.0,0.0,0.0,0.0,0.0,0.0,0.0,0.0,0.0,0.0,0.0,0.0,0.0,0.0,0.0,0.0,0.0,0.0,0.0,0.0,0.0,0.0,0.0,0.0,0.0,0.0,0.0,0.0,0.0,0.0,0.0,0.0,0.0,0.0,0.0,0.0,0.0,0.0,0.0,0.0,0.0,0.0,0.0,0.0,0.0,0.0,0.0,0.0,0.0,0.0,0.0,0.0,0.0,0.0,0.0,0.0,0.0,0.0,0.0,0.0,0.9578,1.1069,1.2298,1.35,1.4653,1.336,1.2546,0.0,0.0,0.0,0.0,0.0,0.0,0.0,0.0,0.0,0.0,0.0,0.0,0.0,0.0,0.0,0.0,0.0,0.0,0.0,0.0,0.0,0.0,0.0,0.0,0.0,0.0,0.0,0.0,0.0,0.0,0.0,0.0,0.0,0.0,0.0,0.0,0.0,0.0,0.0,0.0,0.0,0.0,0.0,0.0,0.0,0.0,0.0,0.0,0.7695,0.0,0.0,0.0,0.0,0.0,0.0,0.0,0.0,0.0,0.0,0.0,0.0,0.0,0.0,0.0,0.0,0.0,0.0,0.0,0.0,0.0,0.0,0.0,0.0,0.0,0.0,0.0,0.0,0.0,0.0,0.0,0.0,0.0,0.0,0.0,0.0,0.0,0.0,0.0,0.0,0.0,0.0,0.0,0.0,0.0,0.0,0.0,0.0,0.0,0.0,0.0,0.0,0.0,0.0,0.0,0.0,0.0,0.0,0.0,0.9455,1.061,1.1958,1.3036,1.3762,1.3293,1.2995,0.0,0.0,0.0,0.0,0.0,0.0,0.0,0.0,0.0,0.0,0.0,0.0,0.0,0.0,0.0,0.0,0.0,0.0,0.0,0.0,0.0,0.0,0.0,0.0,0.0,0.0,0.0,0.0,0.0,0.0,0.0,0.0,0.0,0.0,0.0,0.0,0.0,0.0,0.0,0.0,0.0,0.0,0.0,0.0,0.0,0.0,0.0,0.0,0.0,0.0,0.0,0.0,0.0,0.0,0.0,0.0,0.0,0.0,0.0,0.0,0.0,0.0,0.0,0.0,0.0,0.0,0.0,0.0,0.0,0.0,0.0,0.0,0.0,0.0,0.0,0.0,0.0,0.0,0.0,0.0,0.0,0.0,0.0,0.0,0.0,0.0,0.0,0.0,0.0,0.0,0.0,0.0,0.0,0.0,0.0,0.0,0.0,0.0,0.0,0.0,0.0,0.0,0.0,0.0,0.0,0.0,0.0,0.896,0.9553,1.0518,1.174,1.264,1.3199,1.3386,1.335,1.3012,0.0,0.0,0.0,0.0,0.0,0.0,0.0,0.0,0.0,0.0,0.0,0.0,0.0,0.0,0.0,0.0,0.0,0.0,0.0,0.0,0.0,0.0,0.0,0.0,0.0,0.0,0.0,0.0,0.0,0.0,0.0,0.0,0.0,0.0,0.0,0.0,0.0,0.0,0.6058,0.6979,0.0,0.0,0.0,0.0,0.0,0.0,0.0,0.0,0.6816,0.0,0.0,0.0,0.0,0.0,0.0,0.0,0.0,0.0,0.0,0.0,0.0,0.0,0.0,0.0,0.0,0.0,0.0,0.0,0.0,0.0,0.0,0.0,0.0,0.0,0.0,0.0,0.0,0.0,0.0,0.0,0.0,0.0,0.0,0.0,0.0,0.0,0.0,0.0,0.0,0.0,0.0,0.0,0.0,0.0,0.0,0.0,0.0,0.0,0.0,0.0,0.0,0.0,0.0,0.0,0.0,0.845,0.9151,1.0428,1.2302,1.2919,1.3769,1.4903,1.4333,1.3816,1.3437,0.0,0.0,0.0,0.0,0.0,0.0,0.0,0.0,0.0,0.0,0.0,0.0,0.0,0.0,0.0,0.0,0.0,0.0,0.0,0.0,0.0,0.0,0.0,0.0,0.0,0.0,0.0,0.0,0.0,0.0,0.0,0.0,0.0,0.0,0.0,0.0,0.0,0.0,0.0,0.7359,0.7807,0.0,0.0,0.0,0.0,0.0,0.0,0.0,0.0,0.7038,0.0,0.0,0.0,0.0,0.0,0.0,0.0,0.0,0.0,0.0,0.0,0.0,0.0,0.0,0.0,0.0,0.0,0.0,0.0,0.0,0.0,0.0,0.0,0.0,0.0,0.0,0.0,0.0,0.0,0.0,0.0,0.0,0.0,0.0,0.0,0.0,0.0,0.0,0.0,0.0,0.0,0.0,0.0,0.0,0.0,0.0,0.0,0.0,0.0,0.0,0.0,0.0,0.0,0.0,0.0,0.9479,0.9162,0.9963,1.1961,1.2414,1.298,1.3746,1.359,1.3379,0.0,0.0,0.0,0.0,0.0,0.0,0.0,0.0,0.0,0.0,0.0,0.0,0.0,0.0,0.0,0.0,0.0,0.0,0.0,0.0,0.0,0.0,0.0,0.0,0.0,0.0,0.0,0.0,0.0,0.0,0.0,0.0,0.0,0.0,0.0,0.0,0.0,0.0,0.0,0.0,0.7563,0.7695,0.7695,0.0,0.0,0.0,0.0,0.0,0.0,0.7018,0.6748,0.0,0.0,0.0,0.0,0.0,0.0,0.0,0.0,0.0,0.0,0.0,0.0,0.0,0.0,0.0,0.0,0.0,0.0,0.0,0.0,0.0,0.0,0.0,0.0,0.0,0.0,0.0,0.0,0.0,0.0,0.0,0.0,0.0,0.0,0.0,0.0,0.0,0.0,0.0,0.0,0.0,0.0,0.0,0.0,0.0,0.0,0.0,0.0,0.0,0.0,0.0,0.0,0.0,0.0,0.0,0.9959,0.9074,0.9402,1.1075,1.1631,1.2039,1.2333,1.2723,1.2915,0.0,0.0,0.0,0.0,0.0,0.0,0.0,0.0,0.0,0.0,0.0,0.0,0.0,0.0,0.0,0.0,0.0,0.0,0.0,0.0,0.0,0.0,0.0,0.0,0.0,0.0,0.0,0.0,0.0,0.0,0.0,0.0,0.0,0.0,0.0,0.0,0.0,0.0,0.0,0.0,0.0,0.789,0.7725,0.8018,0.0,0.0,0.0,0.0,0.7373,0.7119,0.0,0.0,0.0,0.0,0.0,0.0,0.0,0.0,0.0,0.0,0.0,0.0,0.0,0.0,0.0,0.0,0.0,0.0,0.0,0.0,0.0,0.0,0.0,0.0,0.0,0.0,0.0,0.0,0.0,0.0,0.0,0.0,0.0,0.0,0.0,0.0,0.0,0.0,0.0,0.0,0.0,0.0,0.0,0.0,0.0,0.0,0.0,0.0,0.0,0.0,0.0,0.0,0.0,0.0,0.0,0.0,0.825,0.8815,0.9598,1.0574,1.1438,1.2085,1.2464,1.2738,1.2915,0.0,0.0,0.0,0.0,0.0,0.0,0.0,0.0,0.0,0.0,0.0,0.0,0.0,0.0,0.0,0.0,0.0,0.0,0.0,0.0,0.0,0.0,0.0,0.0,0.0,0.0,0.0,0.0,0.0,0.0,0.0,0.0,0.0,0.0,0.0,0.0,0.0,0.0,0.0,0.0,0.0,0.8568,0.7817,0.7734,0.7905,0.0,0.0,0.8652,0.8307,0.8496,0.0,0.0,0.0,0.0,0.0,0.0,0.0,0.0,0.0,0.0,0.0,0.0,0.0,0.0,0.0,0.0,0.0,0.0,0.0,0.0,0.0,0.0,0.0,0.0,0.0,0.0,0.0,0.0,0.0,0.0,0.0,0.0,0.0,0.0,0.0,0.0,0.0,0.0,0.0,0.0,0.0,0.0,0.0,0.0,0.0,0.0,0.0,0.0,0.0,0.0,0.0,0.0,0.0,0.0,0.0,0.8555,0.9495,0.9212,0.9954,1.1771,1.1835,1.2128,1.272,1.2372,1.2387,0.0,0.0,0.0,0.0,0.0,0.0,0.0,0.0,0.0,0.0,0.0,0.0,0.0,0.0,0.0,0.0,0.0,0.0,0.0,0.0,0.0,0.0,0.0,0.0,0.0,0.0,0.0,0.0,0.0,0.0,0.0,0.0,0.0,0.0,0.0,0.0,0.0,0.0,0.0,0.0,0.0,0.0,0.8168,0.8412,0.0,0.0,0.0,0.952,0.8838,0.0,0.0,0.0,0.0,0.0,0.0,0.0,0.0,0.0,0.0,0.0,0.0,0.0,0.0,0.0,0.0,0.0,0.0,0.0,0.0,0.0,0.0,0.0,0.0,0.0,0.0,0.0,0.0,0.0,0.0,0.0,0.0,0.0,0.0,0.0,0.0,0.0,0.0,0.0,0.0,0.0,0.0,0.0,0.0,0.0,0.0,0.0,0.0,0.0,0.0,0.0,0.0,0.0,0.0,0.0,0.0,0.0,0.9996,0.9136,0.9771,1.1996,1.1758,1.1907,1.2598,1.1966,0.0,0.0,0.0,0.0,0.0,0.0,0.0,0.0,0.0,0.0,0.0,0.0,0.0,0.0,0.0,0.0,0.0,0.0,0.0,0.0,0.0,0.0,0.0,0.0,0.0,0.0,0.0,0.9045,0.0,0.0,0.0,0.0,0.0,0.0,0.0,0.0,0.0,0.0,0.0,0.0,0.0,0.0,0.9219,0.8502,0.8906,0.9143,0.0,0.0,0.999,0.9141,0.9102,0.8955,0.0,0.0,0.0,0.0,0.0,0.0,0.0,0.0,0.0,0.0,0.0,0.0,0.0,0.0,0.0,0.0,0.0,0.0,0.0,0.0,0.0,0.0,0.0,0.0,0.0,0.0,0.0,0.0,0.0,0.0,0.0,0.0,0.0,0.0,0.0,0.0,0.0,0.0,0.0,0.0,0.0,0.0,0.0,0.0,0.0,0.0,0.0,0.0,0.0,0.0,0.0,0.0,0.0,0.0,0.0,0.8099,0.8017,0.8661,0.9964,1.0568,1.1191,1.1855,1.1696,1.2028,0.0,0.0,0.0,0.0,0.0,0.0,0.0,0.0,0.0,0.0,0.0,0.0,0.0,0.0,0.0,0.0,0.0,0.0,0.0,0.0,0.0,0.0,0.0,0.0,0.0,0.0,0.0,0.0,0.0,0.0,0.0,0.0,0.0,0.0,0.0,0.0,0.0,0.0,0.0,0.0,0.0,1.0195,0.861,0.8767,0.9143,0.0,0.0,1.0009,0.9141,0.9318,0.9162,0.7939,0.0,0.0,0.0,0.0,0.0,0.0,0.0,0.0,0.0,0.0,0.0,0.0,0.0,0.0,0.0,0.0,0.0,0.0,0.0,0.0,0.0,0.0,0.0,0.0,0.0,0.0,0.0,0.0,0.0,0.0,0.0,0.0,0.0,0.0,0.0,0.0,0.0,0.0,0.0,0.0,0.0,0.0,0.0,0.0,0.0,0.0,0.0,0.0,0.0,0.0,0.0,0.0,0.0,0.8139,0.8803,0.8623,0.9341,1.0956,1.1291,1.1758,1.2476,1.2159,1.2256,0.0,0.0,0.0,0.0,0.0,0.0,0.0,0.0,0.0,0.0,0.0,0.0,0.0,0.0,0.0,0.0,0.0,0.0,0.0,0.0,0.0,0.0,0.0,0.0,0.0,0.0,0.0,0.0,0.8259,0.7903,0.8114,0.0,0.0,0.0,0.0,0.0,0.0,0.0,0.0,0.0,0.0,0.9864,0.9248,0.9512,0.0,0.0,0.9834,1.0078,0.9455,0.9513,0.9445,0.895,0.875,0.0,0.0,0.0,0.0,0.0,0.0,0.0,0.0,0.0,0.0,0.0,0.0,0.0,0.0,0.0,0.0,0.0,0.0,0.0,0.0,0.0,0.0,0.0,0.0,0.0,0.0,0.0,0.0,0.0,0.0,0.0,0.0,0.0,0.0,0.0,0.0,0.0,0.0,0.0,0.0,0.0,0.0,0.0,0.0,0.0,0.0,0.0,0.0,0.0,0.0,0.0,0.0,0.8315,0.9394,0.9168,0.9939,1.1747,1.1814,1.2153,1.2837,1.2437,1.2432,0.0,0.0,0.0,0.0,0.0,0.0,0.0,0.0,0.0,0.0,0.0,0.0,0.0,0.0,0.0,0.0,0.0,0.0,0.0,0.0,0.0,0.0,0.0,0.0,0.0,0.0,0.0,0.0,0.7697,0.7197,0.7661,0.0,0.0,0.0,0.0,0.0,0.0,0.0,0.0,0.0,0.0,0.9708,0.9447,1.0156,1.0342,0.9336,0.9365,0.9541,0.9601,0.9485,0.9425,0.9425,0.0,0.0,0.0,0.0,0.0,0.0,0.0,0.0,0.0,0.0,0.0,0.0,0.0,0.0,0.0,0.0,0.0,0.0,0.0,0.0,0.0,0.0,0.0,0.0,0.0,0.0,0.0,0.0,0.0,0.0,1.1898,0.0,0.0,0.0,0.0,0.0,0.0,0.0,0.0,0.0,0.0,0.0,0.0,0.0,0.0,0.0,0.0,0.0,0.0,0.0,0.0,0.0,0.0,0.8692,0.9385,0.9377,1.0156,1.1731,1.1789,1.2138,1.2871,1.2461,1.2418,1.2886,0.0,0.0,0.0,0.0,0.0,0.0,0.0,0.0,0.0,0.0,0.0,0.0,0.0,0.0,0.0,0.0,0.0,0.0,0.0,0.0,0.0,0.0,0.0,0.0,0.0,0.0,0.8716,0.835,0.8035,0.0,0.0,0.0,0.0,0.0,0.0,0.0,0.0,0.0,0.0,0.9991,0.9951,0.916,1.0459,1.0997,0.9767,0.8607,0.8236,0.9417,0.9279,0.9014,0.0,0.0,0.0,0.0,0.0,0.0,0.0,0.0,0.0,0.0,0.0,0.0,0.0,0.0,0.0,0.0,0.0,0.0,0.0,0.0,0.0,0.0,0.0,0.0,0.0,0.0,0.0,1.0174,1.0821,0.0,0.0,0.0,0.0,0.0,0.0,0.0,0.0,0.0,0.0,0.0,0.9071,0.9299,0.0,0.0,0.0,0.0,0.0,0.0,0.0,0.0,0.0,0.0,0.0,0.0,0.859,0.8992,0.9248,0.9974,1.1099,1.1566,1.2163,1.2881,1.2734,1.2734,1.2905,0.0,0.0,0.0,0.0,0.0,0.0,0.0,0.0,0.0,0.0,0.0,0.0,0.0,0.0,0.0,0.0,0.0,0.0,0.0,0.0,0.0,0.0,0.0,0.0,0.0,0.9233,0.0,0.0,0.0,0.0,0.0,0.0,0.0,0.0,0.0,0.0,0.0,0.9495,0.9231,0.9346,0.9434,0.9406,0.9668,0.9795,0.0,0.0,0.0,0.0,0.0,0.0,0.0,0.0,0.0,0.0,0.0,0.0,0.0,0.0,0.917,0.8295,0.7905,0.7895,0.8477,0.0,0.0,0.0,0.0,0.0,0.0,0.0,0.0,0.0,0.0,0.0,0.0,0.0,0.0,0.0,0.0,1.1547,0.0,0.0,0.0,0.0,0.0,0.0,0.0,0.0,1.0383,1.0016,0.9706,0.99,0.9886,0.0,0.957,0.9364,0.0,0.0,0.0,0.0,0.0,0.0,0.0,0.0,0.874,0.9138,0.963,1.0292,1.1124,1.1832,1.2403,1.2881,1.2915,1.2915,1.2915,1.2915,1.2915,0.0,0.0,0.0,0.0,0.0,0.0,0.0,0.0,0.0,0.0,0.0,0.0,0.0,0.0,0.0,0.0,0.0,0.0,0.0,0.0,0.0,0.0,0.0,0.927,0.0,0.0,0.0,0.0,0.0,0.0,0.0,0.0,0.0,0.9893,0.9708,0.9572,0.9473,0.9299,0.9299,0.9554,0.0,0.0,0.0,0.0,0.0,0.0,0.0,1.0205,1.0674,1.0763,1.0831,1.1115,1.1094,1.1005,1.0928,0.0,0.0,0.8818,0.848,0.8532,0.9168,0.9158,0.9187,0.958,0.9209,0.877,0.0,0.0,0.0,0.0,0.0,0.0,0.0,0.0,0.9728,1.0501,0.0,1.1012,0.0,0.0,0.0,0.0,0.0,1.057,0.0,0.0,1.0409,1.0345,1.0651,1.064,1.0626,1.06,1.0281,0.9987,0.9673,0.9132,0.0,0.0,0.0,0.0,0.0,0.0,0.9159,0.9762,1.0458,1.1141,1.1765,1.2501,1.2881,1.2915,1.2915,1.2915,1.2915,1.2915,1.2915,1.2915,1.2905,0.0,0.0,0.0,0.0,0.0,0.0,0.0,0.0,0.0,0.0,0.0,0.0,0.0,0.0,0.0,0.0,0.0,0.0,0.0,0.0,0.9893,0.0,0.0,0.0,0.0,0.0,0.0,0.0,0.0,0.0,0.0,1.0302,0.9893,0.9767,1.0186,0.0,0.0,0.0,0.0,1.0107,0.9747,1.0752,1.1428,1.0986,1.0918,1.1064,1.1518,0.0,0.0,1.1655,1.1281,1.0985,1.0957,1.0674,1.0361,1.0332,0.9902,0.9864,1.0645,1.0518,1.0469,1.0752,1.0196,0.9533,1.1928,0.0,0.0,0.0,0.0,1.0621,1.0825,1.117,1.09,1.0894,1.1188,1.1215,0.0,0.0,0.0,0.0,0.0,0.0,1.1583,1.1628,1.1765,1.1698,1.1524,1.1531,1.1383,1.1169,1.0882,1.0488,1.0,0.982,0.9426,0.8818,0.0,0.0,0.0,0.0,0.9614,0.984,1.0914,1.1616,1.1814,1.2501,1.2915,1.2915,1.2915,1.2915,1.2915,1.2915,1.2915,1.2915,1.2915,0.0,0.0,0.0,0.0,0.0,0.0,0.0,0.0,0.0,0.0,0.0,0.0,0.0,0.0,0.0,0.0,0.0,0.0,0.0,1.0303,1.0195,1.0273,0.0,0.0,0.0,0.0,0.0,0.0,0.0,0.0,0.0,1.0312,0.9884,0.9659,0.0,0.0,0.9503,1.041,0.9883,0.9756,1.087,0.0,0.0,0.0,1.142,1.1459,1.1587,1.1848,1.2139,1.2475,1.2426,1.2207,1.1904,1.1736,1.156,1.1242,1.0616,1.0332,1.0762,1.079,1.0869,1.1252,1.0918,1.039,1.3633,1.2599,1.1904,1.1717,1.187,1.1877,1.1971,1.2088,1.2004,1.1884,1.1792,1.1825,1.175,1.1468,1.1544,0.0,0.0,0.0,1.2047,1.2121,1.2466,1.2532,1.2429,1.2435,1.2245,1.1973,1.1657,1.1209,1.0596,1.0401,0.9973,0.9339,0.0,0.0,0.8811,0.9304,0.9565,0.9619,1.0899,1.1592,1.1617,1.2447,1.2915,1.2915,1.2915,1.2915,1.2915,1.2915,1.2915,1.2915,1.2915,1.2915,0.0,0.0,0.0,0.0,0.0,0.0,0.0,0.0,0.0,0.0,0.0,1.2235,1.1776,0.0,0.0,0.0,1.0802,1.0762,1.0635,1.0743,0.0,0.0,0.0,0.0,0.0,0.0,0.0,1.0831,1.0665,1.0625,1.0782,1.04,1.0118,1.0118,1.0049,1.0322,1.1085,0.0,1.041,1.1438,1.19,1.2044,1.1855,1.1985,1.2135,1.2113,1.2295,1.2559,1.2822,1.2915,1.2783,1.2559,1.2467,1.2402,1.2162,1.1672,1.1309,1.1394,1.1414,1.1523,1.1777,1.1359,1.082,1.517,1.4596,1.3788,1.34,1.3313,1.3313,1.332,1.3327,1.3065,1.3186,1.3567,1.2779,1.2711,1.3193,1.2398,0.0,1.1543,1.1837,1.2167,1.2418,1.275,1.3045,1.3273,1.326,1.3093,1.2851,1.2549,1.2071,1.1455,1.0962,1.0553,1.018,0.9617,0.9212,0.8985,0.9268,0.9459,0.9515,1.0871,1.1532,1.1491,1.2394,1.2915,1.2915,1.2915,1.2915,1.2915,1.2915,1.2915,1.2915,1.2915,1.2915,1.2915,0.0,0.0,0.0,0.0,0.0,0.0,0.0,0.0,0.0,0.0,0.0,0.0,0.0,0.0,0.0,1.1643,0.0,1.117,1.1418,0.0,0.0,0.0,1.1914,1.1702,1.1865,1.1924,1.1743,0.0,0.0,1.1526,0.0,1.0985,1.1016,1.1349,1.1626,1.1694,1.1616,1.1626,1.1743,1.2377,1.2725,1.2353,1.2578,1.2817,1.2827,1.2915,1.2895,1.2895,1.2915,1.2915,1.2886,1.2905,1.2895,1.2905,1.2807,1.2754,1.2301,1.2203,1.2184,1.2116,1.1553,1.0986,1.6186,1.5838,1.5631,1.503,1.4208,1.4208,1.4335,1.4516,1.4229,1.4062,1.3955,1.352,1.3151,1.2921,1.2433,1.2326,1.2482,1.2752,1.3046,1.3293,1.3634,1.3808,1.3868,1.3606,1.346,1.3414,1.314,1.2685,1.2104,1.1957,1.151,1.0815,1.0641,1.0529,1.0431,1.0956,1.155,1.2172,1.2986,1.3284,1.2974,1.2937,1.2915,1.2915,1.2915,1.2915,1.2915,1.2915,1.2915,1.2915,1.2915,1.2915,1.2915,1.2915,0.0,0.0,0.0,0.0,0.0,0.0,0.0,0.0,0.0,1.2299,1.1633,0.0,1.2207,0.0,1.2191,1.1777,1.1506,1.1567,0.0,0.0,1.2047,1.2158,1.2543,1.2236,1.2148,1.2553,1.1907,1.1489,1.1596,1.1768,1.1892,1.1892,1.1699,1.1851,1.2445,1.2018,1.1851,1.2445,1.2749,1.2866,1.2744,1.2827,1.2915,1.2915,1.2915,1.2915,1.2915,1.2915,1.2915,1.2915,1.2915,1.2915,1.2915,1.2915,1.2886,1.2749,1.2461,1.2164,1.2047,1.1699,1.1338,1.6727,1.6453,1.6326,1.5899,1.5291,1.5157,1.5197,1.5331,1.5177,1.4943,1.4643,1.4222,1.3921,1.3762,1.342,1.3447,1.3775,1.3915,1.4075,1.4235,1.4402,1.4476,1.4462,1.4168,1.3919,1.3828,1.35,1.3093,1.2549,1.2802,1.2407,1.1424,1.21,1.2406,1.2317,1.2016,1.22,1.2846,1.3323,1.3546,1.3516,1.3096,1.2915,1.2915,1.2915,1.2915,1.2915,1.2915,1.2915,1.2915,1.2915,1.2915,1.2915,1.2915,1.2178,0.0,0.0,0.0,0.0,0.0,0.0,0.0,0.0,0.0,0.0,0.0,1.2549,1.2588,1.2471,1.2256,1.1895,1.2054,1.2269,1.249,1.2441,1.2529,1.2866,1.2598,1.2529,1.2866,1.2299,1.1946,1.2142,1.2187,1.2281,1.249,1.2328,1.2347,1.2749,1.2455,1.2357,1.2827,1.2915,1.2915,1.2915,1.2915,1.2915,1.2915,1.2915,1.2915,1.2915,1.2915,1.2915,1.2915,1.2915,1.2915,1.2915,1.2915,1.2807,1.2387,1.2109,1.1924,1.1826,1.1545,1.1193,1.7085,1.674,1.6453,1.6333,1.6355,1.5972,1.5825,1.5825,1.5825,1.5685,1.5418,1.4917,1.483,1.505,1.4763,1.4776,1.5062,1.5062,1.5042,1.5015,1.5048,1.5042,1.4995,1.4663,1.4382,1.4135,1.38,1.3414,1.2943,1.3449,1.3178,1.23,1.3595,1.4313,1.4255,1.3004,1.2581,1.3024,1.3114,1.3302,1.3646,1.3203,1.2983,1.2959,1.2925,1.2915,1.2915,1.2915,1.2915,1.2915,1.2915,1.2915,1.2915,1.2915,1.2915,0.0,1.2915,0.0,0.0,0.0,0.0,0.0,0.0,0.0,0.0,1.2915,1.2725,1.232,1.2656,1.2725,1.232,1.2656,1.2915,1.2915,1.2915,1.2915,1.2915,1.2915,1.2915,1.2915,1.2549,1.2437,1.2773,1.2549,1.2461,1.2807,1.2856,1.2846,1.2895,1.2876,1.2856,1.2915,1.2915,1.2915,1.2915,1.2915,1.2915,1.2915,1.2915,1.2915,1.2915,1.2915,1.2915,1.2915,1.2915,1.2876,1.2827,1.2837,1.2607,1.1927,1.176,1.1692,1.1526,1.1164,1.0732,1.738,1.7092,1.6747,1.662,1.658,1.6052,1.5825,1.5825,1.5825,1.5751,1.5698,1.5631,1.5611,1.5638,1.5364,1.5257,1.5311,1.5311,1.5229,1.5022,1.5204,1.519,1.5001,1.4663,1.4496,1.4416,1.4142,1.3821,1.3433,1.3574,1.3655,1.377,1.4058,1.468,1.5506,0.0,0.0,0.0,1.4764,1.4481,1.4521,1.3789,1.3389,1.3379,1.3057,0.0,1.2915,1.2915,1.2915,1.2915,1.2915,0.0,0.0,0.0,0.0,0.0,0.0,0.0,0.0,0.0,0.0,0.0,1.2915,1.2915,1.2915,1.2915,1.2876,1.2773,1.2856,1.2876,1.2773,1.2856,1.2915,1.2915,1.2915,1.2915,1.2915,1.2915,1.2915,1.2905,1.2803,1.2783,1.2852,1.2803,1.2783,1.2886,1.2915,1.2915,1.2915,1.2915,1.2915,1.2915,1.2915,1.2915,1.2915,1.2915,1.2915,1.2915,1.2915,1.2915,1.2915,1.2895,1.2905,1.2905,1.2915,1.2719,1.2285,1.2573,1.269,1.2164,1.2047,1.1892,1.1338,1.0781,1.0391,1.7495,0.0,1.7054,1.6921,0.0,1.6299,1.6126,1.6239,1.5904,1.5825,1.5825,1.5825,1.5825,1.5778,1.5678,1.5605,1.5611,1.5565,1.5524,1.5398,1.5538,1.5531,1.5378,1.509,1.4877,1.4774,1.4983,1.4887,1.4529,1.545,1.5693,1.5296,1.6233,1.6684,1.6532,1.64,1.6224,1.6095,1.5244,1.4687,1.4453,1.3838,1.3408,1.3228,0.0,0.0,0.0,0.0,0.0,0.0,0.0,0.0,0.0,0.0,0.0,1.2915,1.2915,1.2915,1.2915,1.2915,1.2915,1.2915,1.2915,1.2915,1.2915,1.2915,1.2915,1.2915,1.2915,1.2915,1.2915,1.2915,1.2915,1.2915,1.2915,1.2915,1.2915,1.2915,1.2915,1.2915,1.2915,1.2915,1.2915,1.2915,1.2915,1.2915,1.2915,1.2915,1.2915,1.2915,1.2915,1.2915,1.2915,1.2915,1.2915,1.2915,1.2905,1.2915,1.2915,1.2915,1.2915,1.2695,1.2617,1.2807,1.2573,1.2171,1.208,1.2148,1.2113,1.1699,1.155,1.1375,1.085,1.0635,1.0527,1.7589,1.7549,1.7266,1.7159,1.7159,1.6569,1.6406,1.6593,0.0,0.0,0.0,1.5825,1.5825,1.5825,1.5825,1.5825,1.5825,1.5825,1.5825,1.5825,1.5825,1.592,1.6096,1.5843,1.5714,1.5772,1.6263,1.6251,1.5842,1.7454,1.7738,1.697,1.836,1.855,1.7502,1.6968,1.6553,1.6193,1.5361,1.4727,1.4328,1.3851,1.3457,1.313,1.2983,1.2915,1.2915,1.2915,1.2915,1.2915,1.2915,1.2915,1.2915,1.2915,1.2915,1.2915,1.2915,1.2915,1.2915,1.2915,1.2915,1.2915,1.2915,1.2915,1.2915,1.2915,1.2915,1.2915,1.2915,1.2915,1.2915,1.2915,1.2915,1.2915,1.2915,1.2915,1.2915,1.2915,1.2915,1.2915,1.2915,1.2915,1.2915,1.2915,1.2915,1.2915,1.2915,1.2915,1.2915,1.2915,1.2915,1.2915,1.2915,1.2915,1.2905,1.2807,1.2803,1.2886,1.2812,1.2783,1.2803,1.2588,1.2461,1.2553,1.2083,1.1777,1.1699,1.1663,1.1418,1.0996,1.0898,1.0811,1.0537,1.0616,1.0645,1.7589,1.7535,1.6994,1.6914,1.7159,1.6569,1.6348,1.6333,1.6288,1.6066,1.5825,1.5825,1.5825,1.5825,1.5825,1.5825,1.5825,1.5825,1.5825,0.0,1.5825,1.6386,1.739,1.7097,1.7499,1.8463,1.8341,1.8041,1.7688,1.7929,1.8031,1.8083,1.831,1.8434,1.8302,1.7274,1.6668,1.6621,1.5732,1.5264,1.5215,1.4426,1.3997,1.3909,1.3252,1.2915,1.2915,1.2915,1.2915,1.2915,1.2915,1.2915,1.2915,1.2915,1.2915,1.2915,1.2915,1.2915,1.2915,1.2915,1.2915,1.2915,1.2915,1.2915,1.2915,1.2915,1.2915,1.2915,1.2915,1.2915,1.2915,1.2915,1.2915,1.2915,1.2915,1.2915,1.2915,1.2915,1.2915,1.2915,1.2915,1.2915,1.2915,1.2915,1.2915,1.2915,1.2915,1.2915,1.2915,1.2915,1.2915,1.2915,1.2915,1.2915,1.2827,1.2539,1.248,1.2846,1.2529,1.2422,1.2749,1.2719,1.2494,1.1937,1.1934,1.167,1.0898,1.1144,1.1242,1.0937,1.085,1.082,1.0723,1.0576,1.04,1.7589,1.7555,1.7288,1.7168,1.7166,1.6693,1.6319,1.6059,1.6206,1.6112,1.5838,1.5825,1.5825,1.5825,1.5825,1.5825,1.5825,1.5825,1.5825,1.5825,1.5825,1.6109,1.6601,1.65,1.6667,1.7183,1.8221,1.8558,1.8312,1.9238,1.9786,1.9833,1.9202,1.8773,1.8543,1.7607,1.6973,1.6687,1.5829,1.5303,1.5068,1.4687,1.4268,1.3792,1.3613,1.3447,1.3223,1.3223,1.3223,1.3213,1.3023,1.2915,1.2915,1.2915,1.2915,1.2915,1.2915,1.2915,1.2915,1.2915,1.2915,1.2915,1.2915,1.2915,1.2915,1.2915,1.2915,1.2915,1.2915,1.2915,1.2915,1.2915,1.2915,1.2915,1.2915,1.2915,1.2915,1.2915,1.2915,1.2915,1.2915,1.2915,1.2915,1.2915,1.2915,1.2915,1.2915,1.2915,1.2915,1.2915,1.2915,1.2895,1.2695,1.2549,1.251,1.2148,1.2015,1.2162,1.2025,1.1976,1.2162,1.2191,1.222,1.224,1.1924,1.1346,1.0732,1.0792,1.0782,1.0664,1.0566,1.0566,1.0537,1.04,1.0322,1.7589,1.7582,1.7515,1.7367,1.7079,1.6734,1.6346,1.5959,1.6106,1.6039,1.5845,1.5825,1.5825,1.5825,1.5825,1.5825,1.5825,1.5825,1.5825,1.5825,1.5825,1.592,1.6204,1.6197,1.6261,1.6547,1.8404,1.9152,1.9025,2.0512,2.1229,2.0986,1.9883,1.9121,1.8744,1.7852,1.7217,1.6824,1.6006,1.5352,1.497,1.4872,1.45,1.3877,1.3977,1.3931,1.3646,1.3617,1.3617,1.3597,1.3164,1.2993,1.3169,1.3154,1.3164,1.3164,1.3189,1.3115,1.3042,1.2954,1.2915,1.2915,1.2915,1.2915,1.2915,1.2915,1.2915,1.2915,1.2915,1.2915,1.2915,1.2915,1.2915,1.2915,1.2915,1.2915,1.2915,1.2915,1.2915,1.2915,1.2915,1.2915,1.2915,1.2915,1.2915,1.2915,1.2915,1.2915,1.2915,1.2915,1.2915,1.2793,1.249,1.2223,1.2164,1.1758,1.1535,1.1557,1.1518,1.1535,1.1594,1.1636,1.1839,1.2318,1.1702,1.1014,1.0897,1.0615,1.0391,1.0352,1.0352,1.0332,1.0342,1.0322,1.0322,1.7589,1.7542,1.7367,1.7072,1.6747,1.6446,1.6286,1.6199,1.5985,1.5811,1.5832,1.5825,1.5825,1.5825,1.5825,1.5825,1.5825,1.5825,1.5825,1.5825,1.5825,1.6386,1.7318,1.7451,1.8072,1.902,2.0264,2.0412,1.9802,2.1074,2.1406,2.0654,1.9727,1.9258,1.9082,1.7998,1.7396,1.7305,1.6476,1.5821,1.5361,1.498,1.4774,1.4705,1.4316,1.4094,1.4046,1.4029,1.4046,1.3987,1.332,1.3232,1.387,1.3977,1.3977,1.3958,1.3968,1.3841,1.3467,1.3096,1.2925,1.2915,1.2915,1.2915,1.2915,1.2915,1.2915,1.2915,1.2915,1.2915,1.2915,1.2915,1.2915,1.2915,1.2915,1.2915,1.2915,1.2915,1.2915,1.2915,1.2915,1.2915,1.2915,1.2915,1.2915,1.2915,1.2915,1.2915,1.2915,1.2915,1.2915,1.2817,1.2402,1.2106,1.207,1.1472,1.1193,1.142,1.1222,1.1164,1.1341,1.1528,1.1734,1.1807,1.1504,1.0859,1.0566,1.0312,1.0312,1.0322,1.0322,1.0322,1.0322,1.0322,1.0322,1.7589,1.7575,1.7455,1.7286,1.6978,1.6522,1.6273,1.6246,1.5959,1.5825,1.5825,1.5825,1.5825,1.5825,1.5825,1.5825,1.5825,1.5825,1.5825,1.5825,1.5825,1.6109,1.6622,1.7412,1.8002,1.848,1.9507,1.9815,1.967,2.0198,2.0417,2.0167,1.957,1.916,1.8831,1.8144,1.7637,1.7373,1.6777,1.624,1.5801,1.5371,1.5029,1.4824,1.4853,1.4766,1.4551,1.4521,1.4521,1.4492,1.3919,1.3769,1.4085,1.4114,1.3997,1.3773,1.3743,1.3549,1.3189,1.3203,1.3169,1.2935,1.2915,1.2915,1.2915,1.2915,1.2915,1.2915,1.2915,1.2915,1.2915,1.2915,1.2915,1.2915,1.2915,1.2915,1.2915,1.2915,1.2915,1.2915,1.2915,1.2915,1.2915,1.2915,1.2915,1.2915,1.2915,1.2915,1.2915,1.2915,1.2915,1.2837,1.2383,1.1982,1.1829,1.1113,1.0772,1.0753,1.0684,1.0674,1.0821,1.1085,1.1221,1.1326,1.1063,1.085,1.0742,1.044,1.0322,1.0322,1.0322,1.0322,1.0322,1.0322,1.0322,1.7589,1.7589,1.7589,1.7467,1.7166,1.675,1.642,1.6253,1.6039,1.5905,1.5832,1.5825,1.5825,1.5825,1.5825,1.5825,1.5825,1.5825,1.5825,1.5825,1.5825,1.5967,1.6386,1.7225,1.787,1.8326,1.9286,1.9866,2.0,1.9973,2.0106,2.0158,1.9736,1.9248,1.8783,1.8364,1.7978,1.7559,1.7139,1.6748,1.6447,1.5996,1.5518,1.5049,1.5254,1.5264,1.498,1.4961,1.4961,1.4951,1.4648,1.4455,1.4455,1.4455,1.4319,1.4053,1.3799,1.3529,1.3242,1.3301,1.3203,1.2954,1.2915,1.2915,1.2915,1.2915,1.2915,1.2915,1.2915,1.2915,1.2915,1.2915,1.2915,1.2915,1.2915,1.2915,1.2915,1.2915,1.2915,1.2915,1.2915,1.2915,1.2915,1.2915,1.2915,1.2915,1.2915,1.2915,1.2915,1.2915,1.2915,1.2876,1.2324,1.1868,1.1596,1.1193,1.0674,1.0469,1.0518,1.0527,1.044,1.0693,1.0722,1.082,1.0752,1.0703,1.0576,1.04,1.0322,1.0322,1.0322,1.0322,1.0322,1.0322,1.0322,1.7589,1.7589,1.7589,1.7474,1.7199,1.7139,1.6824,1.6306,1.6288,1.6086,1.5798,1.5825,1.5825,1.5825,1.5825,1.5825,1.5825,1.5825,1.5825,1.5825,1.5825,1.6433,1.7591,1.7684,1.8326,1.9451,2.0435,2.133,2.1997,2.1395,2.114,2.1073,2.0235,1.9668,1.9248,1.8763,1.8364,1.7978,1.7539,1.7314,1.7236,1.6855,1.618,1.5478,1.541,1.542,1.5361,1.5352,1.5381,1.5352,1.5312,1.5312,1.5332,1.5274,1.5244,1.5147,1.4504,1.4055,1.3899,1.3418,1.3013,1.2915,1.2964,1.2925,1.2915,1.2915,1.2915,1.2915,1.2915,1.2915,1.2915,1.2915,1.2915,1.2915,1.2915,1.2915,1.2915,1.2915,1.2915,1.2915,1.2915,1.2915,1.2915,1.2915,1.2915,1.2915,1.2915,1.2915,1.2915,1.2915,1.2915,1.2768,1.2279,1.1645,1.1616,1.1213,1.1085,1.088,1.0605,1.0771,1.0713,1.0635,1.0469,1.0371,1.042,1.042,1.0352,1.0322,1.0303,1.0322,1.0322,1.0322,1.0322,1.0322,1.0322,1.7589,1.7589,1.7589,1.7522,1.7447,1.7027,1.674,1.6513,1.6146,1.5932,1.5838,1.5825,1.5825,1.5825,1.5825,1.5825,1.5825,1.5825,1.5825,1.5825,1.5825,1.648,1.7692,1.8457,1.9488,2.0541,2.0908,2.1028,2.0931,2.0424,2.0557,2.0964,2.0352,1.9834,1.96,1.8948,1.852,1.8359,1.7754,1.7416,1.7353,1.6963,1.6436,1.5899,1.582,1.5693,1.542,1.542,1.542,1.542,1.542,1.542,1.5391,1.5156,1.501,1.499,1.4727,1.4307,1.3848,1.3975,1.3747,1.3023,1.3232,1.3242,1.2983,1.2915,1.2915,1.2915,1.2915,1.2915,1.2915,1.2915,1.2915,1.2915,1.2915,1.2915,1.2915,1.2915,1.2915,1.2915,1.2915,1.2915,1.2915,1.2915,1.2915,1.2915,1.2915,1.2915,1.2915,1.2915,1.2915,1.2886,1.2651,1.2328,1.2002,1.1182,1.0684,1.0606,1.0508,1.0508,1.0479,1.0459,1.0352,1.0342,1.0322,1.0322,1.0312,1.0312,1.0322,1.0322,1.0322,1.0322,1.0322,1.0322,1.0322,1.7589,1.7589,1.7589,1.7589,1.7535,1.7161,1.6934,1.6814,1.6426,1.6152,1.5999,1.5972,1.5925,1.5791,1.5825,1.5825,1.5825,1.5825,1.5825,1.5825,1.5825,1.648,1.7731,1.8956,2.0124,2.1212,2.1533,2.142,2.115,2.0759,2.0898,2.1366,2.0654,2.0147,1.9853,1.9163,1.8763,1.851,1.7939,1.7588,1.7549,1.7295,1.6855,1.6396,1.6437,1.6163,1.5469,1.542,1.542,1.542,1.542,1.542,1.5381,1.5146,1.499,1.498,1.4853,1.4578,1.4062,1.4336,1.4189,1.3398,1.35,1.35,1.315,1.2969,1.2925,1.2915,1.2915,1.2915,1.2915,1.2915,1.2915,1.2915,1.2915,1.2915,1.2915,1.2915,1.2915,1.2915,1.2915,1.2915,1.2915,1.2915,1.2915,1.2915,1.2915,1.2915,1.2915,1.2915,1.2915,1.2915,1.2895,1.2607,1.2236,1.1494,1.1085,1.0968,1.0615,1.0508,1.041,1.0381,1.0312,1.0303,1.0322,1.0322,1.0322,1.0322,1.0322,1.0322,1.0322,1.0322,1.0322,1.0322,1.0332,1.7589,1.7589,1.7589,1.7589,1.7575,1.7488,1.742,1.7146,1.7085,1.6683,1.6186,1.6219,1.6039,1.5872,1.5825,1.5825,1.5825,1.5967,1.592,1.5825,1.5825,1.652,1.7909,1.8993,2.026,2.1471,2.2526,2.2974,2.2824,2.2407,2.2123,2.1865,2.1337,2.0693,1.9961,1.9551,1.9082,1.8682,1.8242,1.7998,1.7998,1.792,1.75,1.6794,1.7041,1.665,1.5478,1.5439,1.5459,1.542,1.542,1.542,1.542,1.5371,1.5391,1.5303,1.5029,1.4814,1.4697,1.4434,1.4299,1.3977,1.388,1.3773,1.3477,1.3105,1.2915,1.2915,1.2915,1.2915,1.2915,1.2915,1.2915,1.2915,1.2915,1.2915,1.2915,1.2915,1.2915,1.2915,1.2915,1.2915,1.2915,1.2915,1.2915,1.2915,1.2915,1.2915,1.2915,1.2915,1.2915,1.2915,1.2905,1.2734,1.2314,1.1907,1.1721,1.1506,1.1055,1.0771,1.0635,1.0566,1.0352,1.0322,1.0322,1.0322,1.0322,1.0322,1.0322,1.0322,1.0322,1.0381,1.0449,1.0488,1.043,1.7589,1.7589,1.7589,1.7589,1.7555,1.7427,1.7166,1.6834,1.669,1.6326,1.6012,1.5965,1.5912,1.5804,1.5825,1.5832,1.5872,1.6615,1.6669,1.5974,1.5832,1.6976,1.868,1.9314,2.0593,2.2315,2.2906,2.3101,2.3023,2.2682,2.2422,2.2217,2.1551,2.1083,2.0722,2.006,1.9502,1.9092,1.8617,1.8286,1.8047,1.8008,1.7607,1.6824,1.6865,1.6445,1.5508,1.5723,1.5703,1.5439,1.542,1.542,1.542,1.542,1.542,1.54,1.5303,1.5068,1.4853,1.4912,1.4699,1.4358,1.4543,1.4397,1.3714,1.3193,1.2944,1.2915,1.2915,1.2915,1.2915,1.2915,1.2915,1.2915,1.2915,1.2915,1.2915,1.2915,1.2915,1.2915,1.2915,1.2915,1.2915,1.2915,1.2915,1.2915,1.2915,1.2915,1.2915,1.2915,1.2915,1.2915,1.2861,1.2852,1.2573,1.2285,1.2109,1.1826,1.1426,1.1064,1.0918,1.0684,1.0469,1.0322,1.0322,1.0322,1.0322,1.0352,1.0391,1.044,1.0528,1.0596,1.0684,1.0635,1.0518,1.7589,1.7589,1.7589,1.7589,1.7621,1.7434,1.7208,1.7001,1.6777,1.6433,1.6151,1.6159,1.6025,1.5864,1.6046,1.6092,1.6143,1.7265,1.7399,1.6802,1.7059,1.8087,1.9497,2.0034,2.1123,2.2775,2.3101,2.3101,2.3081,2.2847,2.2633,2.2422,2.1963,2.1483,2.1181,2.0527,1.9941,1.9521,1.9092,1.8672,1.8295,1.8208,1.7842,1.7139,1.7096,1.6716,1.5985,1.6074,1.5948,1.5508,1.542,1.542,1.542,1.542,1.542,1.542,1.54,1.5283,1.5078,1.5244,1.5215,1.4796,1.5107,1.5019,1.416,1.3525,1.3154,1.2944,1.2915,1.2915,1.2915,1.2915,1.2915,1.2915,1.2915,1.2915,1.2915,1.2915,1.2915,1.2915,1.2915,1.2915,1.2915,1.2915,1.2915,1.2915,1.2915,1.2915,1.2915,1.2915,1.2915,1.2915,1.2905,1.2895,1.2876,1.2686,1.2476,1.2148,1.1758,1.1467,1.1232,1.089,1.0616,1.0381,1.0322,1.0322,1.0332,1.0528,1.0615,1.0684,1.0723,1.0771,1.0771,1.0605,1.0488,1.7589,1.7589,1.7589,1.7589,1.7589,1.7562,1.7482,1.7428,1.7239,1.6891,1.6613,1.6533,1.6333,1.6066,1.6393,1.6493,1.6619,1.7864,1.8394,1.8525,1.9172,1.992,1.9951,2.089,2.2031,2.296,2.3101,2.3101,2.3091,2.3052,2.2896,2.2565,2.2461,2.2119,2.1414,2.0859,2.0391,1.9961,1.9531,1.9102,1.8607,1.8568,1.8169,1.7412,1.7627,1.7408,1.6677,1.6357,1.5977,1.5498,1.542,1.542,1.542,1.542,1.542,1.542,1.542,1.541,1.54,1.5391,1.5371,1.5312,1.5312,1.5205,1.4666,1.4014,1.3408,1.2974,1.2915,1.2915,1.2915,1.2915,1.2915,1.2915,1.2915,1.2915,1.2915,1.2915,1.2915,1.2915,1.2915,1.2915,1.2915,1.2915,1.2915,1.2915,1.2915,1.2915,1.2915,1.2915,1.2915,1.2915,1.2915,1.2905,1.2895,1.2866,1.2676,1.2529,1.2178,1.1914,1.1555,1.1173,1.0791,1.0567,1.0391,1.0371,1.0391,1.0586,1.0752,1.082,1.0859,1.0888,1.0898,1.0811,1.0635,1.7589,1.7589,1.7589,1.7589,1.7589,1.7589,1.7335,1.6967,1.6881,1.6593,1.6219,1.6293,1.6346,1.6206,1.6533,1.6653,1.7069,1.888,1.9741,1.9815,2.1733,2.1798,2.1266,2.2031,2.2775,2.3091,2.3101,2.3101,2.3101,2.3101,2.3023,2.2925,2.2666,2.2422,2.2058,2.1416,2.085,2.04,1.9961,1.9385,1.8744,1.8637,1.8188,1.75,1.7519,1.7295,1.6716,1.6338,1.5938,1.5469,1.542,1.542,1.542,1.542,1.542,1.542,1.542,1.542,1.542,1.542,1.542,1.542,1.542,1.5352,1.5186,1.426,1.3519,1.3027,1.2915,1.2915,1.2915,1.2915,1.2915,1.2915,1.2915,1.2915,1.2915,1.2915,1.2915,1.2915,1.2915,1.2915,1.2915,1.2915,1.2915,1.2915,1.2915,1.2915,1.2915,1.2915,1.2915,1.2915,1.2915,1.2915,1.2915,1.2915,1.2876,1.2822,1.2627,1.2441,1.2002,1.1523,1.1121,1.079,1.0645,1.0596,1.0557,1.0615,1.0752,1.1055,1.1346,1.156,1.1438,1.1332,1.1046,1.7702,1.7589,1.7589,1.7589,1.7589,1.7589,1.7388,1.7094,1.6934,1.672,1.6466,1.6603,1.6567,1.6549,1.7479,1.7406,1.712,1.9416,2.035,2.0651,2.2584,2.298,2.2444,2.2862,2.3101,2.3101,2.3101,2.3101,2.3101,2.3101,2.3101,2.3042,2.2891,2.2685,2.2389,2.1875,2.1249,2.0859,2.041,1.9834,1.9192,1.9134,1.8676,1.8047,1.7754,1.7422,1.6921,1.6719,1.63,1.5635,1.542,1.542,1.542,1.542,1.542,1.542,1.542,1.542,1.542,1.542,1.542,1.542,1.542,1.542,1.5234,1.4445,1.3627,1.2998,1.2925,1.2915,1.2915,1.2915,1.2915,1.2915,1.2915,1.2915,1.2915,1.2915,1.2915,1.2915,1.2915,1.2915,1.2915,1.2915,1.2915,1.2915,1.2915,1.2915,1.2915,1.2915,1.2915,1.2915,1.2915,1.2915,1.2915,1.2915,1.2915,1.2905,1.2876,1.2715,1.2379,1.1872,1.1531,1.1199,1.0987,1.0811,1.0802,1.0908,1.1289,1.1631,1.1989,1.1911,1.1653,1.1685,1.1398,1.7829,1.7629,1.7595,1.7589,1.7589,1.7582,1.7495,1.7415,1.7259,1.7252,1.7316,1.7381,1.7535,1.7282,1.8746,1.8687,1.7567,1.9864,2.0789,2.166,2.2943,2.3495,2.3134,2.3033,2.3101,2.3101,2.3101,2.3101,2.3101,2.3101,2.3101,2.3081,2.3062,2.2896,2.2584,2.2168,2.1738,2.1309,2.0859,2.0332,1.9873,1.9727,1.9319,1.8685,1.8208,1.7822,1.7422,1.7217,1.6855,1.5742,1.5566,1.5488,1.5459,1.542,1.542,1.542,1.542,1.542,1.542,1.542,1.542,1.542,1.542,1.542,1.5264,1.464,1.3909,1.3232,1.3013,1.2993,1.2915,1.2915,1.2915,1.2915,1.2915,1.2915,1.2915,1.2915,1.2915,1.2915,1.2915,1.2915,1.2915,1.2915,1.2915,1.2915,1.2915,1.2915,1.2915,1.2915,1.2915,1.2915,1.2915,1.2915,1.2915,1.2915,1.2915,1.2905,1.2905,1.2793,1.2656,1.2275,1.1973,1.1689,1.1455,1.1252,1.1085,1.1328,1.1758,1.1982,1.2184,1.1836,1.1445,1.1741,1.167,1.7949,1.7929,1.7682,1.7589,1.7589,1.7582,1.7328,1.6998,1.7203,1.7642,1.8127,1.8583,1.929,2.0085,1.9928,1.9874,2.0342,2.1238,2.2132,2.3606,2.3556,2.3779,2.3564,2.3286,2.312,2.312,2.3101,2.3101,2.3101,2.3101,2.3101,2.3101,2.3091,2.3052,2.2896,2.2529,2.2168,2.1748,2.1299,2.0664,2.0078,1.9941,1.9697,1.916,1.8666,1.8247,1.7852,1.7539,1.7402,1.7197,1.6504,1.588,1.5557,1.5439,1.542,1.542,1.542,1.542,1.542,1.542,1.542,1.542,1.542,1.541,1.5362,1.4951,1.4404,1.3906,1.3574,1.3271,1.3062,1.2944,1.2993,1.3023,1.2944,1.2915,1.2915,1.2915,1.2915,1.2915,1.2915,1.2915,1.2915,1.2915,1.2915,1.2915,1.2915,1.2915,1.2915,1.2915,1.2915,1.2915,1.2915,1.2915,1.2915,1.2915,1.2915,1.2915,1.2915,1.2905,1.2744,1.2646,1.2334,1.2129,1.1953,1.1738,1.1504,1.1748,1.2155,1.2285,1.2334,1.208,1.1904,1.2021,1.1888,1.809,1.7816,1.7649,1.7589,1.7589,1.7635,1.7759,1.8032,1.8233,1.8934,1.98,2.024,2.0769,2.147,2.1451,2.1677,2.162,2.2192,2.2788,2.358,2.3958,2.4189,2.3789,2.3594,2.3447,2.3364,2.3179,2.311,2.3101,2.3101,2.3101,2.3101,2.3101,2.3091,2.3042,2.2744,2.2295,2.1865,2.1455,2.0849,2.0332,2.0215,2.001,1.9531,1.8958,1.8471,1.8256,1.7891,1.7715,1.7549,1.7051,1.6437,1.5859,1.5566,1.543,1.542,1.542,1.542,1.542,1.542,1.542,1.542,1.542,1.542,1.5322,1.5029,1.4844,1.4572,1.4172,1.3656,1.3496,1.3486,1.3467,1.3379,1.3096,1.2935,1.2915,1.2915,1.2915,1.2915,1.2915,1.2915,1.2915,1.2915,1.2915,1.2915,1.2915,1.2915,1.2915,1.2915,1.2915,1.2915,1.2915,1.2915,1.2915,1.2915,1.2915,1.2915,1.2915,1.2915,1.2856,1.2764,1.2686,1.2461,1.2236,1.2197,1.207,1.232,1.2379,1.233,1.2334,1.2334,1.2347,1.2335,1.207,1.8163,1.7649,1.7602,1.7589,1.7589,1.7635,1.83,1.9368,1.9561,2.0327,2.1711,2.1921,2.2012,2.2447,2.2994,2.2638,2.2368,2.2903,2.3661,2.3598,2.4485,2.4475,2.4092,2.4004,2.3906,2.3779,2.3296,2.313,2.3198,2.313,2.3101,2.3101,2.3101,2.3101,2.3003,2.2812,2.2432,2.2002,2.1719,2.1162,2.0713,2.0615,2.041,1.9814,1.9299,1.8773,1.8559,1.8262,1.7939,1.7543,1.7422,1.7083,1.6504,1.5869,1.5508,1.5527,1.5478,1.542,1.542,1.542,1.542,1.542,1.542,1.542,1.5332,1.5166,1.5107,1.5,1.4697,1.4153,1.4124,1.3997,1.4016,1.3948,1.3437,1.3076,1.29,1.2915,1.2915,1.2915,1.2915,1.2915,1.2915,1.2915,1.2915,1.2915,1.2915,1.2915,1.2915,1.2915,1.2915,1.2915,1.2915,1.2915,1.2915,1.2954,1.2929,1.2929,1.2929,1.2929,1.2929,1.2866,1.2764,1.2646,1.2467,1.2461,1.248,1.2598,1.2578,1.2432,1.2475,1.2653,1.2667,1.2655,1.2483,1.8283,1.7896,1.7695,1.7589,1.7589,1.7589,1.8268,1.9197,1.9633,2.0931,2.2832,2.2903,2.3466,2.3988,2.3341,2.3157,2.3425,2.416,2.4612,2.4487,2.5001,2.4785,2.4473,2.456,2.446,2.3828,2.3364,2.3305,2.3447,2.335,2.311,2.3101,2.3101,2.3101,2.3081,2.2984,2.2705,2.2266,2.2129,2.167,2.1025,2.0879,2.0703,2.0059,1.9687,1.9241,1.8734,1.8539,1.8305,1.7896,1.7578,1.7386,1.7083,1.6457,1.6075,1.5938,1.5693,1.5576,1.5508,1.5449,1.543,1.542,1.542,1.542,1.5391,1.5332,1.5303,1.5234,1.499,1.4551,1.4143,1.4241,1.4153,1.4075,1.4016,1.3675,1.3213,1.2964,1.3003,1.3057,1.3013,1.2915,1.2915,1.2915,1.2915,1.2915,1.2915,1.2915,1.2915,1.2915,1.2915,1.2915,1.2915,1.2915,1.2915,1.2954,1.2968,1.2954,1.2954,1.2968,1.2954,1.2905,1.2822,1.2725,1.2739,1.2773,1.2822,1.2895,1.2904,1.2847,1.2916,1.302,1.3155,1.3299,1.3715,1.8083,1.7796,1.7642,1.7589,1.7589,1.7641,1.8726,2.0386,2.0664,2.2003,2.3632,2.4173,2.4288,2.4552,2.4402,2.4257,2.4554,2.5064,2.5273,2.5213,2.5254,2.5176,2.4785,2.5037,2.4658,2.415,2.3721,2.3393,2.3393,2.3208,2.3101,2.3101,2.3101,2.3101,2.3091,2.3081,2.2822,2.2461,2.2393,2.2197,2.1445,2.1346,2.08,2.041,2.0,1.959,1.9092,1.8666,1.8403,1.8066,1.7812,1.7734,1.751,1.7148,1.6631,1.6436,1.6191,1.5957,1.5801,1.5762,1.5703,1.5439,1.542,1.542,1.542,1.541,1.542,1.5361,1.5303,1.5029,1.4825,1.4747,1.4767,1.4795,1.4747,1.4551,1.4102,1.3424,1.3262,1.3311,1.3145,1.3042,1.2915,1.2915,1.2915,1.2915,1.2925,1.2925,1.2925,1.2915,1.2915,1.2915,1.2915,1.2915,1.3002,1.3152,1.3041,1.2968,1.3089,1.3104,1.2978,1.2929,1.2915,1.2866,1.292,1.2954,1.3166,1.3232,1.3228,1.3286,1.3362,1.3508,1.3745,1.4027,1.4352,1.8116,1.7635,1.7891,1.7996,1.7996,1.7687,1.9317,2.1651,2.1744,2.2897,2.4898,2.4941,2.4631,2.4492,2.4717,2.4962,2.5185,2.5547,2.5508,2.5371,2.5518,2.5478,2.5176,2.5107,2.4932,2.4365,2.4102,2.3691,2.3374,2.3159,2.3101,2.3101,2.3101,2.3101,2.3101,2.3101,2.2793,2.2656,2.2559,2.2549,2.2217,2.159,2.1044,2.0703,2.0273,1.9863,1.9424,1.9023,1.8588,1.8281,1.8057,1.7988,1.7949,1.7719,1.7353,1.7009,1.6814,1.6533,1.6309,1.6075,1.5899,1.5644,1.5478,1.543,1.542,1.542,1.542,1.542,1.5391,1.5371,1.5283,1.5371,1.5361,1.5352,1.5342,1.5293,1.4873,1.4297,1.3672,1.3564,1.334,1.3311,1.334,1.3301,1.3379,1.3164,1.3164,1.3003,1.2993,1.2925,1.2915,1.2915,1.2915,1.2915,1.3065,1.3443,1.3238,1.2954,1.3224,1.3396,1.3152,1.2915,1.2929,1.2978,1.2915,1.2978,1.3262,1.3576,1.3647,1.3718,1.3802,1.4039,1.4457,1.4572,1.4721,1.8939,1.7733,1.8916,1.9376,1.922,1.8251,1.9922,2.3018,2.2257,2.2996,2.499,2.4687,2.4336,2.4131,2.4385,2.4961,2.5372,2.5615,2.5606,2.5527,2.5596,2.5518,2.5205,2.5508,2.5049,2.4502,2.4316,2.4111,2.3623,2.3208,2.3101,2.3101,2.3101,2.3101,2.3101,2.3101,2.3062,2.2994,2.2994,2.2852,2.2412,2.168,2.1299,2.0995,2.0684,2.0225,1.9785,1.9385,1.8994,1.851,1.8193,1.8037,1.7998,1.7978,1.793,1.7656,1.7213,1.6677,1.6621,1.6437,1.6193,1.5957,1.5684,1.5478,1.542,1.542,1.542,1.542,1.542,1.542,1.542,1.542,1.542,1.542,1.542,1.542,1.5215,1.4874,1.428,1.4094,1.3994,1.3977,1.4007,1.3938,1.3851,1.3623,1.3389,1.3203,1.3042,1.2954,1.2915,1.2915,1.2915,1.2915,1.321,1.3552,1.3539,1.3138,1.343,1.3742,1.3539,1.332,1.3089,1.3089,1.3051,1.3248,1.3671,1.3933,1.405,1.4213,1.4388,1.479,1.5286,1.5298,1.522,2.1296,1.9973,2.0531,2.0794,2.0735,2.0128,2.1296,2.3176,2.3117,2.3526,2.457,2.4795,2.4541,2.4287,2.459,2.4824,2.5107,2.5469,2.5528,2.5518,2.5596,2.5615,2.5469,2.5361,2.4961,2.4541,2.415,2.3769,2.3477,2.3247,2.3101,2.3101,2.3101,2.3101,2.3101,2.3101,2.3091,2.3081,2.3062,2.2867,2.2461,2.1934,2.1484,2.12,2.081,2.0381,1.999,1.9775,1.9277,1.8754,1.8383,1.8208,1.8076,1.7998,1.7998,1.7969,1.7662,1.7373,1.7129,1.6936,1.6711,1.6377,1.6035,1.5733,1.5508,1.5439,1.5439,1.542,1.542,1.542,1.543,1.542,1.542,1.542,1.542,1.542,1.5371,1.5205,1.4855,1.4747,1.463,1.4601,1.4513,1.4338,1.4124,1.3792,1.3633,1.3496,1.3193,1.2935,1.2915,1.2915,1.2915,1.2915,1.3296,1.3681,1.3894,1.375,1.4012,1.4201,1.4061,1.386,1.3683,1.3625,1.3713,1.3928,1.4222,1.419,1.4167,1.4549,1.4994,1.5331,1.5654,1.5964,1.5954,2.3285,2.2676,2.2366,2.2206,2.2156,2.1853,2.2667,2.4088,2.3664,2.3892,2.4475,2.4785,2.4736,2.4687,2.4883,2.499,2.4873,2.5401,2.5488,2.5459,2.5518,2.5577,2.5439,2.5176,2.491,2.4404,2.4033,2.3711,2.3447,2.3169,2.3101,2.3101,2.3101,2.3101,2.3101,2.3101,2.3101,2.3101,2.3101,2.2935,2.2633,2.2275,2.1836,2.1426,2.0967,2.0527,2.0137,1.9922,1.9482,1.9134,1.8666,1.8422,1.8227,1.8232,1.8125,1.8105,1.7954,1.793,1.7617,1.7363,1.7217,1.6865,1.6436,1.6036,1.5889,1.5703,1.5703,1.581,1.5478,1.5508,1.5527,1.5518,1.542,1.542,1.542,1.542,1.54,1.5273,1.5176,1.5098,1.5049,1.5098,1.4971,1.4699,1.4397,1.4016,1.3831,1.3743,1.3457,1.3111,1.3018,1.3052,1.2983,1.2983,1.323,1.3617,1.3902,1.432,1.4589,1.492,1.4958,1.4737,1.4488,1.4437,1.4501,1.4584,1.4843,1.4533,1.4306,1.4869,1.5331,1.5588,1.5908,1.6284,1.6457,2.4412,2.5333,2.4048,2.3592,2.3484,2.2206,2.3226,2.5197,2.3818,2.3951,2.4896,2.4707,2.4756,2.4951,2.5088,2.5283,2.5518,2.5654,2.5625,2.5625,2.5654,2.5478,2.5234,2.5,2.4803,2.4355,2.3906,2.3701,2.3623,2.3188,2.312,2.3101,2.3101,2.3101,2.3101,2.3101,2.3101,2.3101,2.3101,2.3091,2.2877,2.2598,2.2168,2.1787,2.1346,2.0967,2.0566,2.0166,1.9883,1.9611,1.9104,1.8715,1.8598,1.849,1.8334,1.834,1.8344,1.8256,1.8018,1.7666,1.7412,1.7148,1.6836,1.6484,1.6356,1.6299,1.6357,1.6385,1.5927,1.5781,1.5791,1.5762,1.5664,1.5518,1.5508,1.542,1.542,1.541,1.5352,1.5381,1.5381,1.5371,1.5381,1.5137,1.4795,1.4414,1.4143,1.4046,1.376,1.3443,1.3293,1.3219,1.3101,1.3076,1.31,1.3573,1.45,1.484,1.5045,1.5648,1.6148,1.5841,1.545,1.5545,1.5628,1.5521,1.5443,1.5416,1.5394,1.5471,1.5758,1.6246,1.6411,1.6617,1.6638,2.5226,2.5635,2.5118,2.4913,2.4913,2.4353,2.4756,2.5509,2.4946,2.4928,2.541,2.5039,2.4912,2.5098,2.5371,2.5391,2.54,2.5586,2.5635,2.5615,2.5469,2.5234,2.4998,2.4617,2.4216,2.3965,2.3623,2.3389,2.3286,2.3159,2.313,2.3101,2.3101,2.3101,2.3101,2.3101,2.3101,2.3101,2.3101,2.3101,2.2955,2.2471,2.2041,2.1885,2.1123,2.0801,2.0586,2.0458,2.0185,1.9865,1.9524,1.9287,1.8984,1.8773,1.8646,1.8652,1.8676,1.852,1.8325,1.7978,1.7676,1.7474,1.7305,1.7178,1.6872,1.6736,1.6687,1.6599,1.6414,1.6269,1.6357,1.6287,1.6161,1.5869,1.5644,1.5527,1.5488,1.5518,1.5742,1.5898,1.5693,1.5508,1.5537,1.5537,1.5166,1.4805,1.458,1.4328,1.4121,1.3923,1.3834,1.3907,1.3845,1.3887,1.3926,1.4567,1.5282,1.5477,1.5624,1.6371,1.7079,1.6939,1.6654,1.6714,1.6857,1.6938,1.6878,1.6608,1.6492,1.6414,1.6726,1.7223,1.7235,1.7027,1.6861,2.5684,2.5684,2.5684,2.5684,2.5684,2.5684,2.5684,2.5654,2.5518,2.5449,2.5352,2.5234,2.5088,2.5078,2.5303,2.5254,2.5088,2.5273,2.5469,2.542,2.5244,2.501,2.4658,2.4248,2.3809,2.3574,2.3315,2.312,2.3149,2.3101,2.3101,2.3101,2.3101,2.3101,2.3101,2.3101,2.3101,2.3101,2.3101,2.3101,2.2994,2.2646,2.207,2.1953,2.1378,2.0918,2.0732,2.0546,2.0439,2.0156,1.9902,1.9707,1.9385,1.9092,1.888,1.8945,1.8965,1.8754,1.8549,1.8217,1.7891,1.7695,1.7783,1.7578,1.7321,1.7252,1.7301,1.7155,1.6931,1.6765,1.6833,1.6707,1.6531,1.624,1.5967,1.582,1.5762,1.5791,1.6161,1.6463,1.6221,1.6077,1.6436,1.6476,1.5839,1.5434,1.5029,1.4912,1.4853,1.4656,1.4522,1.4661,1.4822,1.4899,1.5021,1.5518,1.6033,1.6625,1.6859,1.742,1.7859,1.7787,1.797,1.8215,1.8326,1.845,1.8339,1.8104,1.7702,1.7307,1.7605,1.7834,1.7681,1.7451,1.7174,2.5664,2.5684,2.5684,2.5684,2.5684,2.5684,2.5684,2.5645,2.5361,2.498,2.4785,2.5273,2.5166,2.4717,2.4951,2.4853,2.4707,2.4951,2.5156,2.5146,2.5019,2.4785,2.4424,2.3984,2.3525,2.3188,2.3101,2.3101,2.3101,2.3101,2.3101,2.3101,2.3101,2.3101,2.3101,2.3101,2.3101,2.3101,2.3101,2.3101,2.3052,2.2939,2.249,2.209,2.1799,2.1349,2.0889,2.0713,2.0654,2.0458,2.0078,1.9922,1.9853,1.9375,1.9102,1.8909,1.918,1.9062,1.8685,1.8247,1.8135,1.8105,1.8242,1.8076,1.8008,1.7964,1.7993,1.793,1.7418,1.7187,1.7119,1.708,1.6924,1.6699,1.6436,1.626,1.618,1.62,1.6609,1.6902,1.689,1.6901,1.7369,1.7464,1.6672,1.6084,1.5576,1.5381,1.5332,1.5141,1.4918,1.5473,1.5708,1.5957,1.6065,1.6297,1.6784,1.747,1.7998,1.837,1.8757,1.887,1.9158,1.9535,1.9421,1.9158,1.9395,1.9634,1.8958,1.8288,1.8111,1.8205,1.803,1.789,1.7664,2.5293,2.5322,2.5615,2.5684,2.5684,2.5684,2.5684,2.5664,2.5547,2.5254,2.4951,2.5225,2.5,2.4629,2.4512,2.4541,2.4502,2.4853,2.5059,2.501,2.4775,2.46,2.4248,2.375,2.332,2.314,2.3101,2.313,2.3101,2.314,2.311,2.3101,2.3101,2.3101,2.3101,2.3101,2.3101,2.3101,2.3101,2.3091,2.3062,2.2847,2.2617,2.2275,2.2041,2.1621,2.1055,2.0996,2.085,2.0693,2.0293,2.0264,2.0293,1.9959,1.994,1.9766,1.9902,1.9648,1.9368,1.9141,1.8887,1.8809,1.8691,1.8682,1.8799,1.8662,1.8711,1.8691,1.8232,1.8066,1.81,1.7842,1.7617,1.7334,1.709,1.6924,1.6824,1.6872,1.7067,1.7275,1.7318,1.7485,1.7843,1.841,1.7894,1.7118,1.6619,1.5712,1.542,1.5241,1.5069,1.6054,1.6595,1.6886,1.7145,1.7454,1.7852,1.8496,1.8823,1.8986,1.9359,1.9822,1.9698,1.9723,1.9761,1.9798,1.9874,1.9886,1.9647,1.9233,1.8933,1.8732,1.8657,1.8494,1.8281,2.5059,2.5165,2.5557,2.5684,2.5684,2.5684,2.5684,2.5684,2.5664,2.541,2.4961,2.5018,2.4619,2.4199,2.4131,2.4062,2.4053,2.4404,2.4609,2.459,2.4355,2.4199,2.3945,2.3539,2.3325,2.3247,2.3315,2.3335,2.3364,2.3335,2.3237,2.314,2.3101,2.3101,2.3101,2.3101,2.3101,2.3101,2.3101,2.3101,2.3033,2.2867,2.2695,2.248,2.2236,2.1904,2.1553,2.1299,2.1103,2.083,2.0703,2.0625,2.0615,2.0605,2.0527,2.0283,2.0117,1.9971,1.9971,1.9932,1.9774,1.9764,1.9394,1.9228,1.9307,1.918,1.917,1.9131,1.9004,1.8916,1.8779,1.8477,1.832,1.8037,1.7871,1.7681,1.7399,1.7428,1.7506,1.7705,1.7819,1.8039,1.8521,1.8927,1.9178,1.8422,1.768,1.6708,1.582,1.5679,1.5509,1.6118,1.7192,1.7717,1.8169,1.8674,1.9105,1.9582,1.9712,1.9783,2.0227,2.069,2.03,2.0024,2.03,2.0426,2.015,1.9973,1.9822,1.9672,1.9459,1.9309,1.9284,1.9045,1.8757,2.5077,2.5117,2.5527,2.5664,2.5684,2.5635,2.5625,2.5645,2.5645,2.5195,2.4434,2.4795,2.4326,2.3403,2.3603,2.3633,2.3477,2.3769,2.3994,2.3984,2.4023,2.3955,2.3848,2.3535,2.3545,2.3701,2.3799,2.3799,2.3799,2.3682,2.3486,2.3179,2.3101,2.3101,2.3101,2.3101,2.3101,2.3101,2.3101,2.3101,2.3052,2.3052,2.2847,2.2705,2.2529,2.2236,2.1865,2.1523,2.1239,2.1016,2.0781,2.0683,2.0615,2.0615,2.0293,2.0088,2.0,2.0205,2.0429,2.041,2.0439,2.0312,2.0,1.9678,1.957,1.9678,1.9697,1.957,1.9414,1.9355,1.9248,1.917,1.9092,1.8896,1.873,1.8428,1.8027,1.7978,1.8057,1.8184,1.8247,1.8655,1.9672,2.0169,2.0194,1.9957,1.9212,1.8194,1.7364,1.6835,1.6541,1.5988,1.7123,1.84,1.9022,1.9624,2.0091,2.0486,2.0571,2.0665,2.1167,2.138,2.1004,2.0853,2.1104,2.1041,2.0602,2.0313,2.0125,1.9999,2.0037,1.9723,1.9635,1.9346,1.9083,2.4372,2.4648,2.5088,2.5439,2.5615,2.54,2.5264,2.5264,2.5244,2.4775,2.3975,2.4102,2.3799,2.3149,2.3227,2.3428,2.3584,2.3809,2.4248,2.4248,2.4004,2.4248,2.4209,2.3965,2.3965,2.4082,2.4219,2.418,2.4131,2.3994,2.3574,2.3159,2.312,2.3101,2.3101,2.3101,2.3101,2.3101,2.3101,2.3101,2.3101,2.3101,2.2974,2.2906,2.2857,2.2568,2.208,2.1826,2.1504,2.0879,2.0732,2.0615,2.0615,2.0605,2.0478,2.0458,2.0439,2.0488,2.0586,2.0615,2.0615,2.0615,2.0371,2.039,2.0292,2.0233,2.0215,2.0029,1.9834,1.9756,1.9678,1.9619,1.9551,1.9414,1.9238,1.8955,1.8584,1.8447,1.8525,1.8635,1.8735,1.9206,2.0303,2.0994,2.0989,2.1124,2.08,1.9794,1.8862,1.8311,1.8218,1.7666,1.7758,1.9227,1.9872,2.0461,2.093,2.1315,2.1358,2.1418,2.1782,2.1882,2.1631,2.1543,2.1581,2.1317,2.0888,2.0688,2.0639,2.074,2.0752,2.0313,1.9911,1.9648,1.9447,2.3935,2.4238,2.4871,2.5234,2.5361,2.5,2.4736,2.4619,2.4727,2.4394,2.3838,2.3818,2.3545,2.314,2.312,2.3227,2.3477,2.3496,2.3809,2.4102,2.4033,2.4277,2.4336,2.4228,2.4092,2.4277,2.4424,2.4365,2.4297,2.4014,2.3603,2.3437,2.3237,2.311,2.3101,2.3101,2.3101,2.3101,2.3101,2.3101,2.3101,2.3101,2.3101,2.3101,2.3101,2.274,2.2402,2.2246,2.1728,2.1114,2.0948,2.0723,2.0752,2.084,2.0713,2.0664,2.0576,2.0576,2.0615,2.0615,2.0615,2.0615,2.0615,2.0576,2.0566,2.0507,2.0527,2.0458,2.0273,2.0146,2.0068,1.998,1.9902,1.9852,1.9619,1.9414,1.918,1.8955,1.9001,1.9131,1.9374,1.9737,2.0409,2.1199,2.1799,2.1906,2.203,2.1753,2.0691,1.9773,2.0087,2.0178,1.9946,2.0277,2.0745,2.1174,2.1604,2.1895,2.192,2.2071,2.2397,2.2456,2.2347,2.2121,2.1907,2.1719,2.1578,2.1368,2.128,2.138,2.1317,2.0878,2.0376,1.9911,1.9786,2.376,2.3877,2.4715,2.5,2.4951,2.4551,2.418,2.3848,2.416,2.4092,2.375,2.3721,2.3477,2.314,2.3101,2.3159,2.3266,2.3286,2.3574,2.3818,2.3721,2.3994,2.4336,2.4082,2.416,2.4326,2.4404,2.4365,2.4238,2.3975,2.374,2.373,2.334,2.3101,2.3101,2.3101,2.3101,2.3101,2.3101,2.3101,2.3101,2.3101,2.3101,2.3101,2.3091,2.2994,2.2886,2.2633,2.2314,2.1748,2.1279,2.0937,2.1201,2.1132,2.0957,2.0752,2.0683,2.0615,2.0615,2.0615,2.0615,2.0615,2.0615,2.0615,2.0615,2.0615,2.0615,2.0615,2.0458,2.0391,2.0361,2.0341,2.0292,2.0224,2.0049,1.9971,1.995,1.9715,1.9558,1.9615,1.9568,1.9936,2.0353,2.113,2.1918,2.2312,2.2955,2.3121,2.2433,2.1292,2.1497,2.2128,2.1734,2.1287,2.1241,2.1682,2.218,2.2447,2.2447,2.256,2.2744,2.2907,2.307,2.2732,2.2422,2.2506,2.2431,2.2167,2.1958,2.1882,2.1744,2.138,2.0916,2.0451,1.9999,2.3486,2.3838,2.4355,2.457,2.4521,2.4121,2.3887,2.3769,2.3471,2.3374,2.3257,2.3247,2.3218,2.312,2.3101,2.3198,2.3467,2.3237,2.3588,2.3769,2.3682,2.4043,2.4541,2.416,2.4258,2.458,2.4609,2.4248,2.4082,2.3867,2.3613,2.335,2.3101,2.3101,2.3101,2.3101,2.3101,2.3101,2.3101,2.3101,2.3101,2.3101,2.3101,2.3101,2.3091,2.2935,2.2789,2.2617,2.2266,2.1846,2.1475,2.1553,2.1992,2.1483,2.119,2.1045,2.0762,2.0644,2.0615,2.0615,2.0615,2.0615,2.0615,2.0615,2.0615,2.0615,2.0615,2.0615,2.0615,2.0615,2.0615,2.0615,2.0605,2.0546,2.0498,2.0546,2.0595,2.038,2.0136,2.0018,1.9863,2.0122,2.0511,2.1071,2.1868,2.2787,2.3867,2.4173,2.3598,2.277,2.269,2.3065,2.2816,2.2496,2.2201,2.2146,2.2633,2.2844,2.2857,2.2982,2.3095,2.3095,2.3095,2.3083,2.2957,2.2932,2.2907,2.2907,2.2694,2.2456,2.2272,2.1958,2.1744,2.1343,2.0627,2.3281,2.3481,2.375,2.3965,2.4043,2.3682,2.3496,2.3457,2.3198,2.3101,2.3101,2.3101,2.3101,2.3101,2.3101,2.3179,2.3467,2.3218,2.3491,2.374,2.3838,2.4248,2.4316,2.4189,2.4307,2.4531,2.4326,2.4043,2.3945,2.3838,2.3623,2.3379,2.3237,2.3101,2.3101,2.3101,2.3101,2.3101,2.3101,2.3101,2.3101,2.3101,2.3101,2.3101,2.3042,2.2906,2.2877,2.2773,2.2539,2.2285,2.1992,2.1709,2.1865,2.165,2.1309,2.0977,2.0693,2.0615,2.0615,2.0615,2.0615,2.0615,2.0615,2.0615,2.0615,2.0615,2.0615,2.0615,2.0615,2.0615,2.0615,2.0615,2.0615,2.0576,2.0566,2.0586,2.0605,2.0517,2.04,2.0361,2.0348,2.0489,2.0839,2.1028,2.1902,2.3194,2.4298,2.4738,2.4266,2.3954,2.3979,2.3898,2.3622,2.3215,2.2754,2.2761,2.3055,2.3208,2.3333,2.3183,2.3158,2.312,2.3095,2.3083,2.3083,2.307,2.3083,2.3095,2.3095,2.2857,2.2706,2.2573,2.2359,2.2096,2.1455,2.3101,2.3101,2.311,2.3315,2.3623,2.3276,2.311,2.311,2.3101,2.3101,2.3101,2.3101,2.3101,2.3101,2.3101,2.3101,2.3101,2.312,2.3403,2.3594,2.3643,2.4004,2.4141,2.4102,2.4043,2.3965,2.3828,2.3926,2.3958,2.3779,2.3584,2.3603,2.3418,2.3101,2.3101,2.3101,2.3101,2.3101,2.3101,2.3101,2.3101,2.3101,2.3101,2.3101,2.3101,2.3101,2.3101,2.3033,2.2847,2.2721,2.2549,2.2334,2.209,2.1973,2.1533,2.1222,2.0869,2.0762,2.0635,2.0615,2.0615,2.0615,2.0615,2.0615,2.0615,2.0732,2.0732,2.0693,2.0693,2.0684,2.0684,2.0732,2.0732,2.0625,2.0625,2.0615,2.0615,2.0615,2.0605,2.0634,2.0824,2.0959,2.1203,2.1376,2.2394,2.3653,2.435,2.4655,2.4809,2.4623,2.4544,2.4469,2.428,2.3804,2.3423,2.3435,2.3697,2.381,2.3898,2.3509,2.3271,2.3434,2.3396,2.3095,2.3095,2.3108,2.3108,2.3095,2.3095,2.3095,2.2995,2.2819,2.2694,2.2431,2.2159,2.3101,2.3101,2.3101,2.3159,2.3208,2.313,2.3101,2.3101,2.3101,2.3101,2.3101,2.3101,2.3101,2.3101,2.3101,2.3101,2.3101,2.3101,2.3101,2.3208,2.3305,2.3662,2.3857,2.3789,2.3383,2.3325,2.3354,2.3325,2.3578,2.3393,2.3227,2.3237,2.3227,2.3101,2.3101,2.3101,2.3101,2.3101,2.3101,2.3101,2.3101,2.3101,2.3101,2.3101,2.3101,2.3101,2.3101,2.3101,2.3052,2.3003,2.2925,2.2769,2.2555,2.2344,2.1973,2.1553,2.123,2.0937,2.082,2.0742,2.0723,2.0615,2.0615,2.0615,2.0781,2.1173,2.1173,2.1123,2.1113,2.1034,2.1034,2.1113,2.1094,2.0762,2.0654,2.0625,2.0615,2.0615,2.0605,2.0895,2.1229,2.1528,2.1912,2.2542,2.3681,2.4705,2.5288,2.5515,2.517,2.5119,2.5109,2.5021,2.4921,2.4795,2.455,2.4267,2.4387,2.4499,2.4519,2.4205,2.3985,2.396,2.3847,2.3584,2.3258,2.3133,2.312,2.3208,2.3095,2.3095,2.3095,2.302,2.292,2.2807,2.2531]}]]